[[{"header":{"parameterUnit":"m.s-1","parameterCategory":1,"la1":31.0,"la2":29.5877,"lo1":-88.7671,"lo2":-86.6584,"dy":0.0162,"dx":0.0185,"nx":115,"ny":88,"refTime":"2024-03-01T18:00:00:Z","depth":0,"parameterNumber":2,"parameterNumberName":"U-component_of_WINDS"},"data":[0.0,0.0,0.0,0.0,0.0,0.0,0.0,0.0,0.0,0.0,0.0,0.0,0.0,0.0,0.0,0.0,0.0,0.0,0.0,0.0,0.0,0.0,0.0,0.0,0.0,0.0,0.0,0.0,0.0,0.0,0.0,0.0,0.0,0.0,0.0,0.0,0.0,0.0,0.0,0.0,0.0,0.0,0.0,0.0,0.0,0.0,0.0,0.0,0.0,0.0,0.0,0.0,0.0,0.0,0.0,0.0,0.0,0.0,0.0,0.0,0.0,0.0,0.0,0.0,0.0,0.0,0.0,0.0,0.0,0.0,0.0,0.0,0.0,0.0,0.0,0.0,0.0,0.0,0.0,0.0,0.0,0.0,0.0,0.0,0.0,0.0,0.0,0.0,0.0,0.0,0.0,0.0,0.0,0.0,0.0,0.0,0.0,0.0,0.0,0.0,0.0,0.0,0.0,0.0,0.0,0.0,0.0,0.0,0.0,0.0,0.0,0.0,0.0,0.0,0.0,0.0,0.0,0.0,0.0,0.0,0.0,0.0,0.0,0.0,0.0,0.0,0.0,0.0,0.0,0.0,0.0,0.0,0.0,0.0,0.0,0.0,0.0,0.0,0.0,0.0,0.0,0.0,0.0,0.0,0.0,0.0,0.0,0.0,0.0,0.0,0.0,0.0,0.0,0.0,0.0,0.0,0.0,0.0,0.0,0.0,0.0,0.0,0.0,0.0,0.0,0.0,0.0,0.0,0.0,0.0,0.0,0.0,0.0,0.0,0.0,0.0,0.0,0.0,0.0,0.0,0.0,0.0,0.0,0.0,0.0,0.0,0.0,0.0,0.0,0.0,0.0,0.0,0.0,0.0,0.0,0.0,0.0,0.0,0.0,0.0,0.0,0.0,0.0,0.0,0.0,0.0,0.0,0.0,0.0,0.0,0.0,0.0,0.0,0.0,0.0,0.0,0.0,0.0,0.0,0.0,0.0,0.0,0.0,0.0,0.0,0.0,0.0,0.0,0.0,0.0,0.0,0.0,0.0,0.0,0.0,0.0,0.0,0.0,0.0,0.0,0.0,0.0,0.0,0.0,0.0,0.0,0.0,0.0,0.0,0.0,0.0,0.0,0.0,0.0,0.0,0.0,0.0,0.0,0.0,0.0,0.0,0.0,0.0,0.0,0.0,0.0,0.0,0.0,0.0,0.0,0.0,0.0,0.0,0.0,0.0,0.0,0.0,0.0,0.0,0.0,0.0,0.0,0.0,0.0,0.0,0.0,0.0,0.0,0.0,0.0,0.0,0.0,0.0,0.0,0.0,0.0,0.0,0.0,0.0,0.0,0.0,0.0,0.0,0.0,0.0,0.0,0.0,0.0,0.0,0.0,0.0,0.0,0.0,0.0,0.0,0.0,0.0,0.0,0.0,0.0,0.0,0.0,0.0,0.0,0.0,0.0,0.0,0.0,0.0,0.0,0.0,0.0,0.0,0.0,0.0,0.0,0.0,0.0,0.0,0.0,0.0,0.0,0.0,0.0,0.0,0.0,0.0,0.0,0.0,0.0,0.0,0.0,0.0,0.0,0.0,0.0,0.0,0.0,0.0,0.0,0.0,0.0,0.0,0.0,0.0,0.0,0.0,0.0,0.0,0.0,0.0,0.0,0.0,0.0,0.0,0.0,0.0,0.0,0.0,0.0,0.0,0.0,0.0,0.0,0.0,0.0,0.0,0.0,0.0,0.0,0.0,0.0,0.0,0.0,0.0,0.0,0.0,0.0,0.0,0.0,0.0,0.0,0.0,0.0,0.0,0.0,0.0,0.0,0.0,0.0,0.0,0.0,0.0,0.0,0.0,0.0,0.0,0.0,0.0,0.0,0.0,0.0,0.0,0.0,0.0,0.0,0.0,0.0,0.0,0.0,0.0,0.0,0.0,0.0,0.0,0.0,0.0,0.0,0.0,0.0,0.0,0.0,0.0,0.0,0.0,0.0,0.0,0.0,0.0,0.0,0.0,0.0,0.0,0.0,0.0,0.0,0.0,0.0,0.0,0.0,0.0,0.0,0.0,0.0,0.0,0.0,0.0,0.0,0.0,0.0,0.0,0.0,0.0,0.0,0.0,0.0,0.0,0.0,0.0,0.0,0.0,0.0,0.0,0.0,0.0,0.0,0.0,0.0,0.0,0.0,0.0,0.0,0.0,0.0,0.0,0.0,0.0,0.0,0.0,0.0,0.0,0.0,0.0,0.0,0.0,0.0,0.0,0.0,0.0,0.0,0.0,0.0,0.0,0.0,0.0,0.0,0.0,0.0,0.0,0.0,0.0,0.0,0.0,0.0,0.0,0.0,0.0,0.0,0.0,0.0,0.0,0.0,0.0,0.0,0.0,0.0,0.0,0.0,0.0,0.0,0.0,0.0,0.0,0.0,0.0,0.0,0.0,0.0,0.0,0.0,0.0,0.0,0.0,0.0,0.0,0.0,0.0,0.0,0.0,0.0,0.0,0.0,0.0,0.0,0.0,0.0,0.0,0.0,0.0,0.0,0.0,0.0,0.0,0.0,0.0,0.0,0.0,0.0,0.0,0.0,0.0,0.0,0.0,0.0,0.0,0.0,0.0,0.0,0.0,0.0,0.0,0.0,0.0,0.0,0.0,0.0,0.0,0.0,0.0,0.0,0.0,0.0,0.0,0.0,0.0,0.0,0.0,0.0,0.0,0.0,0.0,0.0,0.0,0.0,0.0,0.0,0.0,0.0,0.0,0.0,0.0,0.0,0.0,0.0,0.0,0.0,0.0,0.0,0.0,0.0,0.0,0.0,0.0,0.0,0.0,0.0,0.0,0.0,0.0,0.0,0.0,0.0,0.0,0.0,0.0,0.0,0.0,0.0,0.0,0.0,0.0,0.0,0.0,0.0,0.0,0.0,0.0,0.0,0.0,0.0,0.0,0.0,0.0,0.0,0.0,0.0,0.0,0.0,0.0,0.0,0.0,0.0,0.0,0.0,0.0,0.0,0.0,0.0,0.0,0.0,0.0,0.0,0.0,0.0,0.0,0.0,0.0,0.0,0.0,0.0,0.0,0.0,0.0,0.0,0.0,0.0,0.0,0.0,0.0,0.0,0.0,0.0,0.0,0.0,0.0,0.0,0.0,0.0,0.0,0.0,0.0,0.0,0.0,0.0,0.0,0.0,0.0,0.0,0.0,0.0,0.0,0.0,0.0,0.0,0.0,0.0,0.0,0.0,0.0,0.0,0.0,0.0,0.0,0.0,0.0,0.0,0.0,0.0,0.0,0.0,0.0,0.0,0.0,0.0,0.0,0.0,0.0,0.0,0.0,0.0,0.0,0.0,0.0,0.0,0.0,0.0,0.0,0.0,0.0,0.0,0.0,0.0,0.0,0.0,0.0,0.0,0.0,0.0,0.0,0.0,0.0,0.0,0.0,0.0,0.0,0.0,0.0,0.0,0.0,0.0,0.0,0.0,0.0,0.0,0.0,0.0,0.0,0.0,0.0,0.0,0.0,0.0,0.0,0.0,0.0,0.0,0.0,0.0,0.0,0.0,0.0,0.0,0.0,0.0,0.0,0.0,0.0,0.0,0.0,0.0,0.0,0.0,0.0,0.0,0.0,0.0,0.0,0.0,0.0,0.0,0.0,0.0,0.0,0.0,0.0,0.0,0.0,0.0,0.0,0.0,0.0,0.0,0.0,0.0,0.0,0.0,0.0,0.0,0.0,0.0,0.0,0.0,0.0,0.0,0.0,0.0,0.0,0.0,0.0,0.0,0.0,0.0,0.0,0.0,0.0,0.0,0.0,0.0,0.0,0.0,0.0,0.0,0.0,0.0,0.0,0.0,0.0,0.0,0.0,0.0,0.0,0.0,0.0,0.0,0.0,0.0,0.0,0.0,0.0,0.0,0.0,0.0,0.0,0.0,0.0,0.0,0.0,0.0,0.0,0.0,0.0,0.0,0.0,0.0,0.0,0.0,0.0,0.0,0.0,0.0,0.0,0.0,0.0,0.0,0.0,0.0,0.0,0.0,0.0,0.0,0.0,0.0,0.0,0.0,0.0,0.0,0.0,0.0,0.0,0.0,0.0,0.0,0.0,0.0,0.0,0.0,0.0,0.0,0.0,0.0,0.0,0.0,0.0,0.0,0.0,0.0,0.0,0.0,0.0,0.0,0.0,0.0,0.0,0.0,0.0,0.0,0.0,0.0,0.0,0.0,0.0,0.0,0.0,0.0,0.0,0.0,0.0,0.0,0.0,0.0,0.0,0.0,0.0,0.0,0.0,0.0,-3.1143,0.0,0.0,0.0,0.0,0.0,0.0,0.0,0.0,0.0,0.0,0.0,0.0,0.0,0.0,0.0,0.0,0.0,0.0,0.0,0.0,0.0,0.0,0.0,0.0,0.0,0.0,0.0,0.0,0.0,0.0,0.0,0.0,0.0,0.0,0.0,0.0,0.0,0.0,0.0,0.0,0.0,0.0,0.0,0.0,0.0,0.0,0.0,0.0,0.0,0.0,0.0,0.0,0.0,0.0,0.0,0.0,0.0,0.0,0.0,0.0,0.0,0.0,0.0,0.0,0.0,0.0,0.0,0.0,0.0,0.0,0.0,0.0,0.0,0.0,0.0,0.0,0.0,0.0,0.0,0.0,0.0,0.0,0.0,0.0,0.0,0.0,0.0,0.0,0.0,0.0,0.0,0.0,0.0,0.0,0.0,0.0,0.0,0.0,0.0,0.0,0.0,0.0,0.0,0.0,0.0,0.0,0.0,0.0,0.0,0.0,-3.4691,-3.3484,-3.5023,-3.4353,-3.1161,0.0,0.0,0.0,0.0,0.0,0.0,0.0,0.0,0.0,0.0,0.0,0.0,0.0,0.0,0.0,0.0,0.0,0.0,0.0,0.0,0.0,0.0,0.0,0.0,0.0,0.0,0.0,0.0,0.0,0.0,0.0,0.0,0.0,0.0,0.0,0.0,0.0,0.0,0.0,0.0,0.0,0.0,0.0,0.0,0.0,0.0,0.0,0.0,0.0,0.0,0.0,0.0,0.0,0.0,0.0,0.0,0.0,0.0,0.0,0.0,0.0,0.0,0.0,0.0,0.0,0.0,0.0,0.0,0.0,0.0,0.0,0.0,0.0,0.0,0.0,0.0,0.0,0.0,0.0,0.0,0.0,0.0,0.0,0.0,0.0,0.0,0.0,0.0,0.0,0.0,0.0,0.0,0.0,0.0,0.0,0.0,0.0,0.0,0.0,0.0,0.0,0.0,0.0,0.0,0.0,0.0,0.0,0.0,0.0,0.0,0.0,0.0,-3.6379,-3.5654,-3.2234,0.0,0.0,0.0,0.0,0.0,0.0,0.0,0.0,0.0,0.0,0.0,0.0,0.0,0.0,0.0,0.0,0.0,0.0,0.0,0.0,0.0,0.0,0.0,0.0,0.0,0.0,0.0,0.0,0.0,0.0,0.0,0.0,0.0,0.0,0.0,0.0,0.0,0.0,0.0,0.0,0.0,0.0,0.0,0.0,0.0,0.0,0.0,0.0,0.0,0.0,0.0,0.0,0.0,0.0,0.0,0.0,0.0,0.0,0.0,0.0,0.0,0.0,0.0,0.0,0.0,0.0,0.0,0.0,0.0,0.0,0.0,0.0,0.0,0.0,0.0,0.0,0.0,0.0,0.0,0.0,0.0,0.0,0.0,0.0,0.0,0.0,0.0,0.0,0.0,0.0,0.0,0.0,0.0,0.0,0.0,0.0,0.0,0.0,0.0,0.0,0.0,0.0,0.0,0.0,0.0,0.0,0.0,0.0,0.0,0.0,-3.5276,-3.8735,-3.8319,0.0,-3.5403,0.0,0.0,0.0,0.0,0.0,0.0,0.0,0.0,0.0,0.0,0.0,0.0,0.0,0.0,0.0,0.0,0.0,0.0,0.0,0.0,0.0,0.0,0.0,0.0,0.0,0.0,0.0,0.0,0.0,0.0,0.0,0.0,0.0,0.0,0.0,0.0,0.0,0.0,0.0,0.0,0.0,0.0,0.0,0.0,0.0,0.0,0.0,0.0,0.0,0.0,0.0,0.0,0.0,0.0,0.0,0.0,0.0,0.0,0.0,0.0,0.0,0.0,0.0,0.0,0.0,0.0,0.0,0.0,0.0,0.0,0.0,0.0,0.0,0.0,0.0,0.0,0.0,0.0,0.0,0.0,0.0,0.0,0.0,0.0,0.0,0.0,0.0,0.0,0.0,0.0,0.0,0.0,0.0,0.0,0.0,0.0,0.0,0.0,0.0,0.0,0.0,0.0,0.0,0.0,0.0,0.0,0.0,0.0,0.0,0.0,-3.5488,-3.7747,-3.6774,-3.5672,0.0,0.0,0.0,0.0,0.0,0.0,0.0,0.0,0.0,0.0,0.0,0.0,0.0,0.0,0.0,0.0,0.0,0.0,0.0,0.0,0.0,0.0,0.0,0.0,0.0,0.0,0.0,0.0,0.0,0.0,0.0,0.0,0.0,0.0,0.0,0.0,0.0,0.0,0.0,0.0,0.0,0.0,0.0,0.0,0.0,0.0,0.0,0.0,0.0,0.0,0.0,0.0,0.0,0.0,0.0,0.0,0.0,0.0,0.0,0.0,0.0,0.0,0.0,0.0,0.0,0.0,0.0,0.0,0.0,0.0,0.0,0.0,0.0,0.0,0.0,0.0,0.0,0.0,0.0,0.0,0.0,0.0,0.0,0.0,0.0,0.0,0.0,0.0,0.0,0.0,0.0,0.0,0.0,0.0,0.0,0.0,0.0,0.0,0.0,0.0,0.0,0.0,0.0,0.0,0.0,0.0,0.0,0.0,0.0,0.0,-3.5758,-3.6612,-3.8198,-3.6523,-3.5033,-3.4084,0.0,0.0,0.0,0.0,0.0,0.0,0.0,0.0,0.0,0.0,0.0,0.0,0.0,0.0,0.0,0.0,0.0,0.0,0.0,0.0,0.0,0.0,0.0,0.0,0.0,0.0,0.0,0.0,0.0,0.0,0.0,0.0,0.0,0.0,0.0,0.0,0.0,0.0,0.0,0.0,0.0,0.0,0.0,0.0,0.0,0.0,0.0,0.0,0.0,0.0,0.0,0.0,0.0,0.0,0.0,0.0,0.0,0.0,0.0,0.0,0.0,0.0,0.0,0.0,0.0,0.0,0.0,0.0,0.0,0.0,0.0,0.0,0.0,0.0,0.0,0.0,0.0,0.0,0.0,0.0,0.0,0.0,0.0,0.0,0.0,0.0,0.0,0.0,0.0,0.0,0.0,0.0,0.0,0.0,0.0,0.0,0.0,0.0,0.0,0.0,0.0,0.0,0.0,0.0,0.0,0.0,0.0,0.0,-4.2199,-3.9199,-3.9121,-4.2244,-3.8882,-3.6528,0.0,0.0,0.0,0.0,0.0,0.0,0.0,0.0,0.0,0.0,0.0,0.0,0.0,0.0,0.0,0.0,0.0,0.0,0.0,0.0,0.0,0.0,0.0,0.0,0.0,0.0,0.0,0.0,0.0,0.0,0.0,0.0,0.0,0.0,0.0,0.0,0.0,0.0,0.0,0.0,0.0,0.0,0.0,0.0,0.0,0.0,0.0,0.0,0.0,0.0,0.0,0.0,0.0,0.0,0.0,0.0,0.0,0.0,0.0,0.0,0.0,0.0,0.0,0.0,0.0,0.0,0.0,0.0,0.0,0.0,0.0,0.0,0.0,0.0,0.0,0.0,0.0,0.0,0.0,0.0,0.0,0.0,0.0,0.0,0.0,0.0,0.0,0.0,0.0,0.0,0.0,0.0,0.0,0.0,0.0,0.0,0.0,0.0,0.0,0.0,0.0,0.0,0.0,0.0,0.0,0.0,0.0,0.0,0.0,-3.571,-3.6148,-3.7777,-4.0576,-3.7514,-3.6071,0.0,0.0,0.0,0.0,0.0,0.0,0.0,0.0,0.0,0.0,0.0,0.0,0.0,0.0,0.0,0.0,0.0,0.0,0.0,0.0,0.0,0.0,0.0,0.0,0.0,0.0,0.0,0.0,0.0,0.0,0.0,0.0,0.0,0.0,0.0,0.0,0.0,0.0,0.0,0.0,0.0,0.0,0.0,0.0,0.0,0.0,0.0,0.0,0.0,0.0,0.0,0.0,0.0,0.0,0.0,0.0,0.0,0.0,0.0,0.0,0.0,0.0,0.0,0.0,0.0,0.0,0.0,0.0,0.0,0.0,0.0,0.0,0.0,0.0,0.0,0.0,0.0,0.0,0.0,0.0,0.0,0.0,0.0,0.0,0.0,0.0,0.0,0.0,0.0,0.0,0.0,0.0,0.0,0.0,0.0,0.0,0.0,0.0,0.0,0.0,0.0,0.0,0.0,0.0,0.0,0.0,0.0,0.0,0.0,-3.4229,0.0,-3.8474,-3.9668,-3.6817,-3.5223,0.0,0.0,0.0,0.0,0.0,0.0,0.0,0.0,0.0,0.0,0.0,0.0,0.0,0.0,0.0,0.0,0.0,0.0,0.0,0.0,0.0,0.0,0.0,0.0,0.0,0.0,0.0,0.0,0.0,0.0,0.0,0.0,0.0,0.0,0.0,0.0,0.0,0.0,0.0,0.0,0.0,0.0,0.0,0.0,0.0,0.0,0.0,0.0,0.0,0.0,0.0,0.0,0.0,0.0,0.0,0.0,0.0,0.0,0.0,0.0,0.0,0.0,0.0,0.0,0.0,0.0,0.0,0.0,0.0,0.0,0.0,0.0,0.0,0.0,0.0,0.0,0.0,0.0,0.0,0.0,0.0,0.0,0.0,0.0,0.0,0.0,0.0,0.0,0.0,0.0,0.0,0.0,0.0,0.0,0.0,0.0,0.0,0.0,0.0,0.0,0.0,0.0,0.0,0.0,0.0,0.0,0.0,0.0,-3.3911,-3.9181,-4.106,-4.126,-4.0193,-3.7059,-3.4115,0.0,0.0,0.0,0.0,0.0,0.0,0.0,0.0,0.0,0.0,0.0,0.0,0.0,0.0,0.0,0.0,0.0,0.0,0.0,0.0,0.0,0.0,0.0,0.0,0.0,0.0,0.0,0.0,0.0,0.0,0.0,0.0,0.0,0.0,0.0,0.0,0.0,0.0,0.0,0.0,0.0,0.0,0.0,0.0,0.0,0.0,0.0,0.0,0.0,0.0,0.0,0.0,0.0,0.0,0.0,0.0,0.0,0.0,0.0,0.0,0.0,0.0,0.0,0.0,0.0,0.0,0.0,0.0,0.0,0.0,0.0,0.0,0.0,0.0,0.0,0.0,0.0,0.0,0.0,0.0,0.0,0.0,0.0,0.0,0.0,0.0,0.0,0.0,0.0,0.0,0.0,0.0,0.0,0.0,0.0,0.0,0.0,0.0,0.0,0.0,0.0,0.0,0.0,0.0,0.0,0.0,0.0,0.0,0.0,-3.5059,-3.6609,-3.8435,-4.0273,-3.5749,-3.4025,0.0,0.0,0.0,0.0,0.0,0.0,0.0,0.0,0.0,0.0,0.0,0.0,0.0,0.0,0.0,0.0,0.0,0.0,0.0,0.0,0.0,0.0,0.0,0.0,0.0,0.0,0.0,0.0,0.0,0.0,0.0,0.0,0.0,0.0,0.0,0.0,0.0,0.0,0.0,0.0,0.0,0.0,0.0,0.0,0.0,0.0,0.0,0.0,0.0,0.0,0.0,0.0,0.0,0.0,0.0,0.0,0.0,0.0,0.0,0.0,0.0,0.0,0.0,0.0,0.0,0.0,0.0,0.0,0.0,0.0,0.0,0.0,0.0,0.0,0.0,0.0,0.0,0.0,0.0,0.0,0.0,0.0,0.0,0.0,0.0,0.0,0.0,0.0,0.0,0.0,0.0,0.0,0.0,0.0,0.0,0.0,0.0,0.0,0.0,0.0,0.0,0.0,0.0,0.0,0.0,0.0,0.0,0.0,0.0,-3.5445,-3.7303,-3.8902,-4.0181,-3.6164,-3.4398,-3.5187,0.0,0.0,0.0,0.0,0.0,0.0,0.0,0.0,0.0,0.0,0.0,0.0,0.0,0.0,0.0,0.0,0.0,0.0,0.0,0.0,0.0,0.0,0.0,0.0,0.0,0.0,0.0,0.0,0.0,0.0,0.0,0.0,0.0,0.0,0.0,0.0,0.0,0.0,0.0,0.0,0.0,0.0,0.0,0.0,0.0,0.0,0.0,0.0,0.0,0.0,0.0,0.0,0.0,0.0,0.0,0.0,0.0,0.0,0.0,0.0,0.0,0.0,0.0,0.0,0.0,0.0,0.0,0.0,0.0,0.0,0.0,0.0,0.0,0.0,0.0,0.0,0.0,0.0,0.0,0.0,0.0,0.0,0.0,0.0,0.0,0.0,0.0,0.0,0.0,0.0,0.0,0.0,0.0,0.0,0.0,0.0,0.0,0.0,0.0,0.0,0.0,0.0,0.0,0.0,0.0,0.0,0.0,0.0,-3.9365,-4.2204,-4.2365,-3.9821,-3.8035,-3.5278,0.0,0.0,0.0,0.0,0.0,0.0,0.0,0.0,0.0,0.0,0.0,0.0,0.0,0.0,0.0,0.0,0.0,0.0,0.0,0.0,0.0,0.0,0.0,0.0,0.0,0.0,0.0,0.0,0.0,0.0,0.0,0.0,0.0,0.0,0.0,0.0,0.0,0.0,0.0,0.0,0.0,0.0,0.0,0.0,0.0,0.0,0.0,0.0,0.0,0.0,0.0,0.0,0.0,0.0,0.0,0.0,0.0,0.0,0.0,0.0,0.0,0.0,0.0,0.0,0.0,0.0,0.0,0.0,0.0,0.0,0.0,0.0,0.0,0.0,0.0,0.0,0.0,0.0,0.0,0.0,0.0,0.0,0.0,0.0,0.0,0.0,0.0,0.0,0.0,0.0,0.0,0.0,0.0,0.0,0.0,0.0,0.0,0.0,0.0,0.0,0.0,0.0,0.0,0.0,0.0,0.0,0.0,0.0,0.0,-4.0763,-4.3181,-4.4072,-4.3256,-3.883,-3.5865,0.0,0.0,0.0,0.0,0.0,0.0,0.0,0.0,0.0,0.0,0.0,0.0,0.0,0.0,0.0,0.0,0.0,0.0,0.0,0.0,0.0,0.0,0.0,0.0,0.0,0.0,0.0,0.0,0.0,0.0,0.0,0.0,0.0,0.0,0.0,0.0,0.0,0.0,0.0,0.0,0.0,0.0,0.0,0.0,0.0,0.0,0.0,0.0,0.0,0.0,0.0,0.0,0.0,0.0,0.0,0.0,0.0,0.0,0.0,0.0,0.0,0.0,0.0,0.0,0.0,0.0,0.0,0.0,0.0,0.0,0.0,0.0,0.0,0.0,0.0,0.0,0.0,0.0,0.0,0.0,0.0,0.0,0.0,0.0,0.0,0.0,0.0,0.0,0.0,0.0,0.0,0.0,0.0,0.0,0.0,0.0,0.0,0.0,0.0,0.0,0.0,0.0,0.0,0.0,0.0,0.0,0.0,0.0,-3.8377,-4.2224,-4.4175,-4.5028,-4.4762,-4.0894,-3.7451,0.0,0.0,0.0,0.0,0.0,0.0,0.0,0.0,0.0,0.0,0.0,0.0,0.0,0.0,0.0,0.0,0.0,0.0,0.0,0.0,0.0,0.0,0.0,0.0,0.0,0.0,0.0,0.0,0.0,0.0,0.0,0.0,0.0,0.0,0.0,0.0,0.0,0.0,0.0,0.0,0.0,0.0,0.0,0.0,0.0,0.0,0.0,0.0,0.0,0.0,0.0,0.0,0.0,0.0,0.0,0.0,0.0,0.0,0.0,0.0,0.0,0.0,0.0,0.0,0.0,0.0,0.0,0.0,0.0,0.0,0.0,0.0,0.0,0.0,0.0,0.0,0.0,0.0,0.0,0.0,0.0,0.0,0.0,0.0,0.0,0.0,0.0,0.0,0.0,0.0,0.0,0.0,0.0,0.0,0.0,0.0,0.0,0.0,0.0,0.0,0.0,0.0,0.0,0.0,0.0,0.0,0.0,0.0,-3.9044,-4.3132,-4.4686,-4.5191,-4.4626,-4.3043,-3.923,0.0,0.0,0.0,0.0,0.0,0.0,0.0,0.0,0.0,0.0,0.0,0.0,0.0,0.0,0.0,0.0,0.0,0.0,0.0,0.0,0.0,0.0,0.0,0.0,0.0,0.0,0.0,0.0,0.0,0.0,0.0,0.0,0.0,0.0,0.0,0.0,0.0,0.0,0.0,0.0,0.0,0.0,0.0,0.0,0.0,0.0,0.0,0.0,0.0,0.0,0.0,0.0,0.0,0.0,0.0,0.0,0.0,0.0,0.0,0.0,0.0,0.0,0.0,0.0,0.0,0.0,0.0,0.0,0.0,0.0,0.0,0.0,0.0,0.0,0.0,0.0,0.0,0.0,0.0,0.0,0.0,0.0,0.0,0.0,0.0,0.0,0.0,0.0,0.0,0.0,0.0,0.0,0.0,0.0,0.0,0.0,0.0,0.0,0.0,0.0,0.0,0.0,0.0,0.0,0.0,0.0,0.0,0.0,-3.7867,-4.0686,-4.2414,-4.3342,-4.3506,-4.1318,-3.8084,0.0,0.0,0.0,0.0,0.0,0.0,0.0,0.0,0.0,0.0,0.0,0.0,0.0,0.0,0.0,0.0,0.0,0.0,0.0,0.0,0.0,0.0,0.0,0.0,0.0,0.0,0.0,0.0,0.0,0.0,0.0,0.0,0.0,0.0,0.0,0.0,0.0,0.0,0.0,0.0,0.0,0.0,0.0,0.0,0.0,0.0,0.0,0.0,-3.4168,0.0,0.0,0.0,0.0,0.0,0.0,0.0,0.0,0.0,0.0,0.0,0.0,0.0,0.0,0.0,0.0,0.0,0.0,0.0,0.0,0.0,0.0,0.0,0.0,0.0,0.0,0.0,0.0,0.0,0.0,0.0,0.0,0.0,0.0,0.0,0.0,0.0,0.0,0.0,0.0,0.0,0.0,0.0,0.0,0.0,0.0,0.0,0.0,0.0,0.0,0.0,0.0,0.0,0.0,0.0,0.0,0.0,0.0,0.0,-3.841,-4.0674,-4.1926,-4.2552,-4.237,-4.0246,-3.7422,0.0,0.0,0.0,0.0,0.0,0.0,0.0,0.0,0.0,0.0,0.0,0.0,0.0,0.0,0.0,0.0,0.0,0.0,0.0,0.0,0.0,0.0,0.0,0.0,0.0,0.0,0.0,0.0,0.0,0.0,0.0,0.0,0.0,0.0,0.0,0.0,0.0,0.0,0.0,0.0,0.0,0.0,0.0,0.0,0.0,0.0,0.0,0.0,0.0,0.0,0.0,0.0,0.0,0.0,0.0,0.0,0.0,0.0,0.0,0.0,0.0,0.0,0.0,0.0,0.0,0.0,0.0,0.0,0.0,0.0,0.0,0.0,0.0,0.0,0.0,0.0,0.0,0.0,0.0,0.0,0.0,0.0,0.0,0.0,0.0,0.0,0.0,0.0,0.0,0.0,0.0,0.0,0.0,0.0,0.0,0.0,0.0,0.0,0.0,0.0,0.0,0.0,0.0,0.0,0.0,0.0,0.0,-3.6072,-3.8748,-4.0678,-4.1543,-4.166,-4.1085,-3.9026,-3.652,-3.3618,0.0,0.0,0.0,0.0,0.0,0.0,0.0,0.0,0.0,0.0,0.0,0.0,0.0,0.0,0.0,0.0,0.0,0.0,0.0,0.0,0.0,0.0,0.0,0.0,0.0,0.0,0.0,0.0,0.0,0.0,0.0,0.0,0.0,0.0,0.0,0.0,0.0,0.0,-3.3412,-3.5465,0.0,0.0,0.0,0.0,0.0,0.0,0.0,0.0,-3.4946,0.0,0.0,0.0,0.0,0.0,0.0,0.0,0.0,0.0,0.0,0.0,0.0,0.0,0.0,0.0,0.0,0.0,0.0,0.0,0.0,0.0,0.0,0.0,0.0,0.0,0.0,0.0,0.0,0.0,0.0,0.0,0.0,0.0,0.0,0.0,0.0,0.0,0.0,0.0,0.0,0.0,0.0,0.0,0.0,0.0,0.0,0.0,0.0,0.0,0.0,0.0,0.0,0.0,0.0,0.0,0.0,-3.2502,-3.4273,-3.591,-3.7451,-3.8424,-3.8918,-3.8858,-3.6234,-3.3967,-3.2249,0.0,0.0,0.0,0.0,0.0,0.0,0.0,0.0,0.0,0.0,0.0,0.0,0.0,0.0,0.0,0.0,0.0,0.0,0.0,0.0,0.0,0.0,0.0,0.0,0.0,0.0,0.0,0.0,0.0,0.0,0.0,0.0,0.0,0.0,0.0,0.0,0.0,0.0,0.0,-3.7886,-3.8744,0.0,0.0,0.0,0.0,0.0,0.0,0.0,0.0,-3.562,0.0,0.0,0.0,0.0,0.0,0.0,0.0,0.0,0.0,0.0,0.0,0.0,0.0,0.0,0.0,0.0,0.0,0.0,0.0,0.0,0.0,0.0,0.0,0.0,0.0,0.0,0.0,0.0,0.0,0.0,0.0,0.0,0.0,0.0,0.0,0.0,0.0,0.0,0.0,0.0,0.0,0.0,0.0,0.0,0.0,0.0,0.0,0.0,0.0,0.0,0.0,0.0,0.0,0.0,0.0,-3.1665,-3.4019,-3.5737,-3.676,-3.7292,-3.7712,-3.8065,-3.5141,-3.2894,0.0,0.0,0.0,0.0,0.0,0.0,0.0,0.0,0.0,0.0,0.0,0.0,0.0,0.0,0.0,0.0,0.0,0.0,0.0,0.0,0.0,0.0,0.0,0.0,0.0,0.0,0.0,0.0,0.0,0.0,0.0,0.0,0.0,0.0,0.0,0.0,0.0,0.0,0.0,0.0,-3.8481,-3.8945,-3.8748,0.0,0.0,0.0,0.0,0.0,0.0,-3.5575,-3.5429,0.0,0.0,0.0,0.0,0.0,0.0,0.0,0.0,0.0,0.0,0.0,0.0,0.0,0.0,0.0,0.0,0.0,0.0,0.0,0.0,0.0,0.0,0.0,0.0,0.0,0.0,0.0,0.0,0.0,0.0,0.0,0.0,0.0,0.0,0.0,0.0,0.0,0.0,0.0,0.0,0.0,0.0,0.0,0.0,0.0,0.0,0.0,0.0,0.0,0.0,0.0,0.0,0.0,0.0,0.0,-3.0596,-3.3667,-3.576,-3.658,-3.6625,-3.7022,-3.7672,-3.453,-3.2236,0.0,0.0,0.0,0.0,0.0,0.0,0.0,0.0,0.0,0.0,0.0,0.0,0.0,0.0,0.0,0.0,0.0,0.0,0.0,0.0,0.0,0.0,0.0,0.0,0.0,0.0,0.0,0.0,0.0,0.0,0.0,0.0,0.0,0.0,0.0,0.0,0.0,0.0,0.0,0.0,0.0,-3.9145,-3.8881,-3.827,0.0,0.0,0.0,0.0,-3.5844,-3.634,0.0,0.0,0.0,0.0,0.0,0.0,0.0,0.0,0.0,0.0,0.0,0.0,0.0,0.0,0.0,0.0,0.0,0.0,0.0,0.0,0.0,0.0,0.0,0.0,0.0,0.0,0.0,0.0,0.0,0.0,0.0,0.0,0.0,0.0,0.0,0.0,0.0,0.0,0.0,0.0,0.0,0.0,0.0,0.0,0.0,0.0,0.0,0.0,0.0,0.0,0.0,0.0,0.0,0.0,0.0,0.0,-2.9313,-3.1958,-3.4133,-3.5639,-3.5805,-3.6315,-3.7288,-3.3682,-3.1431,0.0,0.0,0.0,0.0,0.0,0.0,0.0,0.0,0.0,0.0,0.0,0.0,0.0,0.0,0.0,0.0,0.0,0.0,0.0,0.0,0.0,0.0,0.0,0.0,0.0,0.0,0.0,0.0,0.0,0.0,0.0,0.0,0.0,0.0,0.0,0.0,0.0,0.0,0.0,0.0,0.0,-4.0404,-3.8541,-3.8145,-3.7576,0.0,0.0,-3.7883,-3.8367,-4.0444,0.0,0.0,0.0,0.0,0.0,0.0,0.0,0.0,0.0,0.0,0.0,0.0,0.0,0.0,0.0,0.0,0.0,0.0,0.0,0.0,0.0,0.0,0.0,0.0,0.0,0.0,0.0,0.0,0.0,0.0,0.0,0.0,0.0,0.0,0.0,0.0,0.0,0.0,0.0,0.0,0.0,0.0,0.0,0.0,0.0,0.0,0.0,0.0,0.0,0.0,0.0,0.0,0.0,0.0,0.0,-2.7744,-2.899,-3.1801,-3.3813,-3.4865,-3.4971,-3.5199,-3.5633,-3.2266,-3.0176,0.0,0.0,0.0,0.0,0.0,0.0,0.0,0.0,0.0,0.0,0.0,0.0,0.0,0.0,0.0,0.0,0.0,0.0,0.0,0.0,0.0,0.0,0.0,0.0,0.0,0.0,0.0,0.0,0.0,0.0,0.0,0.0,0.0,0.0,0.0,0.0,0.0,0.0,0.0,0.0,0.0,0.0,-3.7974,-3.815,0.0,0.0,0.0,-3.8587,-3.8456,0.0,0.0,0.0,0.0,0.0,0.0,0.0,0.0,0.0,0.0,0.0,0.0,0.0,0.0,0.0,0.0,0.0,0.0,0.0,0.0,0.0,0.0,0.0,0.0,0.0,0.0,0.0,0.0,0.0,0.0,0.0,0.0,0.0,0.0,0.0,0.0,0.0,0.0,0.0,0.0,0.0,0.0,0.0,0.0,0.0,0.0,0.0,0.0,0.0,0.0,0.0,0.0,0.0,0.0,0.0,0.0,0.0,-2.8511,-3.1252,-3.3111,-3.4025,-3.3911,-3.3896,-3.406,-3.1122,0.0,0.0,0.0,0.0,0.0,0.0,0.0,0.0,0.0,0.0,0.0,0.0,0.0,0.0,0.0,0.0,0.0,0.0,0.0,0.0,0.0,0.0,0.0,0.0,0.0,0.0,0.0,-2.3608,0.0,0.0,0.0,0.0,0.0,0.0,0.0,0.0,0.0,0.0,0.0,0.0,0.0,0.0,-3.7629,-3.7629,-3.8307,-3.8743,0.0,0.0,-3.9266,-3.8449,-3.9631,-3.962,0.0,0.0,0.0,0.0,0.0,0.0,0.0,0.0,0.0,0.0,0.0,0.0,0.0,0.0,0.0,0.0,0.0,0.0,0.0,0.0,0.0,0.0,0.0,0.0,0.0,0.0,0.0,0.0,0.0,0.0,0.0,0.0,0.0,0.0,0.0,0.0,0.0,0.0,0.0,0.0,0.0,0.0,0.0,0.0,0.0,0.0,0.0,0.0,0.0,0.0,0.0,0.0,0.0,0.0,-2.64,-2.7589,-2.9522,-3.1381,-3.2991,-3.2541,-3.2577,-3.322,-3.0692,-2.8803,0.0,0.0,0.0,0.0,0.0,0.0,0.0,0.0,0.0,0.0,0.0,0.0,0.0,0.0,0.0,0.0,0.0,0.0,0.0,0.0,0.0,0.0,0.0,0.0,0.0,0.0,0.0,0.0,0.0,0.0,0.0,0.0,0.0,0.0,0.0,0.0,0.0,0.0,0.0,0.0,0.0,-3.7691,-3.7676,-3.8735,-3.941,0.0,-4.0019,-4.0335,-3.9131,-4.2095,-4.2631,-3.6785,0.0,0.0,0.0,0.0,0.0,0.0,0.0,0.0,0.0,0.0,0.0,0.0,0.0,0.0,0.0,0.0,0.0,0.0,0.0,0.0,0.0,0.0,0.0,0.0,0.0,0.0,0.0,0.0,0.0,0.0,0.0,0.0,0.0,0.0,0.0,0.0,0.0,0.0,0.0,0.0,0.0,0.0,0.0,0.0,0.0,0.0,0.0,0.0,0.0,0.0,0.0,0.0,0.0,-2.5999,-2.6565,-2.9331,-3.1121,-3.1685,-3.2272,-3.2239,-3.1558,-3.0317,-2.8573,0.0,0.0,0.0,0.0,0.0,0.0,0.0,0.0,0.0,0.0,0.0,0.0,0.0,0.0,0.0,0.0,0.0,0.0,0.0,0.0,0.0,0.0,0.0,0.0,0.0,0.0,0.0,0.0,-2.2981,-2.3129,-2.2516,0.0,0.0,0.0,0.0,0.0,0.0,0.0,0.0,0.0,0.0,-3.6828,-3.8041,-3.8913,0.0,0.0,-4.0375,-4.042,-3.9636,-4.0165,-3.9703,-3.6537,-3.5461,0.0,0.0,0.0,0.0,0.0,0.0,0.0,0.0,0.0,0.0,0.0,0.0,0.0,0.0,0.0,0.0,0.0,0.0,0.0,0.0,0.0,0.0,0.0,0.0,0.0,0.0,0.0,0.0,0.0,0.0,0.0,0.0,0.0,0.0,0.0,0.0,0.0,0.0,0.0,0.0,0.0,0.0,0.0,0.0,0.0,0.0,0.0,0.0,0.0,0.0,0.0,0.0,-2.54,-2.5731,-2.8637,-3.0299,-3.059,-3.1516,-3.1479,-3.0383,-2.9884,-2.8412,0.0,0.0,0.0,0.0,0.0,0.0,0.0,0.0,0.0,0.0,0.0,0.0,0.0,0.0,0.0,0.0,0.0,0.0,0.0,0.0,0.0,0.0,0.0,0.0,0.0,0.0,0.0,0.0,-2.2378,-2.2449,-2.2245,0.0,0.0,0.0,0.0,0.0,0.0,0.0,0.0,0.0,0.0,-3.6056,-3.7638,-3.8348,-3.8848,-3.9226,-3.9173,-3.8973,-3.8442,-3.799,-3.7178,-3.5503,0.0,0.0,0.0,0.0,0.0,0.0,0.0,0.0,0.0,0.0,0.0,0.0,0.0,0.0,0.0,0.0,0.0,0.0,0.0,0.0,0.0,0.0,0.0,0.0,0.0,0.0,0.0,-2.2763,0.0,0.0,-2.2769,0.0,0.0,0.0,0.0,0.0,0.0,0.0,0.0,0.0,0.0,0.0,0.0,0.0,0.0,0.0,0.0,0.0,0.0,0.0,0.0,0.0,0.0,-2.4382,-2.53,-2.704,-2.8586,-2.9862,-2.9945,-2.9985,-2.9884,-2.9404,-2.83,-2.6569,0.0,0.0,0.0,0.0,0.0,0.0,0.0,0.0,0.0,0.0,0.0,0.0,0.0,0.0,0.0,0.0,0.0,0.0,0.0,0.0,0.0,0.0,0.0,0.0,0.0,0.0,-2.2245,-2.1738,-2.164,0.0,0.0,0.0,0.0,0.0,0.0,0.0,0.0,0.0,-3.0513,-3.3303,-3.5463,-3.6216,-3.691,-3.7194,-3.6791,-3.6269,-3.5712,-3.5307,-3.6148,-3.603,0.0,0.0,0.0,0.0,0.0,0.0,0.0,0.0,0.0,0.0,0.0,0.0,0.0,0.0,0.0,0.0,0.0,0.0,0.0,0.0,0.0,0.0,0.0,0.0,0.0,0.0,0.0,-2.2858,-2.2509,0.0,0.0,0.0,0.0,0.0,0.0,0.0,0.0,0.0,0.0,0.0,-2.2441,-2.2657,0.0,0.0,0.0,0.0,0.0,0.0,0.0,0.0,0.0,0.0,0.0,0.0,-2.3773,-2.4209,-2.6777,-2.8281,-2.8653,-2.9493,-2.9662,-2.8987,-2.8965,-2.7825,-2.5487,0.0,0.0,0.0,0.0,0.0,0.0,0.0,0.0,0.0,0.0,0.0,0.0,0.0,0.0,0.0,0.0,0.0,0.0,0.0,0.0,0.0,0.0,0.0,0.0,0.0,-2.2469,0.0,0.0,0.0,0.0,0.0,0.0,0.0,0.0,0.0,0.0,-2.7489,-2.8789,-2.978,-3.1805,-3.3596,-3.4697,-3.539,-3.5915,0.0,0.0,0.0,0.0,0.0,0.0,0.0,0.0,0.0,0.0,0.0,0.0,0.0,0.0,-3.5802,-3.3529,-3.2499,-3.1964,-3.1896,0.0,0.0,0.0,0.0,0.0,0.0,0.0,0.0,0.0,0.0,0.0,0.0,0.0,0.0,-2.2905,-2.2724,-2.2557,0.0,0.0,0.0,0.0,0.0,0.0,0.0,0.0,-2.2312,-2.2418,-2.2457,-2.2837,-2.2787,0.0,-2.1653,-2.1357,0.0,0.0,0.0,0.0,0.0,0.0,0.0,0.0,-2.3425,-2.3481,-2.6372,-2.8001,-2.8234,-2.9225,-2.9432,-2.8787,-2.8585,-2.7475,-2.5319,-2.353,-2.2188,0.0,0.0,0.0,0.0,0.0,0.0,0.0,0.0,0.0,0.0,0.0,0.0,0.0,0.0,0.0,0.0,0.0,0.0,0.0,0.0,0.0,0.0,0.0,-2.1886,0.0,0.0,0.0,0.0,0.0,0.0,0.0,0.0,0.0,-2.6494,-2.7632,-2.8746,-2.9824,-3.1195,-3.2418,-3.3295,0.0,0.0,0.0,0.0,0.0,0.0,0.0,-3.3977,-3.3297,-3.363,-3.4076,-3.4413,-3.5809,-3.701,-3.7571,0.0,0.0,-3.5517,-3.4559,-3.4058,-3.4102,-3.3125,-3.2524,-3.3316,-3.3259,-3.3088,0.0,0.0,0.0,0.0,-2.4055,0.0,0.0,0.0,-2.2821,-2.302,0.0,-2.2891,0.0,0.0,0.0,0.0,-2.0856,-2.1335,0.0,0.0,-2.2462,-2.2715,-2.2073,-2.2454,-2.2803,-2.3149,-2.1955,-2.1868,-2.2787,-2.1168,0.0,0.0,0.0,0.0,0.0,0.0,-2.3332,-2.3197,-2.5788,-2.7603,-2.8463,-2.8933,-2.9191,-2.9155,-2.8131,-2.7088,-2.6105,-2.4965,-2.373,-2.2231,-2.114,0.0,0.0,0.0,0.0,0.0,0.0,0.0,0.0,0.0,0.0,0.0,0.0,0.0,0.0,0.0,0.0,0.0,0.0,0.0,0.0,-2.0986,0.0,0.0,0.0,0.0,0.0,0.0,0.0,0.0,0.0,-2.589,-2.7881,-2.8153,-2.8833,-3.0505,0.0,0.0,0.0,0.0,-3.1839,-3.1267,-3.1137,-3.0953,-3.045,-3.2099,-3.3173,-3.2436,0.0,0.0,-3.5581,-3.654,-3.6947,-3.5875,-3.6642,-3.7783,-3.9282,-3.7744,-3.676,-3.7415,-3.5988,-3.5202,-3.5845,-3.5347,-3.5076,-2.6246,0.0,0.0,0.0,0.0,-2.5412,-2.5315,-2.5207,-2.4595,-2.421,-2.3909,-2.3171,0.0,0.0,0.0,0.0,0.0,0.0,-2.2017,-2.2777,-2.3005,-2.3296,-2.3701,-2.4141,-2.4238,-2.4033,-2.3379,-2.3246,-2.348,-2.27,-2.1766,-2.0787,0.0,0.0,0.0,0.0,-2.228,-2.2981,-2.505,-2.6445,-2.7103,-2.7233,-2.7289,-2.73,-2.6287,-2.5797,-2.5806,-2.4204,-2.2914,-2.207,-2.081,0.0,0.0,0.0,0.0,0.0,0.0,0.0,0.0,0.0,0.0,0.0,0.0,0.0,0.0,0.0,0.0,0.0,0.0,0.0,-2.0713,-2.1139,-2.1416,0.0,0.0,0.0,0.0,0.0,0.0,0.0,0.0,0.0,-2.8001,-2.8048,-2.7979,0.0,0.0,-2.9629,-2.9288,-2.9942,-3.0737,-3.141,-3.2237,0.0,-3.2139,-3.2908,-3.3261,-3.2272,-3.361,-3.5022,-3.5642,-3.659,-3.7144,-3.6731,-3.665,-3.6943,-3.773,-3.7292,-3.6433,-3.5911,-3.5291,-3.4867,-3.4767,-3.4991,-3.4975,-2.6609,-2.6151,-2.5689,-2.5594,-2.5719,-2.5729,-2.5674,-2.55,-2.5013,-2.4585,-2.4205,-2.3556,-2.3001,-2.2582,-2.207,0.0,0.0,0.0,-2.2573,-2.3614,-2.3447,-2.3672,-2.416,-2.4268,-2.4258,-2.415,-2.374,-2.3613,-2.3789,-2.3184,-2.2256,-2.1135,0.0,-2.0117,-1.9654,-2.1148,-2.2041,-2.2317,-2.4327,-2.5448,-2.5466,-2.5413,-2.5492,-2.5673,-2.4905,-2.4634,-2.4928,-2.3832,-2.2836,-2.2114,-2.0893,-1.9857,0.0,0.0,0.0,0.0,0.0,0.0,0.0,0.0,0.0,0.0,0.0,-1.9632,-1.9642,0.0,0.0,0.0,-2.0199,-2.0504,-2.1035,-2.0988,0.0,0.0,0.0,0.0,0.0,0.0,0.0,-2.3976,-2.4434,-2.523,-2.6612,-2.7122,-2.7582,-2.8126,-2.8648,-2.8898,-2.865,0.0,-2.9957,-3.083,-3.173,-3.2172,-3.1677,-3.242,-3.2917,-3.263,-3.3489,-3.4413,-3.4983,-3.5632,-3.5951,-3.5881,-3.5629,-3.5557,-3.593,-3.5681,-3.5574,-3.5546,-3.5375,-3.5078,-3.4593,-3.4626,-3.4436,-2.656,-2.6168,-2.5723,-2.5354,-2.5077,-2.5077,-2.4947,-2.4609,-2.456,-2.4492,-2.4434,-2.3994,-2.334,-2.249,-2.1309,0.0,-2.2051,-2.2412,-2.3008,-2.3838,-2.3838,-2.3838,-2.3818,-2.3471,-2.3535,-2.3887,-2.3486,-2.3477,-2.3799,-2.3057,-2.2402,-2.1936,-2.2191,-2.1622,-2.0473,-2.1871,-2.2256,-2.1383,-2.3634,-2.4463,-2.379,-2.3654,-2.3864,-2.4312,-2.3814,-2.3575,-2.3706,-2.3618,-2.3107,-2.2089,-2.112,-2.0319,-1.9759,0.0,0.0,0.0,0.0,0.0,0.0,0.0,0.0,0.0,0.0,0.0,0.0,0.0,0.0,0.0,-1.9482,0.0,-2.1604,-2.0643,0.0,0.0,0.0,-2.0949,-2.0993,-2.2154,-2.2853,-2.2474,0.0,0.0,-2.434,-2.5591,-2.7313,-2.9382,-2.9346,-2.9184,-2.9318,-2.9419,-2.9571,-2.9956,-3.0344,-3.0507,-3.0337,-3.1223,-3.2199,-3.2802,-3.3463,-3.3571,-3.3506,-3.3677,-3.3715,-3.3574,-3.3631,-3.3655,-3.3666,-3.3519,-3.3946,-3.5544,-3.5662,-3.5273,-3.4754,-3.4289,-3.376,-2.657,-2.6138,-2.5711,-2.5586,-2.581,-2.5995,-2.6202,-2.6328,-2.5654,-2.5187,-2.4863,-2.4131,-2.3486,-2.2925,-2.2623,-2.2822,-2.333,-2.3096,-2.3447,-2.4248,-2.4268,-2.4268,-2.4297,-2.4797,-2.499,-2.4766,-2.4705,-2.4492,-2.4268,-2.4062,-2.3252,-2.2004,-2.2266,-2.1797,-2.0629,-2.1222,-2.162,-2.1776,-2.2656,-2.3019,-2.2812,-2.2814,-2.2843,-2.2958,-2.2478,-2.2405,-2.2769,-2.2167,-2.1542,-2.0919,-2.0086,-1.9264,-1.8492,-1.754,0.0,0.0,0.0,0.0,0.0,0.0,0.0,0.0,0.0,-1.8596,-1.7633,0.0,-1.8935,0.0,-1.9535,-2.0292,-2.0885,-2.0686,0.0,0.0,-2.1863,-2.204,-2.2437,-2.2787,-2.2967,-2.2856,-2.3114,-2.3442,-2.383,-2.4525,-2.5405,-2.6731,-2.8294,-2.9192,-2.8897,-2.9543,-3.0157,-3.034,-3.0648,-3.101,-3.0881,-3.0939,-3.0998,-3.1221,-3.1268,-3.0981,-3.0252,-3.0763,-3.1078,-3.0573,-3.0496,-3.0745,-3.1194,-3.1029,-3.105,-3.1792,-3.2778,-3.3584,-3.3366,-3.3167,-3.2891,-2.6035,-2.5834,-2.5464,-2.5343,-2.5332,-2.5639,-2.5873,-2.6047,-2.5544,-2.5102,-2.4697,-2.385,-2.3374,-2.3241,-2.3047,-2.3397,-2.4023,-2.3623,-2.3744,-2.4394,-2.4219,-2.4131,-2.415,-2.4639,-2.4746,-2.4558,-2.4687,-2.456,-2.415,-2.4131,-2.3555,-2.2471,-2.2676,-2.2334,-2.1465,-2.1259,-2.122,-2.1299,-2.155,-2.182,-2.2211,-2.2019,-2.1726,-2.1371,-2.1282,-2.1219,-2.1078,-2.0382,-2.0021,-1.9942,-1.9187,-1.8516,-1.8027,-1.7265,-1.6828,0.0,0.0,0.0,0.0,0.0,0.0,0.0,0.0,0.0,0.0,0.0,-1.8765,-1.9195,-1.951,-1.9999,-2.0758,-2.0529,-2.0643,-2.1422,-2.1495,-2.1599,-2.1886,-2.2107,-2.2107,-2.1945,-2.2258,-2.2504,-2.2607,-2.3329,-2.4051,-2.4668,-2.6281,-2.7657,-2.8366,-2.9138,-2.9618,-2.9605,-2.9791,-2.9957,-2.9941,-2.9691,-2.9503,-2.9478,-2.9416,-2.9162,-2.8661,-2.8987,-2.9247,-2.8867,-2.8811,-2.895,-2.931,-2.9149,-2.9074,-2.9474,-3.0146,-3.0867,-3.1263,-3.1215,-3.106,-2.5066,-2.5097,-2.4825,-2.4542,-2.4291,-2.448,-2.4686,-2.4892,-2.4892,-2.4656,-2.4221,-2.3437,-2.3224,-2.3422,-2.3121,-2.3487,-2.4329,-2.3988,-2.3942,-2.4215,-2.3877,-2.3628,-2.3541,-2.3638,-2.3657,-2.3628,-2.4023,-2.4059,-2.3699,-2.3695,-2.3486,-2.3033,-2.3023,-2.2799,-2.2422,-2.1648,-2.1094,-2.0693,-2.0742,-2.1114,-2.1768,-2.1318,-2.0723,-2.0049,-2.0302,-2.0126,-1.9404,-1.8945,-1.8831,-1.916,-1.8496,-1.8032,-1.8008,-1.7398,-1.6969,0.0,-1.6516,0.0,0.0,0.0,0.0,0.0,0.0,0.0,0.0,-1.8269,-1.8744,-1.9734,-1.9466,-1.9661,-2.0763,-2.0287,-2.0088,-2.0556,-2.0615,-2.0615,-2.0605,-2.0925,-2.1002,-2.0644,-2.1223,-2.1502,-2.1264,-2.2237,-2.2931,-2.3158,-2.4082,-2.5458,-2.7177,-2.7973,-2.8234,-2.8029,-2.8247,-2.8374,-2.8176,-2.8087,-2.8123,-2.8035,-2.8059,-2.7959,-2.7883,-2.7883,-2.7871,-2.7882,-2.7882,-2.7894,-2.7896,-2.7776,-2.7751,-2.8023,-2.8071,-2.8325,-2.9209,-2.9371,-2.9194,-2.346,-2.3505,-2.3005,-2.286,-2.2887,-2.2929,-2.3678,-2.4892,-2.4892,-2.4704,-2.4249,-2.3758,-2.3661,-2.3863,-2.3787,-2.4038,-2.4358,-2.3855,-2.3499,-2.3326,-2.3149,-2.2741,-2.2175,-2.2833,-2.2982,-2.2721,-2.3151,-2.3324,-2.3238,-2.3216,-2.3003,-2.2594,-2.2627,-2.2422,-2.2012,0.0,0.0,0.0,-2.1465,-2.1543,-2.1298,-2.0576,-2.0254,-2.0449,-1.9844,0.0,-1.9775,-1.9394,-1.9033,-1.8734,-1.8482,0.0,0.0,0.0,0.0,0.0,0.0,0.0,0.0,0.0,0.0,0.0,-1.8362,-1.8159,-1.7635,-1.8168,-1.8774,-1.9342,-1.9328,-1.9521,-2.0041,-1.9987,-2.0088,-2.0546,-2.0605,-2.0615,-2.0605,-2.0693,-2.0683,-2.0605,-2.0712,-2.0799,-2.0819,-2.1237,-2.1729,-2.2152,-2.2963,-2.3787,-2.4574,-2.5605,-2.6298,-2.6676,-2.7069,-2.7308,-2.7372,-2.7582,-2.7701,-2.7546,-2.7431,-2.7268,-2.6964,-2.6851,-2.6826,-2.6851,-2.6801,-2.6839,-2.6839,-2.6782,-2.6813,-2.6857,-2.6824,-2.7167,-2.8395,-2.8665,-2.8712,-2.1818,-2.1975,-2.1433,-2.1286,0.0,-2.1486,-2.2038,-2.2953,-2.347,-2.3511,-2.3093,-2.2895,-2.2844,-2.2942,-2.2751,-2.2755,-2.2878,-2.2396,-2.1959,-2.1662,-2.1605,-2.1361,-2.0961,-2.1914,-2.2187,-2.2052,-2.252,-2.2757,-2.2729,-2.2506,-2.2328,-2.2076,-2.2085,-2.1981,-2.1792,-2.1816,-2.183,-2.1824,-2.1875,-2.1777,-2.1543,-2.1123,-2.0684,-2.0254,-2.0077,0.0,0.0,0.0,0.0,0.0,0.0,0.0,0.0,-1.7799,0.0,-1.7554,-1.7373,-1.7442,-1.7719,-1.7738,-1.7963,-1.8488,-1.8743,-1.8689,-1.8369,-1.8711,-1.9131,-1.9551,-1.96,-1.9766,-2.0176,-2.0039,-2.0,-2.0215,-2.0254,-2.0244,-2.0264,-2.0478,-2.0605,-2.0615,-2.0615,-2.0615,-2.0595,-2.076,-2.0995,-2.1232,-2.1624,-2.2105,-2.2666,-2.4193,-2.5485,-2.5753,-2.5882,-2.6105,-2.636,-2.6733,-2.7018,-2.6907,-2.6914,-2.6801,-2.6549,-2.6487,-2.6487,-2.6487,-2.6487,-2.6487,-2.6487,-2.6487,-2.6487,-2.6487,-2.6487,-2.6692,-2.7417,-2.7637,-2.7868,-2.028,-2.0538,-1.9943,-1.9897,-2.0205,-2.0205,-2.0362,-2.0688,-2.1802,0.0,0.0,-2.1817,-2.1866,-2.1923,-2.1576,-2.1445,-2.1456,-2.1014,-2.0539,-2.0161,-2.0061,-2.0027,-1.9985,-2.0758,-2.1136,-2.1283,-2.1668,-2.1952,-2.1989,-2.1617,-2.1508,-2.1553,-2.1588,-2.1588,-2.1687,-2.1687,-2.1929,-2.2317,-2.1913,-2.1794,-2.1909,-2.1644,-2.1002,-2.009,-2.0273,-2.0049,-1.9387,-1.8733,-1.8675,-1.9149,-1.8459,-1.818,-1.8352,-1.8375,-1.8294,-1.8111,-1.8247,-1.8415,-1.8573,-1.8582,-1.8647,-1.875,-1.9175,-1.9373,-1.9296,-1.9362,-1.9547,-1.9962,-1.9885,-2.0021,-2.041,-2.0049,-1.9805,-1.9805,-1.9805,-1.9805,-1.9834,-2.0224,-2.0468,-2.0498,-2.0546,-2.0615,-2.0615,-2.0605,-2.0615,-2.0615,-2.0722,-2.0722,-2.1363,-2.3107,-2.4425,-2.4457,-2.4462,-2.4658,-2.5123,-2.5596,-2.5968,-2.6226,-2.6386,-2.6465,-2.6465,-2.6452,-2.6487,-2.6487,-2.6487,-2.6487,-2.6487,-2.6487,-2.6487,-2.6487,-2.6487,-2.6487,-2.6521,-2.6714,-2.7002,-1.8839,-1.9058,-1.878,-1.894,-1.9457,-1.9457,-1.948,-1.9628,-2.0885,-2.1414,-2.1415,-2.1643,-2.1837,-2.2055,-2.2013,-2.196,-2.1818,-2.1327,-2.0749,-2.0017,-1.968,-1.9331,-1.9012,-1.9144,-1.9445,-1.9858,-1.9887,-2.0124,-2.0542,-2.0456,-2.061,-2.1033,-2.1087,-2.1275,-2.1642,-2.1687,-2.1758,-2.1773,-2.1193,-2.1293,-2.2115,-2.0639,-2.0146,-2.0697,-1.9925,-1.9525,-1.9552,-1.9102,-1.8874,-1.8794,-1.8507,-1.8432,-1.8644,-1.8341,-1.8202,-1.8322,-1.8202,-1.8156,-1.8211,-1.8165,-1.8415,-1.8909,-1.9494,-1.9686,-1.9336,-1.9601,-1.9907,-2.0197,-1.987,-1.9753,-1.9943,-1.9629,-1.9365,-1.9375,-1.9375,-1.9375,-1.9385,-1.9756,-2.001,-2.001,-2.0342,-2.0566,-2.0537,-2.0546,-2.0546,-2.0586,-2.0586,-2.0722,-2.1138,-2.1796,-2.2241,-2.233,-2.2558,-2.299,-2.3644,-2.4251,-2.4862,-2.5382,-2.5898,-2.6201,-2.627,-2.6396,-2.6487,-2.6487,-2.6487,-2.6487,-2.6487,-2.6487,-2.6487,-2.6487,-2.6487,-2.6487,-2.6487,-2.6517,-2.6489,-1.7537,-1.7587,-1.7157,-1.7317,-1.7902,-1.8237,-1.8377,-1.8482,-1.9339,-2.0012,-2.0431,-2.055,-2.0696,-2.0783,-2.0834,-2.0601,-2.0211,-1.9782,-1.9326,-1.8813,-1.8431,-1.8177,-1.8048,-1.8272,-1.855,-1.8773,-1.8996,-1.9174,-1.9229,-1.9159,-1.9277,-1.9527,-1.972,-1.9909,-2.009,-2.0226,-2.0451,-2.066,-2.0935,-2.1206,-2.1376,-2.044,-2.0065,-2.0246,-1.9595,-1.939,-1.9694,-1.9253,-1.9115,-1.9354,-1.9029,-1.8991,-1.9163,-1.8923,-1.8799,-1.8876,-1.8799,-1.876,-1.8731,-1.877,-1.8882,-1.9125,-1.9427,-1.9513,-1.9318,-1.9798,-2.0147,-2.0284,-1.9985,-1.9799,-1.9855,-1.9326,-1.8936,-1.89,-1.8936,-1.89,-1.8984,-1.9316,-1.958,-1.959,-1.9746,-1.9901,-1.9873,-1.992,-2.0018,-2.0156,-2.0381,-2.0673,-2.0838,-2.1031,-2.1339,-2.1731,-2.2149,-2.2515,-2.2905,-2.3401,-2.4047,-2.4838,-2.5312,-2.5723,-2.6062,-2.6374,-2.6465,-2.6487,-2.6487,-2.6487,-2.6487,-2.6487,-2.6487,-2.6487,-2.6487,-2.6487,-2.6461,-2.6059,-2.5564,-1.6767,-1.6653,-1.6219,-1.6326,-1.6847,-1.7361,-1.7589,-1.7641,-1.8108,-1.8743,-1.9368,-1.9576,-1.9628,-1.9628,-1.9583,-1.9391,-1.8928,-1.8562,-1.824,-1.7911,-1.7582,-1.7352,-1.7333,-1.7753,-1.7994,-1.8087,-1.8357,-1.8362,-1.8155,-1.8026,-1.7979,-1.8098,-1.8443,-1.8624,-1.8548,-1.8843,-1.9122,-1.9421,-2.0183,-2.0625,-2.0677,-2.0281,-1.9948,-1.9806,-1.9452,-1.9425,-1.9655,-1.9214,-1.9168,-1.9559,-1.9317,-1.9231,-1.9359,-1.935,-1.9262,-1.9192,-1.9192,-1.9143,-1.9152,-1.9262,-1.9292,-1.9292,-1.9219,-1.9173,-1.9212,-1.9692,-2.0042,-2.008,-1.9841,-1.9705,-1.9656,-1.9158,-1.8682,-1.8673,-1.8718,-1.8802,-1.8792,-1.9092,-1.9277,-1.9277,-1.9277,-1.9307,-1.9277,-1.9277,-1.9434,-1.9756,-2.0146,-2.0439,-2.0458,-2.0517,-2.0895,-2.1227,-2.1714,-2.2014,-2.2333,-2.2649,-2.3206,-2.4095,-2.4492,-2.4898,-2.5465,-2.5921,-2.628,-2.628,-2.6418,-2.6487,-2.6487,-2.6487,-2.6487,-2.6487,-2.6487,-2.6449,-2.6235,-2.5385,-2.4707,-1.6941,-1.672,-1.6607,-1.6807,-1.7159,-1.7494,-1.7589,-1.7641,-1.7905,-1.822,-1.8632,-1.9063,-1.9331,-1.9331,-1.9324,-1.9294,-1.9177,-1.8891,-1.8555,-1.8218,-1.7918,-1.7611,-1.7301,-1.738,-1.7613,-1.7994,-1.7707,-1.7573,-1.7605,-1.7229,-1.7094,-1.7274,-1.7945,-1.8176,-1.8045,-1.8221,-1.8265,-1.8061,-1.812,-1.8949,-2.0478,-1.98,-1.9569,-1.9974,-1.9729,-1.9561,-1.9415,-1.911,-1.8826,-1.8718,-1.8779,-1.8732,-1.8812,-1.9112,-1.9112,-1.8772,-1.874,-1.8772,-1.878,-1.9121,-1.9292,-1.9274,-1.8971,-1.8788,-1.8779,-1.8991,-1.9265,-1.9519,-1.9293,-1.924,-1.9307,-1.9113,-1.8945,-1.8925,-1.9081,-1.9228,-1.9209,-1.9258,-1.9277,-1.9277,-1.9277,-1.9277,-1.9248,-1.9228,-1.9277,-1.9326,-1.9707,-1.998,-1.999,-2.0263,-2.0351,-2.0289,-2.0503,-2.0942,-2.1298,-2.17,-2.2172,-2.2633,-2.3364,-2.3902,-2.4337,-2.5016,-2.5664,-2.5669,-2.6067,-2.6296,-2.6361,-2.6487,-2.6411,-2.6248,-2.6248,-2.6285,-2.5724,-2.4921,-2.4305,-1.656,-1.6433,-1.6259,-1.646,-1.6921,-1.7382,-1.7694,-1.7859,-1.8115,-1.8429,-1.875,-1.9123,-1.9272,-1.9272,-1.9272,-1.9177,-1.8986,-1.884,-1.8511,-1.8035,-1.7874,-1.7592,-1.7308,-1.7286,-1.7419,-1.7613,-1.7372,-1.7147,-1.6877,-1.6477,-1.6316,-1.6452,-1.6941,-1.7066,-1.6965,-1.7257,-1.7309,-1.7165,-1.7321,-1.7774,-1.8439,-1.8446,-1.8425,-1.8488,-1.8392,-1.8363,-1.8456,-1.822,-1.8067,-1.8213,-1.8288,-1.829,-1.829,-1.8442,-1.8474,-1.8282,-1.8282,-1.8282,-1.8282,-1.8683,-1.8971,-1.8922,-1.8788,-1.8715,-1.8696,-1.857,-1.8562,-1.8691,-1.8984,-1.9221,-1.926,-1.9115,-1.9014,-1.9051,-1.9187,-1.9287,-1.9277,-1.9287,-1.9277,-1.9277,-1.9277,-1.918,-1.8965,-1.8906,-1.8906,-1.8955,-1.9277,-1.9551,-1.9561,-1.9697,-1.9754,-1.9648,-1.9902,-2.0184,-2.0453,-2.0804,-2.1316,-2.1918,-2.2424,-2.2813,-2.354,-2.4145,-2.4744,-2.488,-2.532,-2.5549,-2.544,-2.5498,-2.5485,-2.5573,-2.5536,-2.5473,-2.5561,-2.5008,-2.4569,-1.6339,-1.6246,-1.6032,-1.6239,-1.674,-1.7248,-1.762,-1.7905,-1.8265,-1.8534,-1.881,-1.9123,-1.9272,-1.9272,-1.9272,-1.9096,-1.8818,-1.8789,-1.8438,-1.7867,-1.7816,-1.7647,-1.7308,-1.7286,-1.7286,-1.7318,-1.723,-1.6865,-1.6272,-1.5935,-1.5739,-1.5833,-1.617,-1.6294,-1.618,-1.6483,-1.6578,-1.6423,-1.6571,-1.6624,-1.6624,-1.6919,-1.7235,-1.7347,-1.7376,-1.7499,-1.7788,-1.7531,-1.7499,-1.7786,-1.7816,-1.7838,-1.7838,-1.7919,-1.7959,-1.7838,-1.7838,-1.7838,-1.7838,-1.8241,-1.8571,-1.8665,-1.8593,-1.8545,-1.8493,-1.8246,-1.8045,-1.799,-1.8545,-1.8957,-1.9052,-1.9069,-1.9113,-1.9187,-1.944,-1.9639,-1.9695,-1.9597,-1.9473,-1.9463,-1.9375,-1.918,-1.8861,-1.8848,-1.8848,-1.8705,-1.9023,-1.9209,-1.917,-1.9209,-1.9323,-1.915,-1.9473,-1.9775,-1.9874,-2.037,-2.0894,-2.1242,-2.1642,-2.2033,-2.2716,-2.3135,-2.35,-2.3548,-2.4234,-2.4757,-2.4809,-2.4727,-2.5247,-2.5209,-2.5109,-2.5096,-2.5511,-2.5034,-2.4625,-1.6526,-1.6279,-1.6259,-1.644,-1.6734,-1.7112,-1.7393,-1.7747,-1.816,-1.8429,-1.8527,-1.9071,-1.9272,-1.9272,-1.9272,-1.9096,-1.8811,-1.8767,-1.8408,-1.7823,-1.7808,-1.764,-1.7301,-1.7286,-1.7286,-1.7264,-1.7084,-1.6683,-1.6009,-1.5657,-1.5411,-1.5518,-1.6089,-1.6265,-1.6059,-1.6272,-1.6257,-1.5971,-1.5757,-1.544,-1.5273,-1.5474,-1.6065,-1.6906,-1.7303,-1.7431,-1.7467,-1.7379,-1.7315,-1.7323,-1.7409,-1.7441,-1.7441,-1.7757,-1.7789,-1.7473,-1.7432,-1.7441,-1.7473,-1.7797,-1.8201,-1.8527,-1.8367,-1.8139,-1.8189,-1.8136,-1.7981,-1.7596,-1.8018,-1.8304,-1.8518,-1.8958,-1.9307,-1.9496,-2.012,-2.042,-2.0498,-2.0078,-1.9912,-1.9834,-1.957,-1.9316,-1.9248,-1.9258,-1.9043,-1.8812,-1.9023,-1.916,-1.888,-1.9062,-1.9053,-1.8906,-1.9082,-1.9453,-1.9834,-2.0078,-2.041,-2.065,-2.0815,-2.1118,-2.1288,-2.1549,-2.1858,-2.2475,-2.3628,-2.427,-2.4295,-2.4804,-2.5727,-2.5812,-2.5197,-2.5172,-2.5699,-2.4732,-2.4469,-1.6037,-1.6046,-1.665,-1.6794,-1.676,-1.7215,-1.7593,-1.7852,-1.8272,-1.8534,-1.8757,-1.9123,-1.9272,-1.9272,-1.9272,-1.8979,-1.8511,-1.8474,-1.8123,-1.7582,-1.7713,-1.764,-1.7308,-1.7286,-1.7286,-1.7264,-1.7208,-1.6938,-1.6573,-1.6191,-1.603,-1.6045,-1.6294,-1.6345,-1.6243,-1.6353,-1.6221,-1.5892,-1.5654,-1.5375,-1.5118,-1.4992,-1.519,-1.5553,-1.5957,-1.6311,-1.658,-1.6541,-1.6646,-1.6937,-1.6925,-1.6943,-1.6984,-1.7098,-1.7106,-1.6984,-1.6943,-1.6943,-1.6984,-1.7383,-1.7676,-1.7853,-1.8044,-1.8083,-1.8105,-1.8087,-1.8017,-1.7963,-1.8009,-1.8193,-1.8406,-1.8845,-1.9212,-1.9459,-2.0005,-2.044,-2.0547,-2.042,-2.0322,-2.0302,-1.9951,-1.96,-1.9394,-1.9287,-1.9219,-1.9072,-1.8965,-1.8945,-1.9014,-1.8994,-1.8802,-1.876,-1.8994,-1.9238,-1.9017,-1.9463,-1.9774,-1.9774,-1.9913,-2.021,-2.0451,-2.0795,-2.1162,-2.1704,-2.2905,-2.3698,-2.3695,-2.4132,-2.525,-2.5912,-2.531,-2.5385,-2.6021,-2.5146,-2.5059,-1.5891,-1.6179,-1.6703,-1.6918,-1.6901,-1.732,-1.7607,-1.7898,-1.8167,-1.8328,-1.8532,-1.8864,-1.9013,-1.9029,-1.9015,-1.8855,-1.8474,-1.8357,-1.7947,-1.733,-1.756,-1.7538,-1.7323,-1.7286,-1.7286,-1.7264,-1.7216,-1.7011,-1.6756,-1.6521,-1.6419,-1.636,-1.6507,-1.6565,-1.6565,-1.6573,-1.6418,-1.6111,-1.5813,-1.5433,-1.5071,-1.4768,-1.4578,-1.4594,-1.4817,-1.5276,-1.5824,-1.5955,-1.6162,-1.6525,-1.6607,-1.6648,-1.6689,-1.6689,-1.6689,-1.6689,-1.6689,-1.6689,-1.673,-1.6976,-1.7229,-1.7424,-1.7809,-1.8083,-1.8098,-1.8192,-1.8209,-1.8127,-1.8081,-1.8156,-1.8341,-1.8656,-1.9012,-1.9354,-1.9822,-2.0236,-2.0547,-2.0605,-2.0595,-2.0546,-2.0303,-2.0,-1.9766,-1.9727,-1.9648,-1.9521,-1.9209,-1.9143,-1.9199,-1.9062,-1.8734,-1.8656,-1.8857,-1.8818,-1.8607,-1.8769,-1.9268,-1.9372,-1.9441,-1.9612,-1.99,-2.0242,-2.0589,-2.1162,-2.1862,-2.2693,-2.3283,-2.3673,-2.4469,-2.5494,-2.5598,-2.5536,-2.5724,-2.5707,-2.5473,-1.6166,-1.658,-1.6413,-1.673,-1.7139,-1.7253,-1.7393,-1.7667,-1.7905,-1.7925,-1.7843,-1.8192,-1.849,-1.8475,-1.8482,-1.8564,-1.8614,-1.841,-1.7957,-1.7381,-1.7352,-1.7337,-1.7286,-1.7286,-1.7286,-1.7318,-1.7026,-1.674,-1.6558,-1.6529,-1.6514,-1.6521,-1.6778,-1.6903,-1.6903,-1.6857,-1.6759,-1.6423,-1.5977,-1.5487,-1.4961,-1.4676,-1.4405,-1.4191,-1.4186,-1.458,-1.5352,-1.5567,-1.5906,-1.6312,-1.6394,-1.6476,-1.6648,-1.6689,-1.6689,-1.6689,-1.6689,-1.6689,-1.6689,-1.6738,-1.6984,-1.7261,-1.774,-1.7963,-1.8105,-1.8434,-1.8519,-1.8301,-1.821,-1.8201,-1.8275,-1.8542,-1.8974,-1.9488,-1.9697,-2.0014,-2.044,-2.0595,-2.0586,-2.0517,-2.0391,-2.0527,-2.0556,-2.038,-2.0176,-1.9971,-1.9766,-1.9639,-1.9502,-1.9385,-1.9111,-1.8812,-1.888,-1.8945,-1.8486,-1.8115,-1.8633,-1.9053,-1.915,-1.9304,-1.9671,-1.9997,-2.0195,-2.0728,-2.1654,-2.2509,-2.3754,-2.4175,-2.4633,-2.5391,-2.5434,-2.5574,-2.5586,-2.5574,-2.541,-1.6246,-1.6446,-1.6804,-1.7025,-1.7219,-1.7414,-1.7561,-1.7635,-1.7859,-1.7845,-1.7719,-1.8185,-1.841,-1.8394,-1.8391,-1.8417,-1.8439,-1.8397,-1.8094,-1.7702,-1.7614,-1.7538,-1.7308,-1.7286,-1.7286,-1.7271,-1.7238,-1.7128,-1.7033,-1.7011,-1.7026,-1.7062,-1.7121,-1.7179,-1.7165,-1.7172,-1.696,-1.6507,-1.6225,-1.5749,-1.5192,-1.4717,-1.4476,-1.4382,-1.4202,-1.4334,-1.4685,-1.5075,-1.5492,-1.5899,-1.6121,-1.6286,-1.6476,-1.6648,-1.6689,-1.6689,-1.6689,-1.6689,-1.6689,-1.6689,-1.6771,-1.6976,-1.7351,-1.7706,-1.8046,-1.8448,-1.8749,-1.8848,-1.8935,-1.8935,-1.8955,-1.8885,-1.9087,-1.9364,-1.9649,-2.0033,-2.0459,-2.0322,-2.0,-1.9775,-1.9932,-2.0088,-2.0127,-2.0146,-2.0234,-2.0283,-1.9912,-1.9619,-2.0038,-1.9853,-1.9717,-1.9494,-1.9473,-1.9248,-1.8857,-1.8652,-1.8926,-1.9141,-1.916,-1.9307,-1.9634,-1.9903,-2.0081,-2.0565,-2.1486,-2.2457,-2.3743,-2.4435,-2.4767,-2.5246,-2.5499,-2.5539,-2.554,-2.548,-2.5407,-1.6339,-1.6473,-1.6834,-1.7172,-1.7347,-1.746,-1.7488,-1.7621,-1.7793,-1.7621,-1.7429,-1.7877,-1.8036,-1.8011,-1.8137,-1.8257,-1.834,-1.8373,-1.8167,-1.7848,-1.7804,-1.764,-1.7323,-1.7286,-1.7286,-1.7286,-1.7286,-1.7286,-1.7286,-1.7286,-1.7286,-1.7279,-1.7286,-1.7279,-1.7286,-1.7279,-1.703,-1.6608,-1.6394,-1.6017,-1.5422,-1.4988,-1.4743,-1.4529,-1.4342,-1.4238,-1.4299,-1.4657,-1.5075,-1.5567,-1.5906,-1.6203,-1.6394,-1.6517,-1.6607,-1.6689,-1.6689,-1.6689,-1.6689,-1.6689,-1.6689,-1.6771,-1.7147,-1.7595,-1.7959,-1.846,-1.8851,-1.9222,-1.9274,-1.9292,-1.9286,-1.9217,-1.9215,-1.9418,-1.9658,-2.0023,-2.042,-2.0332,-2.0107,-1.9999,-2.0049,-2.0117,-2.0156,-2.0166,-2.0282,-2.0449,-2.0155,-1.9891,-2.0419,-2.0322,-2.0156,-1.999,-1.9805,-1.9561,-1.9316,-1.9268,-1.9326,-1.9307,-1.9248,-1.9463,-1.9744,-2.0066,-2.0312,-2.092,-2.172,-2.2349,-2.3478,-2.3829,-2.4194,-2.4778,-2.5359,-2.5414,-2.5383,-2.5657,-2.5633,-1.646,-1.6693,-1.6734,-1.7061,-1.7462,-1.736,-1.742,-1.7562,-1.7641,-1.734,-1.7025,-1.7452,-1.7502,-1.7343,-1.7784,-1.8105,-1.8321,-1.8303,-1.8119,-1.7867,-1.7775,-1.76,-1.7315,-1.7286,-1.7286,-1.7286,-1.7286,-1.7286,-1.7286,-1.7286,-1.7286,-1.7286,-1.7286,-1.7286,-1.7286,-1.7286,-1.7037,-1.664,-1.656,-1.618,-1.547,-1.5364,-1.5137,-1.4636,-1.4529,-1.4376,-1.4273,-1.439,-1.4727,-1.5318,-1.5748,-1.6079,-1.627,-1.6345,-1.6525,-1.6648,-1.6689,-1.6689,-1.6689,-1.6689,-1.6689,-1.673,-1.7066,-1.7514,-1.7878,-1.829,-1.8732,-1.9152,-1.9262,-1.9292,-1.9292,-1.9304,-1.9423,-1.962,-1.9763,-2.0033,-2.0459,-2.0537,-2.0419,-2.04,-2.0507,-2.0556,-2.0488,-2.0478,-2.0566,-2.0576,-2.0517,-2.0527,-2.0537,-2.0488,-2.037,-2.0205,-2.0088,-1.998,-1.9766,-1.9756,-1.9814,-1.9814,-1.9717,-1.9824,-1.9893,-2.0157,-2.0416,-2.1065,-2.1607,-2.2301,-2.2922,-2.3301,-2.381,-2.4419,-2.4814,-2.5016,-2.5145,-2.5258,-2.5534,-1.664,-1.6727,-1.6991,-1.7172,-1.7333,-1.7447,-1.7502,-1.7582,-1.7589,-1.742,-1.7213,-1.7415,-1.7531,-1.7517,-1.761,-1.7841,-1.7981,-1.7894,-1.7752,-1.7619,-1.7539,-1.7457,-1.7337,-1.7286,-1.7286,-1.7286,-1.7286,-1.7286,-1.7286,-1.7286,-1.7286,-1.7286,-1.7286,-1.7286,-1.7286,-1.7286,-1.7052,-1.6683,-1.6588,-1.6318,-1.5792,-1.5498,-1.5331,-1.517,-1.4763,-1.4516,-1.4389,-1.4387,-1.4524,-1.4859,-1.5311,-1.5609,-1.5726,-1.6139,-1.6394,-1.6476,-1.6607,-1.6689,-1.6689,-1.6689,-1.6689,-1.6689,-1.6853,-1.7066,-1.7514,-1.7959,-1.8362,-1.8803,-1.9063,-1.9292,-1.9341,-1.9429,-1.9676,-2.002,-2.0129,-2.0159,-2.0216,-2.0361,-2.039,-1.9862,-2.0312,-2.0478,-2.0342,-2.043,-2.0625,-2.0625,-2.0615,-2.0615,-2.0615,-2.0605,-2.0488,-2.0517,-2.0449,-2.04,-2.0331,-2.0312,-2.0331,-2.04,-2.0332,-2.0312,-2.0254,-2.0203,-2.0407,-2.0738,-2.1082,-2.1683,-2.2357,-2.2896,-2.3501,-2.413,-2.4466,-2.4779,-2.4423,-2.439,-2.5,-1.6707,-1.6734,-1.7079,-1.7199,-1.7219,-1.7328,-1.7468,-1.7569,-1.7582,-1.7467,-1.7313,-1.7455,-1.7452,-1.7231,-1.7492,-1.7549,-1.7472,-1.7452,-1.7326,-1.7155,-1.7084,-1.713,-1.7268,-1.7286,-1.7286,-1.7286,-1.7286,-1.7286,-1.7286,-1.7286,-1.7286,-1.7286,-1.7286,-1.7239,-1.7153,-1.716,-1.6918,-1.6501,-1.6407,-1.6211,-1.5812,-1.5671,-1.5511,-1.5391,-1.503,-1.481,-1.4543,-1.4356,-1.4363,-1.4608,-1.4985,-1.5325,-1.5443,-1.594,-1.6327,-1.6394,-1.6607,-1.6689,-1.6689,-1.6689,-1.6689,-1.6689,-1.6689,-1.6943,-1.7351,-1.7757,-1.8201,-1.8652,-1.9082,-1.9262,-1.9301,-1.939,-1.9799,-2.0277,-2.0445,-2.0418,-2.0401,-2.0723,-2.0713,-2.0586,-2.0762,-2.0947,-2.0527,-2.0703,-2.0693,-2.0664,-2.0615,-2.0615,-2.0615,-2.0605,-2.0586,-2.0546,-2.0595,-2.0546,-2.0507,-2.0498,-2.0527,-2.0615,-2.0752,-2.0762,-2.0576,-2.0371,-2.0449,-2.0604,-2.0786,-2.1084,-2.1786,-2.2527,-2.3322,-2.388,-2.4256,-2.4454,-2.4252,-2.4059,-2.4611,-1.6754,-1.6774,-1.7125,-1.7226,-1.7213,-1.7239,-1.7427,-1.7555,-1.7589,-1.7501,-1.7367,-1.7527,-1.7405,-1.6794,-1.7504,-1.7378,-1.6854,-1.7187,-1.7018,-1.689,-1.6793,-1.6949,-1.7207,-1.7239,-1.7239,-1.7239,-1.7286,-1.7286,-1.7286,-1.7286,-1.7286,-1.7286,-1.7286,-1.72,-1.7066,-1.7026,-1.6697,-1.6319,-1.6272,-1.6123,-1.5879,-1.5738,-1.5678,-1.5504,-1.5284,-1.497,-1.4576,-1.4291,-1.4208,-1.4349,-1.4783,-1.5075,-1.5318,-1.5741,-1.6038,-1.6278,-1.6435,-1.6648,-1.6648,-1.6648,-1.6689,-1.6689,-1.6689,-1.6893,-1.7311,-1.7761,-1.8128,-1.8501,-1.9025,-1.9292,-1.943,-1.9433,-1.9845,-2.0448,-2.0633,-2.0855,-2.1146,-2.1286,-2.1504,-2.1768,-2.1816,-2.1728,-2.1366,-2.12,-2.1143,-2.083,-2.0684,-2.0527,-2.042,-2.0332,-2.0342,-2.041,-2.0507,-2.0644,-2.0635,-2.0644,-2.0683,-2.0752,-2.0977,-2.1035,-2.084,-2.0684,-2.0654,-2.0722,-2.0849,-2.1013,-2.1302,-2.2102,-2.3106,-2.3502,-2.3768,-2.4232,-2.4531,-2.4334,-2.4578,-1.7105,-1.7125,-1.742,-1.7407,-1.7259,-1.744,-1.7522,-1.7582,-1.7589,-1.7588,-1.7561,-1.7832,-1.7694,-1.7367,-1.7829,-1.7784,-1.7068,-1.7289,-1.7244,-1.6779,-1.6856,-1.6942,-1.7069,-1.7066,-1.7066,-1.7113,-1.7239,-1.7286,-1.7286,-1.7286,-1.7286,-1.7286,-1.7286,-1.72,-1.7026,-1.6979,-1.6744,-1.6319,-1.6224,-1.6076,-1.5879,-1.5825,-1.5792,-1.5678,-1.5317,-1.491,-1.4556,-1.4235,-1.413,-1.4201,-1.4405,-1.4608,-1.481,-1.5269,-1.5609,-1.5824,-1.6196,-1.6492,-1.6484,-1.6623,-1.6689,-1.6689,-1.6737,-1.6857,-1.7269,-1.7704,-1.7954,-1.8195,-1.8757,-1.9371,-1.9715,-1.9909,-2.0235,-2.0688,-2.0953,-2.121,-2.1593,-2.1955,-2.1941,-2.1717,-2.2012,-2.2109,-2.1375,-2.1631,-2.1484,-2.1133,-2.081,-2.0459,-2.0361,-2.0322,-2.043,-2.0664,-2.0723,-2.0898,-2.085,-2.0869,-2.0908,-2.1064,-2.1328,-2.1377,-2.1182,-2.1113,-2.1103,-2.1025,-2.0967,-2.1145,-2.1391,-2.2241,-2.3382,-2.3368,-2.3398,-2.387,-2.4269,-2.4281,-2.4585,-1.6951,-1.7213,-1.7367,-1.734,-1.7266,-1.7448,-1.7589,-1.7589,-1.7589,-1.7641,-1.7799,-1.7964,-1.7898,-1.7784,-1.7997,-1.7768,-1.7252,-1.7092,-1.696,-1.6725,-1.6772,-1.6783,-1.6826,-1.6925,-1.7026,-1.7019,-1.7192,-1.7239,-1.72,-1.7246,-1.7286,-1.7286,-1.7293,-1.7099,-1.6878,-1.6932,-1.6595,-1.617,-1.6123,-1.6076,-1.5832,-1.5825,-1.5825,-1.5765,-1.5411,-1.507,-1.4937,-1.4516,-1.4329,-1.4298,-1.4282,-1.4363,-1.4608,-1.5061,-1.5394,-1.5624,-1.624,-1.6477,-1.6505,-1.6749,-1.6929,-1.6713,-1.6881,-1.7072,-1.7405,-1.778,-1.8099,-1.8312,-1.8946,-1.9659,-2.0126,-2.0241,-2.0569,-2.1025,-2.1231,-2.1556,-2.1977,-2.226,-2.233,-2.2058,-2.2483,-2.2379,-2.2197,-2.21,-2.1894,-2.1582,-2.1465,-2.1152,-2.123,-2.1182,-2.1103,-2.1191,-2.1211,-2.123,-2.1122,-2.1112,-2.1201,-2.1455,-2.1826,-2.1777,-2.1611,-2.1611,-2.1641,-2.1475,-2.1299,-2.1544,-2.1915,-2.2777,-2.3287,-2.3297,-2.3402,-2.3701,-2.396,-2.4204,-2.4564,-1.6703,-1.7206,-1.7246,-1.7266,-1.73,-1.7534,-1.7589,-1.7589,-1.7589,-1.7694,-1.7905,-1.8016,-1.8019,-1.7967,-1.8113,-1.7782,-1.7288,-1.6887,-1.6741,-1.6723,-1.672,-1.6772,-1.6784,-1.6878,-1.7026,-1.7026,-1.72,-1.7207,-1.724,-1.7272,-1.7417,-1.7381,-1.7327,-1.7077,-1.6805,-1.6737,-1.6548,-1.6028,-1.6028,-1.6076,-1.5879,-1.5832,-1.5825,-1.5724,-1.5531,-1.5351,-1.5211,-1.4883,-1.4589,-1.4569,-1.4309,-1.4387,-1.4719,-1.5033,-1.5401,-1.559,-1.6312,-1.666,-1.6693,-1.6994,-1.7207,-1.6873,-1.7143,-1.7334,-1.7565,-1.7946,-1.8232,-1.8622,-1.9127,-1.9907,-2.0482,-2.0604,-2.0891,-2.1315,-2.1513,-2.1767,-2.2139,-2.2216,-2.2337,-2.2664,-2.2732,-2.2634,-2.2522,-2.2438,-2.2266,-2.206,-2.1943,-2.1846,-2.1885,-2.1797,-2.1572,-2.1494,-2.1465,-2.1533,-2.1484,-2.1824,-2.1814,-2.1836,-2.2246,-2.2158,-2.2031,-2.2041,-2.2012,-2.1797,-2.1719,-2.1955,-2.2222,-2.2784,-2.3145,-2.3215,-2.3392,-2.3662,-2.3915,-2.4136,-2.4483,-1.684,-1.7219,-1.7467,-1.7508,-1.7515,-1.7569,-1.7589,-1.7589,-1.7589,-1.7641,-1.7747,-1.8101,-1.8011,-1.7886,-1.8383,-1.8297,-1.7646,-1.7156,-1.6959,-1.6936,-1.6959,-1.6925,-1.6925,-1.6972,-1.7026,-1.7073,-1.7207,-1.7348,-1.7538,-1.7687,-1.7677,-1.7673,-1.7522,-1.7134,-1.672,-1.6447,-1.6407,-1.613,-1.6028,-1.5981,-1.5981,-1.5879,-1.5825,-1.5758,-1.5578,-1.5458,-1.5357,-1.5104,-1.4941,-1.4908,-1.4603,-1.4606,-1.4826,-1.4902,-1.5027,-1.5398,-1.6139,-1.6699,-1.6796,-1.7317,-1.7469,-1.7358,-1.7501,-1.7719,-1.7814,-1.8109,-1.8426,-1.8721,-1.9161,-1.9826,-2.0909,-2.0973,-2.1209,-2.1528,-2.1682,-2.171,-2.1872,-2.2022,-2.2265,-2.2652,-2.2784,-2.2896,-2.28,-2.2721,-2.2588,-2.2353,-2.2158,-2.2002,-2.1924,-2.1746,-2.1522,-2.1562,-2.1611,-2.1719,-2.1807,-2.2331,-2.2613,-2.2321,-2.251,-2.2519,-2.2432,-2.2441,-2.2344,-2.2197,-2.2148,-2.2266,-2.2572,-2.2922,-2.2965,-2.3024,-2.3259,-2.3557,-2.369,-2.3811,-2.4061,-1.6967,-1.7414,-1.742,-1.7501,-1.7569,-1.7589,-1.7589,-1.7589,-1.7589,-1.7687,-1.7852,-1.8042,-1.8133,-1.7993,-1.7989,-1.791,-1.7602,-1.7351,-1.7253,-1.7349,-1.7265,-1.7153,-1.716,-1.716,-1.7153,-1.72,-1.7254,-1.7327,-1.7439,-1.7687,-1.7775,-1.7768,-1.763,-1.74,-1.7058,-1.6774,-1.6434,-1.6272,-1.6076,-1.5974,-1.6021,-1.5832,-1.5825,-1.5778,-1.5664,-1.5631,-1.5565,-1.5337,-1.5197,-1.5182,-1.503,-1.4991,-1.5051,-1.5038,-1.4993,-1.5281,-1.6035,-1.6641,-1.685,-1.7349,-1.766,-1.7604,-1.7842,-1.8017,-1.8128,-1.8364,-1.8746,-1.9259,-1.9384,-2.005,-2.1286,-2.1366,-2.1495,-2.1623,-2.1687,-2.1687,-2.1731,-2.183,-2.2097,-2.2451,-2.2662,-2.2828,-2.3028,-2.2935,-2.2828,-2.2623,-2.236,-2.2194,-2.2048,-2.199,-2.1912,-2.1999,-2.2168,-2.2197,-2.2275,-2.2598,-2.2994,-2.2828,-2.2711,-2.2764,-2.2793,-2.2721,-2.2721,-2.2662,-2.2652,-2.2594,-2.2793,-2.3051,-2.2939,-2.2847,-2.3128,-2.3357,-2.3377,-2.346,-2.3737,-1.7014,-1.7534,-1.736,-1.742,-1.7562,-1.7589,-1.7589,-1.7589,-1.7589,-1.7647,-1.7823,-1.7907,-1.8001,-1.8015,-1.7747,-1.7442,-1.7385,-1.7327,-1.7439,-1.7487,-1.741,-1.7279,-1.7286,-1.7286,-1.7286,-1.7246,-1.741,-1.7377,-1.75,-1.7756,-1.7899,-1.7933,-1.7896,-1.7613,-1.7223,-1.6833,-1.6558,-1.6319,-1.6123,-1.5981,-1.5879,-1.5825,-1.5825,-1.5825,-1.5825,-1.5812,-1.5765,-1.5651,-1.5537,-1.5497,-1.5452,-1.5397,-1.5387,-1.533,-1.5275,-1.5411,-1.6176,-1.6574,-1.6919,-1.7564,-1.8041,-1.7958,-1.8208,-1.8327,-1.8372,-1.8643,-1.9133,-1.9926,-2.011,-2.0298,-2.1256,-2.1624,-2.1678,-2.1687,-2.1687,-2.1687,-2.1687,-2.1785,-2.1874,-2.2185,-2.2485,-2.275,-2.2906,-2.3071,-2.2955,-2.2945,-2.2701,-2.273,-2.2623,-2.2721,-2.2701,-2.274,-2.2789,-2.276,-2.274,-2.2695,-2.2964,-2.3003,-2.2935,-2.2945,-2.2994,-2.3023,-2.2994,-2.2925,-2.2955,-2.2925,-2.3062,-2.3101,-2.3023,-2.2994,-2.3062,-2.3135,-2.3222,-2.3285,-2.3466,-1.6894,-1.7273,-1.7442,-1.7555,-1.7628,-1.7562,-1.7575,-1.7569,-1.7542,-1.7481,-1.7356,-1.751,-1.7456,-1.7369,-1.7422,-1.733,-1.7345,-1.729,-1.7344,-1.7432,-1.7337,-1.7286,-1.7286,-1.7286,-1.7286,-1.7308,-1.7582,-1.7918,-1.8016,-1.8174,-1.8237,-1.8254,-1.8074,-1.766,-1.7093,-1.6808,-1.6333,-1.6177,-1.5981,-1.5879,-1.5825,-1.5825,-1.5825,-1.5825,-1.5825,-1.5825,-1.5825,-1.5846,-1.588,-1.5759,-1.573,-1.5739,-1.5716,-1.5694,-1.5777,-1.5978,-1.6397,-1.6858,-1.7154,-1.7872,-1.8454,-1.8319,-1.8541,-1.8549,-1.8523,-1.8644,-1.9122,-1.9613,-1.9985,-2.0483,-2.1078,-2.1445,-2.1642,-2.1687,-2.1687,-2.1687,-2.1687,-2.1687,-2.183,-2.2008,-2.2318,-2.253,-2.275,-2.2925,-2.3091,-2.3091,-2.3101,-2.3101,-2.3101,-2.3101,-2.3101,-2.3042,-2.3023,-2.2994,-2.2974,-2.2935,-2.2964,-2.3091,-2.3101,-2.3101,-2.3101,-2.3101,-2.3091,-2.3052,-2.3101,-2.3101,-2.3101,-2.3101,-2.3101,-2.3101,-2.3101,-2.3101,-2.3101,-2.3164,-2.3291,-1.682,-1.744,-1.7407,-1.7428,-1.7535,-1.7235,-1.7181,-1.7281,-1.7154,-1.7021,-1.6965,-1.7002,-1.6991,-1.6923,-1.7092,-1.7221,-1.7304,-1.7185,-1.7316,-1.7447,-1.7374,-1.7286,-1.7286,-1.7286,-1.7286,-1.7323,-1.7461,-1.7808,-1.816,-1.8496,-1.8535,-1.8419,-1.8426,-1.8103,-1.733,-1.7051,-1.6841,-1.6592,-1.6265,-1.6021,-1.5974,-1.5879,-1.5825,-1.5825,-1.5825,-1.5812,-1.5812,-1.5879,-1.5927,-1.5859,-1.592,-1.604,-1.6004,-1.5989,-1.6021,-1.6104,-1.6728,-1.7131,-1.74,-1.7984,-1.8328,-1.8591,-1.8686,-1.8694,-1.8589,-1.8619,-1.895,-1.9559,-1.9851,-2.0332,-2.0899,-2.1445,-2.1597,-2.1687,-2.1687,-2.1687,-2.1687,-2.1687,-2.1776,-2.1919,-2.2097,-2.2318,-2.253,-2.2794,-2.3003,-2.3057,-2.3101,-2.3101,-2.3101,-2.3101,-2.3101,-2.3091,-2.3081,-2.3071,-2.3062,-2.3042,-2.3023,-2.3101,-2.3101,-2.3101,-2.3101,-2.3101,-2.3179,-2.3149,-2.312,-2.311,-2.311,-2.3101,-2.311,-2.3101,-2.3101,-2.3159,-2.3218,-2.3169,-2.331,-1.6767,-1.7328,-1.7179,-1.7219,-1.7321,-1.6881,-1.6834,-1.6994,-1.682,-1.668,-1.6613,-1.6587,-1.6594,-1.6648,-1.6808,-1.6987,-1.7184,-1.7032,-1.7224,-1.7396,-1.7385,-1.7261,-1.7239,-1.7239,-1.7286,-1.7261,-1.7585,-1.7855,-1.8284,-1.8672,-1.8826,-1.8518,-1.8547,-1.8332,-1.7939,-1.7436,-1.7078,-1.6765,-1.6366,-1.6177,-1.6123,-1.5927,-1.5825,-1.5805,-1.5765,-1.5718,-1.5718,-1.59,-1.594,-1.5745,-1.6116,-1.6264,-1.6183,-1.6225,-1.6345,-1.6515,-1.7066,-1.7477,-1.775,-1.8116,-1.8361,-1.8632,-1.8781,-1.8765,-1.8742,-1.8565,-1.8584,-1.9309,-1.9816,-2.0248,-2.0738,-2.132,-2.1642,-2.1687,-2.1687,-2.1687,-2.1687,-2.1687,-2.1687,-2.182,-2.1963,-2.2097,-2.2362,-2.2662,-2.2828,-2.2969,-2.3057,-2.3101,-2.3101,-2.3101,-2.3101,-2.3101,-2.3101,-2.3101,-2.3101,-2.3101,-2.3101,-2.312,-2.312,-2.3208,-2.3276,-2.3354,-2.3442,-2.3364,-2.3296,-2.3305,-2.3457,-2.3301,-2.313,-2.3237,-2.3335,-2.3344,-2.3354,-2.3325,-2.3452,-1.6707,-1.6767,-1.674,-1.6754,-1.6794,-1.6727,-1.67,-1.6727,-1.6693,-1.6513,-1.6319,-1.6348,-1.6331,-1.6375,-1.6594,-1.6725,-1.6706,-1.6892,-1.7015,-1.7109,-1.7207,-1.72,-1.7153,-1.72,-1.7268,-1.7243,-1.7669,-1.8086,-1.8423,-1.8855,-1.8963,-1.8885,-1.874,-1.8325,-1.7927,-1.7548,-1.712,-1.6795,-1.6407,-1.6224,-1.6123,-1.5974,-1.5825,-1.5724,-1.5591,-1.5431,-1.5484,-1.5929,-1.5968,-1.5604,-1.608,-1.6228,-1.6093,-1.6327,-1.6479,-1.6772,-1.7262,-1.768,-1.7972,-1.8341,-1.868,-1.8773,-1.8781,-1.8781,-1.8773,-1.8773,-1.8858,-1.8996,-1.9583,-2.0116,-2.0583,-2.106,-2.1508,-2.1687,-2.1687,-2.1687,-2.1687,-2.1687,-2.1731,-2.1731,-2.183,-2.1963,-2.2097,-2.2353,-2.2608,-2.275,-2.2969,-2.3013,-2.3101,-2.3101,-2.3101,-2.3101,-2.3101,-2.3101,-2.3101,-2.3101,-2.3101,-2.3159,-2.3198,-2.3437,-2.3623,-2.3701,-2.3818,-2.3887,-2.3877,-2.3809,-2.3721,-2.3643,-2.3584,-2.3594,-2.3633,-2.3721,-2.3857,-2.3945,-2.4043,-1.6166,-1.6117,-1.6172,-1.638,-1.668,-1.6319,-1.6266,-1.6386,-1.6246,-1.6119,-1.6019,-1.6172,-1.6358,-1.6511,-1.6587,-1.6767,-1.6847,-1.6942,-1.6907,-1.6918,-1.7052,-1.7153,-1.7113,-1.7189,-1.7341,-1.7483,-1.7877,-1.8284,-1.8642,-1.8921,-1.9096,-1.905,-1.8952,-1.8654,-1.8252,-1.7754,-1.7341,-1.6885,-1.6595,-1.6407,-1.6177,-1.5974,-1.5825,-1.5805,-1.592,-1.5859,-1.5967,-1.628,-1.6077,-1.5901,-1.6009,-1.5942,-1.5894,-1.6195,-1.6497,-1.6772,-1.7299,-1.7807,-1.8094,-1.8419,-1.8658,-1.8781,-1.8781,-1.8781,-1.8781,-1.8781,-1.8781,-1.905,-1.9417,-1.9965,-2.0382,-2.0871,-2.1311,-2.1553,-2.1687,-2.1642,-2.1687,-2.1687,-2.1687,-2.1731,-2.1731,-2.183,-2.1909,-2.2087,-2.2309,-2.253,-2.275,-2.2969,-2.3057,-2.312,-2.314,-2.3198,-2.3208,-2.3257,-2.3266,-2.3198,-2.313,-2.3237,-2.3364,-2.3672,-2.3955,-2.4102,-2.4219,-2.4316,-2.4365,-2.4248,-2.4141,-2.4033,-2.3975,-2.3945,-2.4014,-2.4121,-2.4287,-2.4434,-2.4521,-1.5825,-1.5825,-1.5825,-1.6011,-1.6366,-1.5957,-1.5945,-1.6079,-1.5939,-1.5825,-1.5845,-1.6052,-1.6242,-1.6408,-1.6551,-1.6587,-1.6738,-1.6866,-1.6774,-1.6859,-1.6965,-1.7059,-1.7019,-1.7088,-1.7294,-1.7588,-1.7906,-1.8269,-1.8562,-1.8811,-1.9067,-1.9235,-1.9264,-1.897,-1.8606,-1.816,-1.7681,-1.7188,-1.6938,-1.6644,-1.6353,-1.6076,-1.5879,-1.5798,-1.5866,-1.5933,-1.5966,-1.6125,-1.6077,-1.5915,-1.5862,-1.5775,-1.5812,-1.5943,-1.6292,-1.6714,-1.724,-1.7854,-1.8048,-1.8373,-1.8612,-1.8781,-1.8781,-1.8781,-1.8781,-1.8781,-1.8781,-1.8827,-1.9279,-1.9737,-2.0147,-2.051,-2.0997,-2.123,-2.1365,-2.141,-2.1642,-2.1687,-2.1687,-2.1687,-2.1741,-2.175,-2.1895,-2.2048,-2.238,-2.2555,-2.2706,-2.2925,-2.3057,-2.314,-2.3218,-2.3296,-2.3428,-2.3477,-2.3535,-2.3588,-2.3695,-2.3754,-2.3881,-2.4082,-2.4307,-2.4473,-2.4727,-2.4941,-2.4912,-2.4697,-2.458,-2.4521,-2.4404,-2.4323,-2.4482,-2.4709,-2.4465,-2.4639,-2.4775,-1.5825,-1.5825,-1.5825,-1.5845,-1.5905,-1.5845,-1.5845,-1.5885,-1.5845,-1.5845,-1.5865,-1.5851,-1.5925,-1.604,-1.633,-1.6415,-1.645,-1.6759,-1.68,-1.6637,-1.6878,-1.6831,-1.6824,-1.6932,-1.7232,-1.7246,-1.7708,-1.8189,-1.8408,-1.8847,-1.9147,-1.9228,-1.9176,-1.908,-1.8857,-1.8533,-1.803,-1.7436,-1.7342,-1.701,-1.6557,-1.6265,-1.6028,-1.5839,-1.5806,-1.5911,-1.5964,-1.6151,-1.6095,-1.5874,-1.5971,-1.5885,-1.5758,-1.6139,-1.6355,-1.6397,-1.7429,-1.7861,-1.7837,-1.8427,-1.8838,-1.897,-1.9026,-1.8931,-1.8867,-1.8843,-1.8781,-1.8827,-1.9188,-1.9509,-1.9783,-2.0056,-2.0501,-2.0862,-2.0952,-2.1113,-2.1365,-2.1562,-2.1517,-2.1753,-2.1779,-2.1777,-2.1924,-2.2115,-2.2468,-2.2662,-2.2738,-2.293,-2.3159,-2.3364,-2.353,-2.3608,-2.3769,-2.3848,-2.3965,-2.4189,-2.4316,-2.4309,-2.4414,-2.4521,-2.4717,-2.4932,-2.5195,-2.544,-2.5333,-2.5098,-2.5059,-2.5039,-2.4941,-2.4902,-2.5244,-2.5352,-2.5021,-2.4845,-2.5068,-1.5825,-1.5825,-1.5825,-1.5825,-1.5825,-1.5825,-1.5825,-1.5825,-1.5838,-1.5932,-1.6046,-1.5932,-1.6086,-1.6342,-1.6432,-1.6427,-1.6401,-1.6732,-1.678,-1.6191,-1.6657,-1.6777,-1.6784,-1.6968,-1.7269,-1.7512,-1.7914,-1.8262,-1.8657,-1.8877,-1.9074,-1.9184,-1.8978,-1.8767,-1.8782,-1.8622,-1.823,-1.752,-1.7311,-1.7055,-1.6448,-1.6265,-1.6123,-1.5872,-1.6041,-1.6133,-1.6133,-1.6313,-1.6251,-1.5894,-1.5992,-1.5824,-1.5643,-1.5987,-1.6283,-1.6557,-1.745,-1.792,-1.8454,-1.9154,-1.9511,-1.9463,-1.9304,-1.9201,-1.9177,-1.8939,-1.8821,-1.8827,-1.9004,-1.9279,-1.96,-1.9691,-2.0048,-2.0419,-2.0607,-2.0717,-2.0935,-2.1149,-2.1275,-2.1805,-2.2014,-2.2254,-2.2437,-2.2557,-2.2806,-2.3158,-2.3294,-2.3444,-2.3618,-2.3923,-2.4141,-2.415,-2.4219,-2.4277,-2.4394,-2.4609,-2.4658,-2.4619,-2.4727,-2.4873,-2.5088,-2.5303,-2.5459,-2.5586,-2.5576,-2.5508,-2.543,-2.5391,-2.5488,-2.5547,-2.5645,-2.5684,-2.5411,-2.5313,-2.544,-1.5631,-1.5665,-1.5571,-1.5591,-1.5638,-1.5738,-1.5825,-1.5825,-1.5886,-1.6041,-1.6039,-1.5905,-1.5951,-1.6342,-1.6581,-1.6531,-1.6373,-1.6793,-1.6677,-1.6103,-1.6586,-1.6716,-1.6818,-1.7013,-1.7292,-1.7587,-1.7804,-1.8072,-1.8357,-1.8547,-1.8782,-1.895,-1.8848,-1.8898,-1.8825,-1.8585,-1.8151,-1.7662,-1.7505,-1.7239,-1.6788,-1.6548,-1.6501,-1.6447,-1.6567,-1.6709,-1.6636,-1.6615,-1.6605,-1.6118,-1.5843,-1.5735,-1.5654,-1.5964,-1.6341,-1.6789,-1.7512,-1.8218,-1.9168,-1.9747,-2.0035,-2.021,-1.9812,-1.9558,-1.9439,-1.9161,-1.897,-1.8845,-1.8813,-1.8974,-1.9304,-1.9387,-1.9604,-1.9978,-2.0285,-2.0399,-2.1107,-2.1347,-2.164,-2.2116,-2.2474,-2.2735,-2.3004,-2.3087,-2.3266,-2.3558,-2.388,-2.4003,-2.4057,-2.4346,-2.459,-2.4639,-2.4697,-2.4775,-2.4873,-2.4982,-2.4972,-2.4912,-2.5039,-2.5215,-2.5352,-2.5489,-2.5606,-2.5684,-2.5615,-2.5586,-2.5635,-2.5654,-2.5625,-2.5625,-2.5664,-2.5684,-2.5684,-2.5684,-2.5684,-1.5384,-1.5337,-1.5122,-1.5144,-1.5404,-1.5638,-1.5765,-1.5818,-1.6076,-1.6042,-1.5865,-1.5872,-1.5925,-1.6012,-1.6426,-1.6444,-1.6293,-1.6764,-1.6524,-1.6368,-1.6505,-1.656,-1.6739,-1.6924,-1.7184,-1.744,-1.7642,-1.7772,-1.7882,-1.8297,-1.8597,-1.8838,-1.8944,-1.8987,-1.8827,-1.8449,-1.8086,-1.7915,-1.7808,-1.7504,-1.7138,-1.716,-1.7066,-1.7012,-1.7106,-1.7106,-1.7019,-1.6864,-1.6676,-1.6358,-1.6075,-1.5988,-1.6136,-1.6581,-1.6683,-1.7084,-1.7951,-1.8976,-1.9643,-2.013,-2.0488,-2.0615,-2.0273,-1.9828,-1.9558,-1.9463,-1.9296,-1.9105,-1.9026,-1.8947,-1.8937,-1.9116,-1.9241,-1.9603,-1.9961,-2.0626,-2.1531,-2.1963,-2.2218,-2.2607,-2.2926,-2.3197,-2.3425,-2.3593,-2.3602,-2.3858,-2.4177,-2.4268,-2.4383,-2.4627,-2.4855,-2.5088,-2.5156,-2.5283,-2.5371,-2.5343,-2.5352,-2.5235,-2.5352,-2.5566,-2.5625,-2.5635,-2.5664,-2.5684,-2.5684,-2.5684,-2.5684,-2.5684,-2.5674,-2.5684,-2.5684,-2.5684,-2.5684,-2.5684,-2.5684,-1.5135,-1.5122,-1.5042,-1.5017,-1.5142,-1.5345,-1.557,-1.5846,-1.6082,-1.617,-1.6132,-1.6116,-1.6075,-1.6166,-1.6319,-1.6187,-1.6202,-1.6229,-1.6189,-1.6163,-1.6279,-1.6457,-1.6654,-1.6873,-1.7115,-1.7305,-1.7428,-1.7658,-1.7893,-1.8284,-1.8701,-1.9018,-1.8916,-1.8939,-1.8792,-1.8393,-1.8288,-1.8251,-1.8162,-1.7848,-1.7623,-1.7581,-1.7488,-1.7434,-1.7527,-1.7488,-1.7293,-1.7347,-1.716,-1.6958,-1.6911,-1.6864,-1.6911,-1.7145,-1.7239,-1.7781,-1.8743,-1.9692,-1.9948,-2.0416,-2.0798,-2.0869,-2.067,-2.0488,-2.0162,-1.9868,-1.9726,-1.9455,-1.9288,-1.9225,-1.9153,-1.92,-1.9335,-1.9645,-1.9997,-2.0537,-2.1423,-2.1987,-2.232,-2.3075,-2.3399,-2.3629,-2.3859,-2.3904,-2.3972,-2.4218,-2.4375,-2.451,-2.4688,-2.4871,-2.5081,-2.5361,-2.5449,-2.5518,-2.5576,-2.5557,-2.5606,-2.5645,-2.5684,-2.5684,-2.5674,-2.5664,-2.5674,-2.5684,-2.5684,-2.5684,-2.5684,-2.5684,-2.5684,-2.5684,-2.5684,-2.5684,-2.5684,-2.5684,-2.5684,-1.479,-1.4776,-1.4707,-1.472,-1.4841,-1.5082,-1.5413,-1.5805,-1.6087,-1.6203,-1.6191,-1.6198,-1.6232,-1.623,-1.6296,-1.6132,-1.5892,-1.6174,-1.6167,-1.5973,-1.6075,-1.632,-1.6546,-1.6845,-1.7146,-1.7265,-1.7468,-1.7693,-1.7978,-1.8368,-1.8757,-1.8832,-1.8739,-1.8864,-1.8785,-1.8595,-1.8465,-1.8457,-1.8346,-1.8082,-1.7991,-1.7962,-1.7916,-1.7861,-1.8009,-1.79,-1.766,-1.7815,-1.7667,-1.7372,-1.7286,-1.7286,-1.7372,-1.7466,-1.7974,-1.8543,-1.9107,-1.9748,-2.0083,-2.0416,-2.0726,-2.0885,-2.0917,-2.079,-2.0567,-2.0281,-2.0084,-1.9845,-1.971,-1.9598,-1.9519,-1.9479,-1.959,-1.9757,-2.0095,-2.0435,-2.1089,-2.1739,-2.2554,-2.3462,-2.384,-2.4038,-2.4183,-2.4211,-2.4202,-2.4251,-2.439,-2.4581,-2.4809,-2.5053,-2.5305,-2.5547,-2.5596,-2.5645,-2.5684,-2.5684,-2.5684,-2.5684,-2.5684,-2.5684,-2.5684,-2.5684,-2.5684,-2.5684,-2.5684,-2.5684,-2.5684,-2.5684,-2.5684,-2.5684,-2.5684,-2.5684,-2.5684,-2.5684,-2.5684,-1.4489,-1.4462,-1.4202,-1.4289,-1.4543,-1.4814,-1.523,-1.5771,-1.6007,-1.6141,-1.616,-1.6242,-1.6285,-1.6327,-1.6217,-1.6094,-1.5986,-1.6107,-1.6059,-1.5832,-1.6047,-1.6244,-1.6498,-1.6787,-1.7175,-1.7421,-1.7647,-1.7899,-1.8139,-1.8439,-1.8607,-1.86,-1.8752,-1.8894,-1.8839,-1.8645,-1.8613,-1.8667,-1.8505,-1.8272,-1.8257,-1.8381,-1.8527,-1.8527,-1.8566,-1.855,-1.8272,-1.8087,-1.7893,-1.7613,-1.7473,-1.752,-1.7707,-1.7893,-1.859,-1.8942,-1.9296,-1.9701,-2.0067,-2.0377,-2.0631,-2.0805,-2.0917,-2.0893,-2.0726,-2.0599,-2.0361,-2.0194,-2.0059,-1.994,-1.9852,-1.9781,-1.9797,-1.9995,-2.0269,-2.09,-2.1753,-2.2402,-2.3143,-2.3845,-2.4053,-2.4211,-2.4211,-2.4211,-2.4211,-2.4251,-2.4341,-2.4538,-2.4833,-2.5137,-2.5391,-2.5635,-2.5684,-2.5684,-2.5684,-2.5684,-2.5684,-2.5684,-2.5684,-2.5684,-2.5684,-2.5684,-2.5684,-2.5684,-2.5684,-2.5684,-2.5684,-2.5684,-2.5684,-2.5684,-2.5684,-2.5684,-2.5684,-2.5684,-2.5684,-1.4195,-1.4182,-1.4115,-1.4255,-1.4469,-1.4514,-1.4909,-1.5424,-1.5694,-1.6095,-1.6427,-1.6499,-1.6501,-1.6434,-1.6109,-1.5994,-1.6143,-1.6068,-1.5892,-1.5927,-1.6027,-1.6354,-1.651,-1.6857,-1.7243,-1.7584,-1.7892,-1.8141,-1.8365,-1.8528,-1.8598,-1.8738,-1.8839,-1.8816,-1.8816,-1.8705,-1.8743,-1.8781,-1.8689,-1.855,-1.8596,-1.8643,-1.8743,-1.8743,-1.8735,-1.8735,-1.8596,-1.8596,-1.8542,-1.845,-1.845,-1.845,-1.8458,-1.8596,-1.8728,-1.8932,-1.9256,-1.963,-1.9995,-2.0305,-2.0567,-2.0798,-2.0925,-2.0925,-2.0885,-2.0821,-2.0726,-2.0583,-2.0456,-2.0337,-2.0226,-2.0098,-2.0035,-2.0241,-2.0482,-2.1411,-2.235,-2.307,-2.3746,-2.4003,-2.4161,-2.4211,-2.4211,-2.4211,-2.4211,-2.4202,-2.4202,-2.439,-2.4686,-2.499,-2.5284,-2.5489,-2.5684,-2.5684,-2.5684,-2.5684,-2.5684,-2.5684,-2.5684,-2.5684,-2.5684,-2.5684,-2.5684,-2.5684,-2.5684,-2.5684,-2.5684,-2.5684,-2.5684,-2.5684,-2.5684,-2.5684,-2.5684,-2.5684,-2.5684,-1.4243,-1.4237,-1.4328,-1.4416,-1.4503,-1.4653,-1.5007,-1.5459,-1.5767,-1.6232,-1.6687,-1.6636,-1.6541,-1.6454,-1.6076,-1.6163,-1.6353,-1.6211,-1.6407,-1.6426,-1.6275,-1.6544,-1.6811,-1.7008,-1.7421,-1.7801,-1.8218,-1.8512,-1.8604,-1.8612,-1.8713,-1.8781,-1.8781,-1.8781,-1.8781,-1.8781,-1.8781,-1.8781,-1.8781,-1.8781,-1.8781,-1.8781,-1.8781,-1.8781,-1.8781,-1.8781,-1.8781,-1.8781,-1.8781,-1.8781,-1.8735,-1.8735,-1.8735,-1.8735,-1.8876,-1.909,-1.932,-1.959,-1.9979,-2.0289,-2.0559,-2.0798,-2.0925,-2.0925,-2.0925,-2.0869,-2.0869,-2.0742,-2.0734,-2.0631,-2.0615,-2.0519,-2.0512,-2.0647,-2.0796,-2.1314,-2.2257,-2.302,-2.3646,-2.4102,-2.4211,-2.4211,-2.4211,-2.4211,-2.4211,-2.4211,-2.4202,-2.4291,-2.4587,-2.4883,-2.5186,-2.544,-2.5586,-2.5684,-2.5684,-2.5684,-2.5684,-2.5684,-2.5684,-2.5684,-2.5684,-2.5684,-2.5684,-2.5684,-2.5684,-2.5684,-2.5684,-2.5684,-2.5684,-2.5684,-2.5684,-2.5684,-2.5684,-2.5684,-2.5684,-1.444,-1.4482,-1.4601,-1.4615,-1.4517,-1.4971,-1.5344,-1.5646,-1.5972,-1.6366,-1.6764,-1.6685,-1.6492,-1.6447,-1.6319,-1.6494,-1.6629,-1.6676,-1.6958,-1.6933,-1.6844,-1.6829,-1.6899,-1.7166,-1.7568,-1.8049,-1.8495,-1.8665,-1.8735,-1.8735,-1.8735,-1.8781,-1.8781,-1.8781,-1.8781,-1.8781,-1.8781,-1.8781,-1.8781,-1.8781,-1.8781,-1.8781,-1.8781,-1.8781,-1.8781,-1.8781,-1.8781,-1.8837,-1.8837,-1.8781,-1.8781,-1.8781,-1.8781,-1.8789,-1.8962,-1.9121,-1.9335,-1.9669,-2.0091,-2.0313,-2.0591,-2.0813,-2.0885,-2.0925,-2.0925,-2.0925,-2.0925,-2.0917,-2.0901,-2.0893,-2.0885,-2.0877,-2.0834,-2.0936,-2.1097,-2.1353,-2.2215,-2.3029,-2.3587,-2.4152,-2.4102,-2.4102,-2.4152,-2.4152,-2.4152,-2.4161,-2.4251,-2.4341,-2.4489,-2.4784,-2.5088,-2.5342,-2.5586,-2.5635,-2.5684,-2.5684,-2.5684,-2.5684,-2.5684,-2.5684,-2.5684,-2.5684,-2.5684,-2.5684,-2.5684,-2.5684,-2.5684,-2.5684,-2.5684,-2.5684,-2.5684,-2.5684,-2.5684,-2.5684,-2.5684,-1.4657,-1.465,-1.4692,-1.4692,-1.4713,-1.4993,-1.5184,-1.5316,-1.5596,-1.5864,-1.637,-1.6791,-1.6977,-1.7394,-1.6979,-1.7019,-1.7293,-1.7286,-1.6989,-1.6877,-1.7017,-1.6906,-1.6982,-1.7288,-1.7625,-1.8096,-1.8553,-1.8758,-1.8718,-1.8742,-1.8781,-1.8781,-1.8781,-1.8781,-1.8781,-1.8781,-1.8781,-1.8781,-1.8781,-1.8781,-1.8781,-1.8781,-1.8781,-1.8781,-1.8781,-1.8781,-1.8845,-1.9129,-1.9042,-1.8923,-1.8781,-1.8781,-1.8781,-1.8781,-1.8907,-1.9066,-1.9233,-1.9662,-2.0028,-2.0329,-2.0623,-2.0861,-2.0925,-2.0925,-2.0925,-2.0925,-2.0925,-2.0925,-2.0917,-2.0917,-2.0909,-2.0909,-2.0909,-2.1165,-2.1369,-2.1768,-2.2375,-2.3079,-2.3746,-2.3795,-2.3746,-2.3845,-2.4102,-2.4053,-2.3954,-2.4003,-2.4211,-2.4301,-2.448,-2.4735,-2.499,-2.5245,-2.5547,-2.5635,-2.5684,-2.5684,-2.5684,-2.5684,-2.5684,-2.5684,-2.5684,-2.5684,-2.5684,-2.5684,-2.5684,-2.5684,-2.5684,-2.5684,-2.5684,-2.5684,-2.5684,-2.5684,-2.5684,-2.5762,-2.5879]},{"header":{"parameterUnit":"m.s-1","parameterCategory":1,"la1":31.0,"la2":29.5877,"lo1":-88.7671,"lo2":-86.6584,"dy":0.0162,"dx":0.0185,"nx":115,"ny":88,"refTime":"2024-03-01T18:00:00:Z","depth":0,"parameterNumber":3,"parameterNumberName":"V-component_of_WINDS"},"data":[0.0,0.0,0.0,0.0,0.0,0.0,0.0,0.0,0.0,0.0,0.0,0.0,0.0,0.0,0.0,0.0,0.0,0.0,0.0,0.0,0.0,0.0,0.0,0.0,0.0,0.0,0.0,0.0,0.0,0.0,0.0,0.0,0.0,0.0,0.0,0.0,0.0,0.0,0.0,0.0,0.0,0.0,0.0,0.0,0.0,0.0,0.0,0.0,0.0,0.0,0.0,0.0,0.0,0.0,0.0,0.0,0.0,0.0,0.0,0.0,0.0,0.0,0.0,0.0,0.0,0.0,0.0,0.0,0.0,0.0,0.0,0.0,0.0,0.0,0.0,0.0,0.0,0.0,0.0,0.0,0.0,0.0,0.0,0.0,0.0,0.0,0.0,0.0,0.0,0.0,0.0,0.0,0.0,0.0,0.0,0.0,0.0,0.0,0.0,0.0,0.0,0.0,0.0,0.0,0.0,0.0,0.0,0.0,0.0,0.0,0.0,0.0,0.0,0.0,0.0,0.0,0.0,0.0,0.0,0.0,0.0,0.0,0.0,0.0,0.0,0.0,0.0,0.0,0.0,0.0,0.0,0.0,0.0,0.0,0.0,0.0,0.0,0.0,0.0,0.0,0.0,0.0,0.0,0.0,0.0,0.0,0.0,0.0,0.0,0.0,0.0,0.0,0.0,0.0,0.0,0.0,0.0,0.0,0.0,0.0,0.0,0.0,0.0,0.0,0.0,0.0,0.0,0.0,0.0,0.0,0.0,0.0,0.0,0.0,0.0,0.0,0.0,0.0,0.0,0.0,0.0,0.0,0.0,0.0,0.0,0.0,0.0,0.0,0.0,0.0,0.0,0.0,0.0,0.0,0.0,0.0,0.0,0.0,0.0,0.0,0.0,0.0,0.0,0.0,0.0,0.0,0.0,0.0,0.0,0.0,0.0,0.0,0.0,0.0,0.0,0.0,0.0,0.0,0.0,0.0,0.0,0.0,0.0,0.0,0.0,0.0,0.0,0.0,0.0,0.0,0.0,0.0,0.0,0.0,0.0,0.0,0.0,0.0,0.0,0.0,0.0,0.0,0.0,0.0,0.0,0.0,0.0,0.0,0.0,0.0,0.0,0.0,0.0,0.0,0.0,0.0,0.0,0.0,0.0,0.0,0.0,0.0,0.0,0.0,0.0,0.0,0.0,0.0,0.0,0.0,0.0,0.0,0.0,0.0,0.0,0.0,0.0,0.0,0.0,0.0,0.0,0.0,0.0,0.0,0.0,0.0,0.0,0.0,0.0,0.0,0.0,0.0,0.0,0.0,0.0,0.0,0.0,0.0,0.0,0.0,0.0,0.0,0.0,0.0,0.0,0.0,0.0,0.0,0.0,0.0,0.0,0.0,0.0,0.0,0.0,0.0,0.0,0.0,0.0,0.0,0.0,0.0,0.0,0.0,0.0,0.0,0.0,0.0,0.0,0.0,0.0,0.0,0.0,0.0,0.0,0.0,0.0,0.0,0.0,0.0,0.0,0.0,0.0,0.0,0.0,0.0,0.0,0.0,0.0,0.0,0.0,0.0,0.0,0.0,0.0,0.0,0.0,0.0,0.0,0.0,0.0,0.0,0.0,0.0,0.0,0.0,0.0,0.0,0.0,0.0,0.0,0.0,0.0,0.0,0.0,0.0,0.0,0.0,0.0,0.0,0.0,0.0,0.0,0.0,0.0,0.0,0.0,0.0,0.0,0.0,0.0,0.0,0.0,0.0,0.0,0.0,0.0,0.0,0.0,0.0,0.0,0.0,0.0,0.0,0.0,0.0,0.0,0.0,0.0,0.0,0.0,0.0,0.0,0.0,0.0,0.0,0.0,0.0,0.0,0.0,0.0,0.0,0.0,0.0,0.0,0.0,0.0,0.0,0.0,0.0,0.0,0.0,0.0,0.0,0.0,0.0,0.0,0.0,0.0,0.0,0.0,0.0,0.0,0.0,0.0,0.0,0.0,0.0,0.0,0.0,0.0,0.0,0.0,0.0,0.0,0.0,0.0,0.0,0.0,0.0,0.0,0.0,0.0,0.0,0.0,0.0,0.0,0.0,0.0,0.0,0.0,0.0,0.0,0.0,0.0,0.0,0.0,0.0,0.0,0.0,0.0,0.0,0.0,0.0,0.0,0.0,0.0,0.0,0.0,0.0,0.0,0.0,0.0,0.0,0.0,0.0,0.0,0.0,0.0,0.0,0.0,0.0,0.0,0.0,0.0,0.0,0.0,0.0,0.0,0.0,0.0,0.0,0.0,0.0,0.0,0.0,0.0,0.0,0.0,0.0,0.0,0.0,0.0,0.0,0.0,0.0,0.0,0.0,0.0,0.0,0.0,0.0,0.0,0.0,0.0,0.0,0.0,0.0,0.0,0.0,0.0,0.0,0.0,0.0,0.0,0.0,0.0,0.0,0.0,0.0,0.0,0.0,0.0,0.0,0.0,0.0,0.0,0.0,0.0,0.0,0.0,0.0,0.0,0.0,0.0,0.0,0.0,0.0,0.0,0.0,0.0,0.0,0.0,0.0,0.0,0.0,0.0,0.0,0.0,0.0,0.0,0.0,0.0,0.0,0.0,0.0,0.0,0.0,0.0,0.0,0.0,0.0,0.0,0.0,0.0,0.0,0.0,0.0,0.0,0.0,0.0,0.0,0.0,0.0,0.0,0.0,0.0,0.0,0.0,0.0,0.0,0.0,0.0,0.0,0.0,0.0,0.0,0.0,0.0,0.0,0.0,0.0,0.0,0.0,0.0,0.0,0.0,0.0,0.0,0.0,0.0,0.0,0.0,0.0,0.0,0.0,0.0,0.0,0.0,0.0,0.0,0.0,0.0,0.0,0.0,0.0,0.0,0.0,0.0,0.0,0.0,0.0,0.0,0.0,0.0,0.0,0.0,0.0,0.0,0.0,0.0,0.0,0.0,0.0,0.0,0.0,0.0,0.0,0.0,0.0,0.0,0.0,0.0,0.0,0.0,0.0,0.0,0.0,0.0,0.0,0.0,0.0,0.0,0.0,0.0,0.0,0.0,0.0,0.0,0.0,0.0,0.0,0.0,0.0,0.0,0.0,0.0,0.0,0.0,0.0,0.0,0.0,0.0,0.0,0.0,0.0,0.0,0.0,0.0,0.0,0.0,0.0,0.0,0.0,0.0,0.0,0.0,0.0,0.0,0.0,0.0,0.0,0.0,0.0,0.0,0.0,0.0,0.0,0.0,0.0,0.0,0.0,0.0,0.0,0.0,0.0,0.0,0.0,0.0,0.0,0.0,0.0,0.0,0.0,0.0,0.0,0.0,0.0,0.0,0.0,0.0,0.0,0.0,0.0,0.0,0.0,0.0,0.0,0.0,0.0,0.0,0.0,0.0,0.0,0.0,0.0,0.0,0.0,0.0,0.0,0.0,0.0,0.0,0.0,0.0,0.0,0.0,0.0,0.0,0.0,0.0,0.0,0.0,0.0,0.0,0.0,0.0,0.0,0.0,0.0,0.0,0.0,0.0,0.0,0.0,0.0,0.0,0.0,0.0,0.0,0.0,0.0,0.0,0.0,0.0,0.0,0.0,0.0,0.0,0.0,0.0,0.0,0.0,0.0,0.0,0.0,0.0,0.0,0.0,0.0,0.0,0.0,0.0,0.0,0.0,0.0,0.0,0.0,0.0,0.0,0.0,0.0,0.0,0.0,0.0,0.0,0.0,0.0,0.0,0.0,0.0,0.0,0.0,0.0,0.0,0.0,0.0,0.0,0.0,0.0,0.0,0.0,0.0,0.0,0.0,0.0,0.0,0.0,0.0,0.0,0.0,0.0,0.0,0.0,0.0,0.0,0.0,0.0,0.0,0.0,0.0,0.0,0.0,0.0,0.0,0.0,0.0,0.0,0.0,0.0,0.0,0.0,0.0,0.0,0.0,0.0,0.0,0.0,0.0,0.0,0.0,0.0,0.0,0.0,0.0,0.0,0.0,0.0,0.0,0.0,0.0,0.0,0.0,0.0,0.0,0.0,0.0,0.0,0.0,0.0,0.0,0.0,0.0,0.0,0.0,0.0,0.0,0.0,0.0,0.0,0.0,0.0,0.0,0.0,0.0,0.0,0.0,0.0,0.0,0.0,0.0,0.0,0.0,0.0,0.0,0.0,0.0,0.0,0.0,0.0,0.0,0.0,0.0,0.0,0.0,0.0,0.0,0.0,0.0,0.0,0.0,0.0,0.0,0.0,0.0,0.0,0.0,0.0,0.0,0.0,0.0,0.0,0.0,0.0,0.0,0.0,1.2543,0.0,0.0,0.0,0.0,0.0,0.0,0.0,0.0,0.0,0.0,0.0,0.0,0.0,0.0,0.0,0.0,0.0,0.0,0.0,0.0,0.0,0.0,0.0,0.0,0.0,0.0,0.0,0.0,0.0,0.0,0.0,0.0,0.0,0.0,0.0,0.0,0.0,0.0,0.0,0.0,0.0,0.0,0.0,0.0,0.0,0.0,0.0,0.0,0.0,0.0,0.0,0.0,0.0,0.0,0.0,0.0,0.0,0.0,0.0,0.0,0.0,0.0,0.0,0.0,0.0,0.0,0.0,0.0,0.0,0.0,0.0,0.0,0.0,0.0,0.0,0.0,0.0,0.0,0.0,0.0,0.0,0.0,0.0,0.0,0.0,0.0,0.0,0.0,0.0,0.0,0.0,0.0,0.0,0.0,0.0,0.0,0.0,0.0,0.0,0.0,0.0,0.0,0.0,0.0,0.0,0.0,0.0,0.0,0.0,0.0,1.3928,1.3528,1.415,1.3879,1.255,0.0,0.0,0.0,0.0,0.0,0.0,0.0,0.0,0.0,0.0,0.0,0.0,0.0,0.0,0.0,0.0,0.0,0.0,0.0,0.0,0.0,0.0,0.0,0.0,0.0,0.0,0.0,0.0,0.0,0.0,0.0,0.0,0.0,0.0,0.0,0.0,0.0,0.0,0.0,0.0,0.0,0.0,0.0,0.0,0.0,0.0,0.0,0.0,0.0,0.0,0.0,0.0,0.0,0.0,0.0,0.0,0.0,0.0,0.0,0.0,0.0,0.0,0.0,0.0,0.0,0.0,0.0,0.0,0.0,0.0,0.0,0.0,0.0,0.0,0.0,0.0,0.0,0.0,0.0,0.0,0.0,0.0,0.0,0.0,0.0,0.0,0.0,0.0,0.0,0.0,0.0,0.0,0.0,0.0,0.0,0.0,0.0,0.0,0.0,0.0,0.0,0.0,0.0,0.0,0.0,0.0,0.0,0.0,0.0,0.0,0.0,0.0,1.4652,1.436,1.3023,0.0,0.0,0.0,0.0,0.0,0.0,0.0,0.0,0.0,0.0,0.0,0.0,0.0,0.0,0.0,0.0,0.0,0.0,0.0,0.0,0.0,0.0,0.0,0.0,0.0,0.0,0.0,0.0,0.0,0.0,0.0,0.0,0.0,0.0,0.0,0.0,0.0,0.0,0.0,0.0,0.0,0.0,0.0,0.0,0.0,0.0,0.0,0.0,0.0,0.0,0.0,0.0,0.0,0.0,0.0,0.0,0.0,0.0,0.0,0.0,0.0,0.0,0.0,0.0,0.0,0.0,0.0,0.0,0.0,0.0,0.0,0.0,0.0,0.0,0.0,0.0,0.0,0.0,0.0,0.0,0.0,0.0,0.0,0.0,0.0,0.0,0.0,0.0,0.0,0.0,0.0,0.0,0.0,0.0,0.0,0.0,0.0,0.0,0.0,0.0,0.0,0.0,0.0,0.0,0.0,0.0,0.0,0.0,0.0,0.0,1.4253,1.565,1.5482,0.0,1.4304,0.0,0.0,0.0,0.0,0.0,0.0,0.0,0.0,0.0,0.0,0.0,0.0,0.0,0.0,0.0,0.0,0.0,0.0,0.0,0.0,0.0,0.0,0.0,0.0,0.0,0.0,0.0,0.0,0.0,0.0,0.0,0.0,0.0,0.0,0.0,0.0,0.0,0.0,0.0,0.0,0.0,0.0,0.0,0.0,0.0,0.0,0.0,0.0,0.0,0.0,0.0,0.0,0.0,0.0,0.0,0.0,0.0,0.0,0.0,0.0,0.0,0.0,0.0,0.0,0.0,0.0,0.0,0.0,0.0,0.0,0.0,0.0,0.0,0.0,0.0,0.0,0.0,0.0,0.0,0.0,0.0,0.0,0.0,0.0,0.0,0.0,0.0,0.0,0.0,0.0,0.0,0.0,0.0,0.0,0.0,0.0,0.0,0.0,0.0,0.0,0.0,0.0,0.0,0.0,0.0,0.0,0.0,0.0,0.0,0.0,1.5707,1.7302,1.6373,1.5234,0.0,0.0,0.0,0.0,0.0,0.0,0.0,0.0,0.0,0.0,0.0,0.0,0.0,0.0,0.0,0.0,0.0,0.0,0.0,0.0,0.0,0.0,0.0,0.0,0.0,0.0,0.0,0.0,0.0,0.0,0.0,0.0,0.0,0.0,0.0,0.0,0.0,0.0,0.0,0.0,0.0,0.0,0.0,0.0,0.0,0.0,0.0,0.0,0.0,0.0,0.0,0.0,0.0,0.0,0.0,0.0,0.0,0.0,0.0,0.0,0.0,0.0,0.0,0.0,0.0,0.0,0.0,0.0,0.0,0.0,0.0,0.0,0.0,0.0,0.0,0.0,0.0,0.0,0.0,0.0,0.0,0.0,0.0,0.0,0.0,0.0,0.0,0.0,0.0,0.0,0.0,0.0,0.0,0.0,0.0,0.0,0.0,0.0,0.0,0.0,0.0,0.0,0.0,0.0,0.0,0.0,0.0,0.0,0.0,0.0,1.6061,1.6685,1.7863,1.6596,1.5187,1.3814,0.0,0.0,0.0,0.0,0.0,0.0,0.0,0.0,0.0,0.0,0.0,0.0,0.0,0.0,0.0,0.0,0.0,0.0,0.0,0.0,0.0,0.0,0.0,0.0,0.0,0.0,0.0,0.0,0.0,0.0,0.0,0.0,0.0,0.0,0.0,0.0,0.0,0.0,0.0,0.0,0.0,0.0,0.0,0.0,0.0,0.0,0.0,0.0,0.0,0.0,0.0,0.0,0.0,0.0,0.0,0.0,0.0,0.0,0.0,0.0,0.0,0.0,0.0,0.0,0.0,0.0,0.0,0.0,0.0,0.0,0.0,0.0,0.0,0.0,0.0,0.0,0.0,0.0,0.0,0.0,0.0,0.0,0.0,0.0,0.0,0.0,0.0,0.0,0.0,0.0,0.0,0.0,0.0,0.0,0.0,0.0,0.0,0.0,0.0,0.0,0.0,0.0,0.0,0.0,0.0,0.0,0.0,0.0,1.912,1.7504,1.6757,1.739,1.5808,1.4805,0.0,0.0,0.0,0.0,0.0,0.0,0.0,0.0,0.0,0.0,0.0,0.0,0.0,0.0,0.0,0.0,0.0,0.0,0.0,0.0,0.0,0.0,0.0,0.0,0.0,0.0,0.0,0.0,0.0,0.0,0.0,0.0,0.0,0.0,0.0,0.0,0.0,0.0,0.0,0.0,0.0,0.0,0.0,0.0,0.0,0.0,0.0,0.0,0.0,0.0,0.0,0.0,0.0,0.0,0.0,0.0,0.0,0.0,0.0,0.0,0.0,0.0,0.0,0.0,0.0,0.0,0.0,0.0,0.0,0.0,0.0,0.0,0.0,0.0,0.0,0.0,0.0,0.0,0.0,0.0,0.0,0.0,0.0,0.0,0.0,0.0,0.0,0.0,0.0,0.0,0.0,0.0,0.0,0.0,0.0,0.0,0.0,0.0,0.0,0.0,0.0,0.0,0.0,0.0,0.0,0.0,0.0,0.0,0.0,1.7804,1.8667,1.93,1.9681,1.8297,1.706,0.0,0.0,0.0,0.0,0.0,0.0,0.0,0.0,0.0,0.0,0.0,0.0,0.0,0.0,0.0,0.0,0.0,0.0,0.0,0.0,0.0,0.0,0.0,0.0,0.0,0.0,0.0,0.0,0.0,0.0,0.0,0.0,0.0,0.0,0.0,0.0,0.0,0.0,0.0,0.0,0.0,0.0,0.0,0.0,0.0,0.0,0.0,0.0,0.0,0.0,0.0,0.0,0.0,0.0,0.0,0.0,0.0,0.0,0.0,0.0,0.0,0.0,0.0,0.0,0.0,0.0,0.0,0.0,0.0,0.0,0.0,0.0,0.0,0.0,0.0,0.0,0.0,0.0,0.0,0.0,0.0,0.0,0.0,0.0,0.0,0.0,0.0,0.0,0.0,0.0,0.0,0.0,0.0,0.0,0.0,0.0,0.0,0.0,0.0,0.0,0.0,0.0,0.0,0.0,0.0,0.0,0.0,0.0,0.0,1.8248,0.0,2.1436,2.0705,1.937,1.7947,0.0,0.0,0.0,0.0,0.0,0.0,0.0,0.0,0.0,0.0,0.0,0.0,0.0,0.0,0.0,0.0,0.0,0.0,0.0,0.0,0.0,0.0,0.0,0.0,0.0,0.0,0.0,0.0,0.0,0.0,0.0,0.0,0.0,0.0,0.0,0.0,0.0,0.0,0.0,0.0,0.0,0.0,0.0,0.0,0.0,0.0,0.0,0.0,0.0,0.0,0.0,0.0,0.0,0.0,0.0,0.0,0.0,0.0,0.0,0.0,0.0,0.0,0.0,0.0,0.0,0.0,0.0,0.0,0.0,0.0,0.0,0.0,0.0,0.0,0.0,0.0,0.0,0.0,0.0,0.0,0.0,0.0,0.0,0.0,0.0,0.0,0.0,0.0,0.0,0.0,0.0,0.0,0.0,0.0,0.0,0.0,0.0,0.0,0.0,0.0,0.0,0.0,0.0,0.0,0.0,0.0,0.0,0.0,1.8991,2.0998,2.2936,2.2695,2.0149,1.873,1.7195,0.0,0.0,0.0,0.0,0.0,0.0,0.0,0.0,0.0,0.0,0.0,0.0,0.0,0.0,0.0,0.0,0.0,0.0,0.0,0.0,0.0,0.0,0.0,0.0,0.0,0.0,0.0,0.0,0.0,0.0,0.0,0.0,0.0,0.0,0.0,0.0,0.0,0.0,0.0,0.0,0.0,0.0,0.0,0.0,0.0,0.0,0.0,0.0,0.0,0.0,0.0,0.0,0.0,0.0,0.0,0.0,0.0,0.0,0.0,0.0,0.0,0.0,0.0,0.0,0.0,0.0,0.0,0.0,0.0,0.0,0.0,0.0,0.0,0.0,0.0,0.0,0.0,0.0,0.0,0.0,0.0,0.0,0.0,0.0,0.0,0.0,0.0,0.0,0.0,0.0,0.0,0.0,0.0,0.0,0.0,0.0,0.0,0.0,0.0,0.0,0.0,0.0,0.0,0.0,0.0,0.0,0.0,0.0,0.0,2.0292,2.1511,2.2527,2.3018,2.0226,1.8909,0.0,0.0,0.0,0.0,0.0,0.0,0.0,0.0,0.0,0.0,0.0,0.0,0.0,0.0,0.0,0.0,0.0,0.0,0.0,0.0,0.0,0.0,0.0,0.0,0.0,0.0,0.0,0.0,0.0,0.0,0.0,0.0,0.0,0.0,0.0,0.0,0.0,0.0,0.0,0.0,0.0,0.0,0.0,0.0,0.0,0.0,0.0,0.0,0.0,0.0,0.0,0.0,0.0,0.0,0.0,0.0,0.0,0.0,0.0,0.0,0.0,0.0,0.0,0.0,0.0,0.0,0.0,0.0,0.0,0.0,0.0,0.0,0.0,0.0,0.0,0.0,0.0,0.0,0.0,0.0,0.0,0.0,0.0,0.0,0.0,0.0,0.0,0.0,0.0,0.0,0.0,0.0,0.0,0.0,0.0,0.0,0.0,0.0,0.0,0.0,0.0,0.0,0.0,0.0,0.0,0.0,0.0,0.0,0.0,2.1667,2.2859,2.3839,2.4442,2.1837,2.0414,2.0264,0.0,0.0,0.0,0.0,0.0,0.0,0.0,0.0,0.0,0.0,0.0,0.0,0.0,0.0,0.0,0.0,0.0,0.0,0.0,0.0,0.0,0.0,0.0,0.0,0.0,0.0,0.0,0.0,0.0,0.0,0.0,0.0,0.0,0.0,0.0,0.0,0.0,0.0,0.0,0.0,0.0,0.0,0.0,0.0,0.0,0.0,0.0,0.0,0.0,0.0,0.0,0.0,0.0,0.0,0.0,0.0,0.0,0.0,0.0,0.0,0.0,0.0,0.0,0.0,0.0,0.0,0.0,0.0,0.0,0.0,0.0,0.0,0.0,0.0,0.0,0.0,0.0,0.0,0.0,0.0,0.0,0.0,0.0,0.0,0.0,0.0,0.0,0.0,0.0,0.0,0.0,0.0,0.0,0.0,0.0,0.0,0.0,0.0,0.0,0.0,0.0,0.0,0.0,0.0,0.0,0.0,0.0,0.0,2.4538,2.6372,2.6408,2.4582,2.3422,2.1566,0.0,0.0,0.0,0.0,0.0,0.0,0.0,0.0,0.0,0.0,0.0,0.0,0.0,0.0,0.0,0.0,0.0,0.0,0.0,0.0,0.0,0.0,0.0,0.0,0.0,0.0,0.0,0.0,0.0,0.0,0.0,0.0,0.0,0.0,0.0,0.0,0.0,0.0,0.0,0.0,0.0,0.0,0.0,0.0,0.0,0.0,0.0,0.0,0.0,0.0,0.0,0.0,0.0,0.0,0.0,0.0,0.0,0.0,0.0,0.0,0.0,0.0,0.0,0.0,0.0,0.0,0.0,0.0,0.0,0.0,0.0,0.0,0.0,0.0,0.0,0.0,0.0,0.0,0.0,0.0,0.0,0.0,0.0,0.0,0.0,0.0,0.0,0.0,0.0,0.0,0.0,0.0,0.0,0.0,0.0,0.0,0.0,0.0,0.0,0.0,0.0,0.0,0.0,0.0,0.0,0.0,0.0,0.0,0.0,2.5471,2.6982,2.7472,2.6898,2.4029,2.214,0.0,0.0,0.0,0.0,0.0,0.0,0.0,0.0,0.0,0.0,0.0,0.0,0.0,0.0,0.0,0.0,0.0,0.0,0.0,0.0,0.0,0.0,0.0,0.0,0.0,0.0,0.0,0.0,0.0,0.0,0.0,0.0,0.0,0.0,0.0,0.0,0.0,0.0,0.0,0.0,0.0,0.0,0.0,0.0,0.0,0.0,0.0,0.0,0.0,0.0,0.0,0.0,0.0,0.0,0.0,0.0,0.0,0.0,0.0,0.0,0.0,0.0,0.0,0.0,0.0,0.0,0.0,0.0,0.0,0.0,0.0,0.0,0.0,0.0,0.0,0.0,0.0,0.0,0.0,0.0,0.0,0.0,0.0,0.0,0.0,0.0,0.0,0.0,0.0,0.0,0.0,0.0,0.0,0.0,0.0,0.0,0.0,0.0,0.0,0.0,0.0,0.0,0.0,0.0,0.0,0.0,0.0,0.0,2.3981,2.6449,2.7603,2.8411,2.8792,2.574,2.3289,0.0,0.0,0.0,0.0,0.0,0.0,0.0,0.0,0.0,0.0,0.0,0.0,0.0,0.0,0.0,0.0,0.0,0.0,0.0,0.0,0.0,0.0,0.0,0.0,0.0,0.0,0.0,0.0,0.0,0.0,0.0,0.0,0.0,0.0,0.0,0.0,0.0,0.0,0.0,0.0,0.0,0.0,0.0,0.0,0.0,0.0,0.0,0.0,0.0,0.0,0.0,0.0,0.0,0.0,0.0,0.0,0.0,0.0,0.0,0.0,0.0,0.0,0.0,0.0,0.0,0.0,0.0,0.0,0.0,0.0,0.0,0.0,0.0,0.0,0.0,0.0,0.0,0.0,0.0,0.0,0.0,0.0,0.0,0.0,0.0,0.0,0.0,0.0,0.0,0.0,0.0,0.0,0.0,0.0,0.0,0.0,0.0,0.0,0.0,0.0,0.0,0.0,0.0,0.0,0.0,0.0,0.0,0.0,2.4754,2.728,2.8331,2.9208,2.9959,2.7819,2.4753,0.0,0.0,0.0,0.0,0.0,0.0,0.0,0.0,0.0,0.0,0.0,0.0,0.0,0.0,0.0,0.0,0.0,0.0,0.0,0.0,0.0,0.0,0.0,0.0,0.0,0.0,0.0,0.0,0.0,0.0,0.0,0.0,0.0,0.0,0.0,0.0,0.0,0.0,0.0,0.0,0.0,0.0,0.0,0.0,0.0,0.0,0.0,0.0,0.0,0.0,0.0,0.0,0.0,0.0,0.0,0.0,0.0,0.0,0.0,0.0,0.0,0.0,0.0,0.0,0.0,0.0,0.0,0.0,0.0,0.0,0.0,0.0,0.0,0.0,0.0,0.0,0.0,0.0,0.0,0.0,0.0,0.0,0.0,0.0,0.0,0.0,0.0,0.0,0.0,0.0,0.0,0.0,0.0,0.0,0.0,0.0,0.0,0.0,0.0,0.0,0.0,0.0,0.0,0.0,0.0,0.0,0.0,0.0,2.6453,2.7767,2.9424,3.0278,3.0111,2.7738,2.5267,0.0,0.0,0.0,0.0,0.0,0.0,0.0,0.0,0.0,0.0,0.0,0.0,0.0,0.0,0.0,0.0,0.0,0.0,0.0,0.0,0.0,0.0,0.0,0.0,0.0,0.0,0.0,0.0,0.0,0.0,0.0,0.0,0.0,0.0,0.0,0.0,0.0,0.0,0.0,0.0,0.0,0.0,0.0,0.0,0.0,0.0,0.0,0.0,1.7175,0.0,0.0,0.0,0.0,0.0,0.0,0.0,0.0,0.0,0.0,0.0,0.0,0.0,0.0,0.0,0.0,0.0,0.0,0.0,0.0,0.0,0.0,0.0,0.0,0.0,0.0,0.0,0.0,0.0,0.0,0.0,0.0,0.0,0.0,0.0,0.0,0.0,0.0,0.0,0.0,0.0,0.0,0.0,0.0,0.0,0.0,0.0,0.0,0.0,0.0,0.0,0.0,0.0,0.0,0.0,0.0,0.0,0.0,0.0,2.7779,2.8945,3.0182,3.0916,3.1067,2.9106,2.6508,0.0,0.0,0.0,0.0,0.0,0.0,0.0,0.0,0.0,0.0,0.0,0.0,0.0,0.0,0.0,0.0,0.0,0.0,0.0,0.0,0.0,0.0,0.0,0.0,0.0,0.0,0.0,0.0,0.0,0.0,0.0,0.0,0.0,0.0,0.0,0.0,0.0,0.0,0.0,0.0,0.0,0.0,0.0,0.0,0.0,0.0,0.0,0.0,0.0,0.0,0.0,0.0,0.0,0.0,0.0,0.0,0.0,0.0,0.0,0.0,0.0,0.0,0.0,0.0,0.0,0.0,0.0,0.0,0.0,0.0,0.0,0.0,0.0,0.0,0.0,0.0,0.0,0.0,0.0,0.0,0.0,0.0,0.0,0.0,0.0,0.0,0.0,0.0,0.0,0.0,0.0,0.0,0.0,0.0,0.0,0.0,0.0,0.0,0.0,0.0,0.0,0.0,0.0,0.0,0.0,0.0,0.0,2.651,2.8803,3.0169,3.074,3.1464,3.2244,3.0628,2.7834,2.3869,0.0,0.0,0.0,0.0,0.0,0.0,0.0,0.0,0.0,0.0,0.0,0.0,0.0,0.0,0.0,0.0,0.0,0.0,0.0,0.0,0.0,0.0,0.0,0.0,0.0,0.0,0.0,0.0,0.0,0.0,0.0,0.0,0.0,0.0,0.0,0.0,0.0,0.0,2.0425,2.1521,0.0,0.0,0.0,0.0,0.0,0.0,0.0,0.0,1.9822,0.0,0.0,0.0,0.0,0.0,0.0,0.0,0.0,0.0,0.0,0.0,0.0,0.0,0.0,0.0,0.0,0.0,0.0,0.0,0.0,0.0,0.0,0.0,0.0,0.0,0.0,0.0,0.0,0.0,0.0,0.0,0.0,0.0,0.0,0.0,0.0,0.0,0.0,0.0,0.0,0.0,0.0,0.0,0.0,0.0,0.0,0.0,0.0,0.0,0.0,0.0,0.0,0.0,0.0,0.0,0.0,2.6496,2.8002,2.9209,3.0192,3.1534,3.2224,3.2174,3.0471,2.825,2.5595,0.0,0.0,0.0,0.0,0.0,0.0,0.0,0.0,0.0,0.0,0.0,0.0,0.0,0.0,0.0,0.0,0.0,0.0,0.0,0.0,0.0,0.0,0.0,0.0,0.0,0.0,0.0,0.0,0.0,0.0,0.0,0.0,0.0,0.0,0.0,0.0,0.0,0.0,0.0,2.3216,2.3684,0.0,0.0,0.0,0.0,0.0,0.0,0.0,0.0,2.1034,0.0,0.0,0.0,0.0,0.0,0.0,0.0,0.0,0.0,0.0,0.0,0.0,0.0,0.0,0.0,0.0,0.0,0.0,0.0,0.0,0.0,0.0,0.0,0.0,0.0,0.0,0.0,0.0,0.0,0.0,0.0,0.0,0.0,0.0,0.0,0.0,0.0,0.0,0.0,0.0,0.0,0.0,0.0,0.0,0.0,0.0,0.0,0.0,0.0,0.0,0.0,0.0,0.0,0.0,0.0,2.6161,2.8736,3.0455,3.112,3.1851,3.2352,3.251,3.0279,2.8219,0.0,0.0,0.0,0.0,0.0,0.0,0.0,0.0,0.0,0.0,0.0,0.0,0.0,0.0,0.0,0.0,0.0,0.0,0.0,0.0,0.0,0.0,0.0,0.0,0.0,0.0,0.0,0.0,0.0,0.0,0.0,0.0,0.0,0.0,0.0,0.0,0.0,0.0,0.0,0.0,2.4221,2.4692,2.4272,0.0,0.0,0.0,0.0,0.0,0.0,2.1641,2.1393,0.0,0.0,0.0,0.0,0.0,0.0,0.0,0.0,0.0,0.0,0.0,0.0,0.0,0.0,0.0,0.0,0.0,0.0,0.0,0.0,0.0,0.0,0.0,0.0,0.0,0.0,0.0,0.0,0.0,0.0,0.0,0.0,0.0,0.0,0.0,0.0,0.0,0.0,0.0,0.0,0.0,0.0,0.0,0.0,0.0,0.0,0.0,0.0,0.0,0.0,0.0,0.0,0.0,0.0,0.0,2.5278,2.8818,3.1086,3.1869,3.1907,3.2254,3.2965,3.0149,2.8084,0.0,0.0,0.0,0.0,0.0,0.0,0.0,0.0,0.0,0.0,0.0,0.0,0.0,0.0,0.0,0.0,0.0,0.0,0.0,0.0,0.0,0.0,0.0,0.0,0.0,0.0,0.0,0.0,0.0,0.0,0.0,0.0,0.0,0.0,0.0,0.0,0.0,0.0,0.0,0.0,0.0,2.5787,2.519,2.4912,0.0,0.0,0.0,0.0,2.2616,2.2929,0.0,0.0,0.0,0.0,0.0,0.0,0.0,0.0,0.0,0.0,0.0,0.0,0.0,0.0,0.0,0.0,0.0,0.0,0.0,0.0,0.0,0.0,0.0,0.0,0.0,0.0,0.0,0.0,0.0,0.0,0.0,0.0,0.0,0.0,0.0,0.0,0.0,0.0,0.0,0.0,0.0,0.0,0.0,0.0,0.0,0.0,0.0,0.0,0.0,0.0,0.0,0.0,0.0,0.0,0.0,0.0,2.5314,2.7719,2.9802,3.1461,3.1539,3.22,3.3427,3.0194,2.8053,0.0,0.0,0.0,0.0,0.0,0.0,0.0,0.0,0.0,0.0,0.0,0.0,0.0,0.0,0.0,0.0,0.0,0.0,0.0,0.0,0.0,0.0,0.0,0.0,0.0,0.0,0.0,0.0,0.0,0.0,0.0,0.0,0.0,0.0,0.0,0.0,0.0,0.0,0.0,0.0,0.0,2.7382,2.6058,2.5911,2.5946,0.0,0.0,2.5915,2.6554,2.8254,0.0,0.0,0.0,0.0,0.0,0.0,0.0,0.0,0.0,0.0,0.0,0.0,0.0,0.0,0.0,0.0,0.0,0.0,0.0,0.0,0.0,0.0,0.0,0.0,0.0,0.0,0.0,0.0,0.0,0.0,0.0,0.0,0.0,0.0,0.0,0.0,0.0,0.0,0.0,0.0,0.0,0.0,0.0,0.0,0.0,0.0,0.0,0.0,0.0,0.0,0.0,0.0,0.0,0.0,0.0,2.4438,2.5536,2.8135,3.0047,3.1186,3.1213,3.1486,3.2084,2.9052,2.7111,0.0,0.0,0.0,0.0,0.0,0.0,0.0,0.0,0.0,0.0,0.0,0.0,0.0,0.0,0.0,0.0,0.0,0.0,0.0,0.0,0.0,0.0,0.0,0.0,0.0,0.0,0.0,0.0,0.0,0.0,0.0,0.0,0.0,0.0,0.0,0.0,0.0,0.0,0.0,0.0,0.0,0.0,2.778,2.7338,0.0,0.0,0.0,2.6956,2.7748,0.0,0.0,0.0,0.0,0.0,0.0,0.0,0.0,0.0,0.0,0.0,0.0,0.0,0.0,0.0,0.0,0.0,0.0,0.0,0.0,0.0,0.0,0.0,0.0,0.0,0.0,0.0,0.0,0.0,0.0,0.0,0.0,0.0,0.0,0.0,0.0,0.0,0.0,0.0,0.0,0.0,0.0,0.0,0.0,0.0,0.0,0.0,0.0,0.0,0.0,0.0,0.0,0.0,0.0,0.0,0.0,0.0,2.5954,2.8889,3.0876,3.1729,3.1622,3.1609,3.1692,2.9085,0.0,0.0,0.0,0.0,0.0,0.0,0.0,0.0,0.0,0.0,0.0,0.0,0.0,0.0,0.0,0.0,0.0,0.0,0.0,0.0,0.0,0.0,0.0,0.0,0.0,0.0,0.0,2.0978,0.0,0.0,0.0,0.0,0.0,0.0,0.0,0.0,0.0,0.0,0.0,0.0,0.0,0.0,2.9465,2.9465,2.9195,2.9461,0.0,0.0,2.866,2.904,3.0068,2.9856,0.0,0.0,0.0,0.0,0.0,0.0,0.0,0.0,0.0,0.0,0.0,0.0,0.0,0.0,0.0,0.0,0.0,0.0,0.0,0.0,0.0,0.0,0.0,0.0,0.0,0.0,0.0,0.0,0.0,0.0,0.0,0.0,0.0,0.0,0.0,0.0,0.0,0.0,0.0,0.0,0.0,0.0,0.0,0.0,0.0,0.0,0.0,0.0,0.0,0.0,0.0,0.0,0.0,0.0,2.5661,2.6876,2.9781,3.2143,3.3792,3.3331,3.3296,3.3732,3.1506,2.9118,0.0,0.0,0.0,0.0,0.0,0.0,0.0,0.0,0.0,0.0,0.0,0.0,0.0,0.0,0.0,0.0,0.0,0.0,0.0,0.0,0.0,0.0,0.0,0.0,0.0,0.0,0.0,0.0,0.0,0.0,0.0,0.0,0.0,0.0,0.0,0.0,0.0,0.0,0.0,0.0,0.0,3.0795,3.0783,3.1648,3.2487,0.0,3.2916,3.2372,3.1406,3.386,3.391,2.8099,0.0,0.0,0.0,0.0,0.0,0.0,0.0,0.0,0.0,0.0,0.0,0.0,0.0,0.0,0.0,0.0,0.0,0.0,0.0,0.0,0.0,0.0,0.0,0.0,0.0,0.0,0.0,0.0,0.0,0.0,0.0,0.0,0.0,0.0,0.0,0.0,0.0,0.0,0.0,0.0,0.0,0.0,0.0,0.0,0.0,0.0,0.0,0.0,0.0,0.0,0.0,0.0,0.0,2.6342,2.6798,3.0241,3.2368,3.3099,3.3565,3.3677,3.3328,3.1948,2.9913,0.0,0.0,0.0,0.0,0.0,0.0,0.0,0.0,0.0,0.0,0.0,0.0,0.0,0.0,0.0,0.0,0.0,0.0,0.0,0.0,0.0,0.0,0.0,0.0,0.0,0.0,0.0,0.0,2.2732,2.2581,2.1274,0.0,0.0,0.0,0.0,0.0,0.0,0.0,0.0,0.0,0.0,3.1733,3.2778,3.2869,0.0,0.0,3.3954,3.3319,3.3406,3.3778,3.3021,2.9985,2.7767,0.0,0.0,0.0,0.0,0.0,0.0,0.0,0.0,0.0,0.0,0.0,0.0,0.0,0.0,0.0,0.0,0.0,0.0,0.0,0.0,0.0,0.0,0.0,0.0,0.0,0.0,0.0,0.0,0.0,0.0,0.0,0.0,0.0,0.0,0.0,0.0,0.0,0.0,0.0,0.0,0.0,0.0,0.0,0.0,0.0,0.0,0.0,0.0,0.0,0.0,0.0,0.0,2.7001,2.7413,3.0979,3.3138,3.3825,3.462,3.4732,3.4116,3.3409,3.1555,0.0,0.0,0.0,0.0,0.0,0.0,0.0,0.0,0.0,0.0,0.0,0.0,0.0,0.0,0.0,0.0,0.0,0.0,0.0,0.0,0.0,0.0,0.0,0.0,0.0,0.0,0.0,0.0,2.3325,2.3094,2.2004,0.0,0.0,0.0,0.0,0.0,0.0,0.0,0.0,0.0,0.0,3.2607,3.3593,3.3409,3.3547,3.4628,3.3679,3.292,3.327,3.2807,3.1894,3.0457,0.0,0.0,0.0,0.0,0.0,0.0,0.0,0.0,0.0,0.0,0.0,0.0,0.0,0.0,0.0,0.0,0.0,0.0,0.0,0.0,0.0,0.0,0.0,0.0,0.0,0.0,0.0,2.7985,0.0,0.0,2.793,0.0,0.0,0.0,0.0,0.0,0.0,0.0,0.0,0.0,0.0,0.0,0.0,0.0,0.0,0.0,0.0,0.0,0.0,0.0,0.0,0.0,0.0,2.7559,2.904,3.2153,3.4754,3.6713,3.6897,3.6864,3.6821,3.623,3.4407,3.1246,0.0,0.0,0.0,0.0,0.0,0.0,0.0,0.0,0.0,0.0,0.0,0.0,0.0,0.0,0.0,0.0,0.0,0.0,0.0,0.0,0.0,0.0,0.0,0.0,0.0,0.0,2.3237,2.2559,2.2409,0.0,0.0,0.0,0.0,0.0,0.0,0.0,0.0,0.0,2.9019,3.1811,3.3507,3.2896,3.3234,3.3416,3.2694,3.2017,3.1319,3.0625,3.1354,3.1252,0.0,0.0,0.0,0.0,0.0,0.0,0.0,0.0,0.0,0.0,0.0,0.0,0.0,0.0,0.0,0.0,0.0,0.0,0.0,0.0,0.0,0.0,0.0,0.0,0.0,0.0,0.0,3.061,3.0212,0.0,0.0,0.0,0.0,0.0,0.0,0.0,0.0,0.0,0.0,0.0,3.3348,3.3908,0.0,0.0,0.0,0.0,0.0,0.0,0.0,0.0,0.0,0.0,0.0,0.0,2.852,2.9173,3.2701,3.5002,3.5781,3.6584,3.6875,3.6688,3.6332,3.4592,3.1334,0.0,0.0,0.0,0.0,0.0,0.0,0.0,0.0,0.0,0.0,0.0,0.0,0.0,0.0,0.0,0.0,0.0,0.0,0.0,0.0,0.0,0.0,0.0,0.0,0.0,2.534,0.0,0.0,0.0,0.0,0.0,0.0,0.0,0.0,0.0,0.0,2.7973,2.9296,2.991,3.1944,3.3523,3.4022,3.4626,3.4758,0.0,0.0,0.0,0.0,0.0,0.0,0.0,0.0,0.0,0.0,0.0,0.0,0.0,0.0,2.971,2.5669,2.4213,2.3491,2.3121,0.0,0.0,0.0,0.0,0.0,0.0,0.0,0.0,0.0,0.0,0.0,0.0,0.0,0.0,3.2864,3.2681,3.244,0.0,0.0,0.0,0.0,0.0,0.0,0.0,0.0,3.4439,3.553,3.5506,3.6282,3.629,0.0,3.4235,3.273,0.0,0.0,0.0,0.0,0.0,0.0,0.0,0.0,2.9383,3.0258,3.3154,3.5202,3.6138,3.6824,3.7084,3.6846,3.6259,3.4696,3.2045,2.9848,2.8146,0.0,0.0,0.0,0.0,0.0,0.0,0.0,0.0,0.0,0.0,0.0,0.0,0.0,0.0,0.0,0.0,0.0,0.0,0.0,0.0,0.0,0.0,0.0,2.6025,0.0,0.0,0.0,0.0,0.0,0.0,0.0,0.0,0.0,2.8411,2.9567,3.0691,3.1634,3.2945,3.3938,3.4178,0.0,0.0,0.0,0.0,0.0,0.0,0.0,3.1408,3.0444,3.0281,3.028,3.0312,3.1681,3.2888,3.3021,0.0,0.0,2.8825,2.7366,2.6549,2.6109,2.5361,2.4732,2.4653,2.4892,2.499,0.0,0.0,0.0,0.0,3.3414,0.0,0.0,0.0,3.4479,3.4863,0.0,3.4667,0.0,0.0,0.0,0.0,3.1213,3.365,0.0,0.0,3.8134,3.9343,3.8135,3.8794,3.9495,3.9995,3.7932,3.7033,3.7003,3.2364,0.0,0.0,0.0,0.0,0.0,0.0,3.0201,3.2371,3.3684,3.549,3.7857,3.7622,3.7447,3.7401,3.6168,3.4827,3.3488,3.2098,3.051,2.8583,2.718,0.0,0.0,0.0,0.0,0.0,0.0,0.0,0.0,0.0,0.0,0.0,0.0,0.0,0.0,0.0,0.0,0.0,0.0,0.0,0.0,2.6032,0.0,0.0,0.0,0.0,0.0,0.0,0.0,0.0,0.0,3.1129,3.1583,3.1681,3.2305,3.3954,0.0,0.0,0.0,0.0,3.3114,3.2661,3.2597,3.2475,3.1739,3.2807,3.3173,3.1529,0.0,0.0,3.1967,3.2829,3.334,3.2019,3.292,3.3871,3.4298,3.1953,3.0236,3.0298,2.9143,2.8001,2.7011,2.7245,2.7404,4.0128,0.0,0.0,0.0,0.0,3.7587,3.852,4.0144,3.9076,3.8464,3.8169,3.6902,0.0,0.0,0.0,0.0,0.0,0.0,3.5666,3.7078,3.9152,4.0451,4.1052,4.1813,4.1982,4.1627,4.0493,3.9961,3.996,3.8061,3.4833,3.0458,0.0,0.0,0.0,0.0,3.1967,3.3595,3.52,3.665,3.7909,3.714,3.6711,3.6726,3.5363,3.4704,3.4795,3.3161,3.1756,3.0728,2.9514,0.0,0.0,0.0,0.0,0.0,0.0,0.0,0.0,0.0,0.0,0.0,0.0,0.0,0.0,0.0,0.0,0.0,0.0,0.0,2.6274,2.6635,2.6863,0.0,0.0,0.0,0.0,0.0,0.0,0.0,0.0,0.0,3.3742,3.35,3.3124,0.0,0.0,3.4386,3.3544,3.4218,3.4742,3.4504,3.5257,0.0,3.3719,3.4226,3.4293,3.2912,3.3537,3.4416,3.5178,3.5801,3.5791,3.4553,3.5008,3.5211,3.4047,3.2776,3.1532,3.0671,3.0075,2.9517,2.8724,2.8973,2.9024,4.4394,4.2363,3.9652,3.9037,3.9888,3.9905,4.0889,4.244,4.1525,4.0916,4.0484,3.9301,3.7811,3.605,3.5149,0.0,0.0,0.0,3.7568,3.9495,4.0205,4.1001,4.1847,4.2033,4.2016,4.183,4.1119,4.0899,4.1204,4.0155,3.7689,3.3822,0.0,3.1276,3.0483,3.2027,3.3379,3.4529,3.6151,3.7113,3.7314,3.6378,3.5987,3.6242,3.5159,3.4776,3.519,3.4194,3.3149,3.2176,3.0975,2.9789,0.0,0.0,0.0,0.0,0.0,0.0,0.0,0.0,0.0,0.0,0.0,2.5876,2.5425,0.0,0.0,0.0,2.6989,2.7395,2.7851,2.8106,0.0,0.0,0.0,0.0,0.0,0.0,0.0,3.1602,3.1843,3.2659,3.4603,3.4404,3.4136,3.4424,3.483,3.4901,3.4448,0.0,3.5544,3.5388,3.6261,3.6444,3.5027,3.5381,3.5454,3.4384,3.4453,3.4942,3.5833,3.6181,3.603,3.5492,3.5551,3.5402,3.432,3.3419,3.2527,3.1448,3.1023,3.056,2.9808,2.977,2.9541,4.7916,4.6726,4.1365,3.9797,4.0823,4.0823,4.1519,4.2625,4.254,4.2422,4.232,4.1559,4.0426,3.8954,3.6907,0.0,3.8193,3.8819,3.9851,4.1288,4.1288,4.1288,4.1255,4.0756,4.0764,4.1373,4.0679,4.0663,4.1221,3.9935,3.8802,3.7898,3.6841,3.5198,3.3084,3.384,3.4684,3.5412,3.6655,3.7047,3.646,3.5568,3.538,3.6044,3.539,3.5033,3.5062,3.5098,3.45,3.3137,3.1834,3.0772,2.9995,0.0,0.0,0.0,0.0,0.0,0.0,0.0,0.0,0.0,0.0,0.0,0.0,0.0,0.0,0.0,2.8084,0.0,3.0148,3.0106,0.0,0.0,0.0,3.0985,3.105,3.1935,3.2638,3.2853,0.0,0.0,3.4601,3.4663,3.5196,3.6774,3.6402,3.5879,3.5644,3.5688,3.5714,3.5621,3.6163,3.6357,3.5836,3.6236,3.6394,3.5719,3.5263,3.4916,3.4925,3.495,3.4913,3.4615,3.475,3.4699,3.4635,3.3739,3.3141,3.2357,3.1759,3.1138,3.0278,2.9741,2.9218,4.7933,4.7033,4.51,4.4429,4.4592,4.4462,4.4929,4.5602,4.4547,4.3735,4.3064,4.1796,4.0679,3.9808,3.9283,3.9529,4.0409,4.0003,4.0612,4.1999,4.2033,4.2033,4.2083,4.3058,4.3284,4.2895,4.2682,4.2422,4.2033,4.1677,4.0273,3.8017,3.8181,3.7188,3.502,3.5759,3.6522,3.7246,3.7336,3.6928,3.6067,3.5811,3.577,3.5951,3.5284,3.5169,3.5655,3.5388,3.4811,3.3887,3.3183,3.2219,3.0929,2.9336,0.0,0.0,0.0,0.0,0.0,0.0,0.0,0.0,0.0,2.7766,2.5776,0.0,2.8338,0.0,2.8758,2.9802,3.0674,3.0668,0.0,0.0,3.2489,3.2676,3.3186,3.3467,3.3652,3.3727,3.3788,3.4108,3.4836,3.4782,3.5209,3.654,3.6215,3.557,3.5055,3.5838,3.6421,3.6319,3.685,3.7286,3.6885,3.6709,3.6454,3.6314,3.5497,3.4864,3.4648,3.4771,3.4516,3.3365,3.3647,3.3552,3.2515,3.2131,3.2083,3.1654,3.1173,3.0506,2.952,2.9215,2.8908,4.7826,4.7335,4.6535,4.5956,4.5582,4.5433,4.5614,4.592,4.515,4.4368,4.3542,4.2047,4.1104,4.0663,4.0324,4.0731,4.161,4.0916,4.123,4.2252,4.1948,4.1796,4.183,4.2675,4.2861,4.2429,4.276,4.254,4.183,4.1796,4.0798,3.892,3.9276,3.8684,3.7178,3.6914,3.6846,3.6891,3.6676,3.6676,3.6783,3.6465,3.598,3.5305,3.5245,3.5054,3.4821,3.4259,3.3905,3.377,3.29,3.207,3.1224,3.0131,2.9368,0.0,0.0,0.0,0.0,0.0,0.0,0.0,0.0,0.0,0.0,0.0,2.9104,2.8728,2.9971,3.1166,3.2118,3.238,3.2955,3.4034,3.415,3.4315,3.4688,3.4617,3.4617,3.4697,3.4521,3.4571,3.5062,3.508,3.5324,3.6061,3.5925,3.572,3.5661,3.6143,3.6332,3.5914,3.614,3.618,3.5761,3.5385,3.516,3.513,3.4671,3.422,3.4082,3.4165,3.3942,3.3134,3.3364,3.345,3.2481,3.202,3.1798,3.14,3.0811,3.02,2.9733,2.93,2.8837,4.7768,4.7575,4.6813,4.6035,4.5327,4.5203,4.5113,4.5022,4.5022,4.4595,4.3809,4.239,4.1682,4.1503,4.0866,4.1197,4.2245,4.1653,4.1679,4.2153,4.1671,4.1341,4.1188,4.1358,4.1392,4.1341,4.1925,4.1882,4.1256,4.1145,4.0679,3.9994,3.9977,3.9588,3.8836,3.7591,3.6535,3.5752,3.5836,3.6479,3.7702,3.6924,3.5893,3.4726,3.5076,3.4771,3.3609,3.2814,3.2699,3.3186,3.2036,3.1312,3.119,3.0594,2.9917,0.0,2.9118,0.0,0.0,0.0,0.0,0.0,0.0,0.0,0.0,2.9739,2.9996,3.0315,3.1456,3.2641,3.38,3.4269,3.4793,3.5515,3.5616,3.5616,3.56,3.5435,3.5389,3.5577,3.5234,3.5088,3.5301,3.5414,3.5481,3.566,3.5704,3.5939,3.6477,3.6291,3.5815,3.508,3.4804,3.465,3.4029,3.3696,3.359,3.3485,3.344,3.332,3.323,3.323,3.3215,3.3155,3.3155,3.317,3.3245,3.245,3.1853,3.1535,3.0836,3.0309,3.0115,2.9628,2.9004,4.8099,4.7402,4.743,4.6871,4.603,4.5988,4.5606,4.5022,4.5022,4.4568,4.386,4.2971,4.2467,4.2286,4.215,4.2164,4.2296,4.238,4.2176,4.1759,4.2414,4.2102,4.1054,4.2163,4.2438,4.1847,4.1766,4.1648,4.1495,4.0722,3.9943,3.9233,3.9191,3.8836,3.8125,0.0,0.0,0.0,3.7178,3.7313,3.6981,3.5639,3.5081,3.5329,3.437,0.0,3.4252,3.3592,3.2966,3.253,3.2337,0.0,0.0,0.0,0.0,0.0,0.0,0.0,0.0,0.0,0.0,0.0,3.2046,3.1374,3.0164,3.1075,3.2032,3.2673,3.2976,3.3474,3.4278,3.4445,3.4793,3.5498,3.56,3.5616,3.56,3.5571,3.5554,3.56,3.5515,3.5487,3.552,3.5431,3.5545,3.5972,3.5786,3.5854,3.6432,3.5979,3.5378,3.4922,3.4569,3.4331,3.4029,3.3759,3.3306,3.2901,3.2691,3.2497,3.2064,3.1929,3.1899,3.1929,3.1869,3.1914,3.1914,3.1706,3.1603,3.1515,3.1337,3.091,2.9922,2.9554,2.9345,4.7192,4.6991,4.6359,4.604,0.0,4.5947,4.5945,4.591,4.5692,4.5165,4.448,4.4098,4.3883,4.3721,4.3358,4.3136,4.3026,4.2794,4.2295,4.1613,4.2061,4.1922,4.1249,4.2209,4.2507,4.2137,4.1911,4.1805,4.1753,4.0918,4.028,3.9929,3.9946,3.9758,3.9416,3.9358,3.8881,3.7895,3.7889,3.7719,3.7313,3.6586,3.5825,3.5081,3.4687,0.0,0.0,0.0,0.0,0.0,0.0,0.0,0.0,3.2027,0.0,3.1426,3.1504,3.1711,3.2049,3.2083,3.2405,3.3097,3.3468,3.3118,3.1816,3.2408,3.3136,3.3863,3.3947,3.4235,3.4945,3.4709,3.4641,3.5013,3.5081,3.5064,3.5098,3.538,3.56,3.5616,3.5616,3.5616,3.5583,3.5509,3.5553,3.5866,3.5723,3.5634,3.5836,3.5699,3.532,3.4566,3.3882,3.3413,3.3213,3.2939,3.263,3.2137,3.2004,3.1869,3.157,3.1496,3.1496,3.1496,3.1496,3.1496,3.1496,3.1496,3.1496,3.1496,3.1496,3.1322,3.0584,3.0359,3.0147,4.6364,4.6677,4.5595,4.5487,4.6056,4.6056,4.6413,4.7017,4.6489,0.0,0.0,4.5358,4.5334,4.5198,4.4607,4.4214,4.3992,4.3446,4.27,4.1798,4.1824,4.1754,4.1666,4.2093,4.2277,4.2225,4.2072,4.1947,4.1905,4.1306,4.0989,4.0965,4.0924,4.0924,4.0894,4.0894,4.0388,3.9346,3.8632,3.8228,3.8139,3.7773,3.6746,3.4972,3.5115,3.4726,3.3664,3.3026,3.2924,3.3418,3.3045,3.2798,3.277,3.3494,3.3605,3.2926,3.3519,3.3917,3.3853,3.387,3.3901,3.4001,3.4681,3.4682,3.3761,3.3791,3.4113,3.4663,3.4617,3.4764,3.5351,3.4726,3.4303,3.4303,3.4303,3.4303,3.4353,3.494,3.5363,3.5414,3.5498,3.5616,3.5616,3.56,3.5616,3.5616,3.5622,3.5532,3.5379,3.5413,3.5209,3.4447,3.3746,3.2947,3.2594,3.2323,3.1925,3.1814,3.1656,3.1539,3.1539,3.1524,3.1496,3.1496,3.1496,3.1496,3.1496,3.1496,3.1496,3.1496,3.1496,3.1496,3.1467,3.1278,3.0925,4.722,4.6584,4.7223,4.7474,4.7413,4.7413,4.7467,4.7533,4.6908,4.6583,4.6454,4.6413,4.63,4.611,4.6022,4.5527,4.4858,4.4964,4.4243,4.2926,4.3059,4.2789,4.2205,4.2252,4.2179,4.1986,4.1929,4.1838,4.1655,4.148,4.1338,4.1169,4.1163,4.1088,4.0918,4.0894,4.0813,4.0627,3.9963,3.9422,3.8989,3.733,3.6532,3.6582,3.4774,3.399,3.447,3.3849,3.3529,3.3731,3.3733,3.3685,3.3635,3.3957,3.3965,3.3745,3.3965,3.4056,3.4071,3.4074,3.4272,3.4826,3.5442,3.5514,3.4793,3.5271,3.5637,3.5608,3.503,3.4648,3.4629,3.3998,3.3541,3.3558,3.3558,3.3558,3.3575,3.4218,3.4658,3.4658,3.5233,3.5532,3.5481,3.5498,3.5498,3.5566,3.5566,3.5532,3.5354,3.5136,3.4995,3.4799,3.4489,3.4084,3.361,3.315,3.2695,3.2342,3.1981,3.1784,3.1727,3.1597,3.1496,3.1496,3.1496,3.1496,3.1496,3.1496,3.1496,3.1496,3.1496,3.1496,3.1496,3.1393,3.1084,4.6594,4.6116,4.5735,4.6009,4.679,4.7665,4.803,4.799,4.7567,4.7288,4.7129,4.712,4.7035,4.6954,4.6931,4.6543,4.5797,4.5495,4.4713,4.3658,4.329,4.2953,4.2647,4.253,4.2409,4.229,4.2169,4.1831,4.1353,4.1321,4.1223,4.117,4.1576,4.1507,4.0964,4.1354,4.1243,4.0657,4.0538,4.0199,3.9576,3.8748,3.8239,3.8077,3.6565,3.5899,3.6178,3.5551,3.5115,3.5006,3.5139,3.516,3.5111,3.5218,3.5263,3.5222,3.5263,3.5283,3.5321,3.5301,3.5418,3.5687,3.5967,3.6032,3.5671,3.5809,3.5883,3.5761,3.5055,3.4554,3.4477,3.3474,3.2797,3.2818,3.2797,3.2818,3.2882,3.3457,3.3914,3.3931,3.4201,3.4382,3.4421,3.4416,3.4585,3.4912,3.5301,3.5538,3.5464,3.535,3.5165,3.4947,3.4683,3.4423,3.4118,3.3732,3.3251,3.2738,3.2398,3.2122,3.1898,3.1641,3.1539,3.1496,3.1496,3.1496,3.1496,3.1496,3.1496,3.1496,3.1496,3.1496,3.1466,3.0987,3.0332,4.6067,4.5755,4.4562,4.4856,4.6287,4.77,4.8324,4.8305,4.8111,4.7888,4.7639,4.7554,4.7533,4.7533,4.7572,4.725,4.6701,4.5943,4.5146,4.4331,4.3516,4.3082,4.29,4.2728,4.2649,4.2609,4.2472,4.198,4.126,4.121,4.1103,4.1008,4.1667,4.1586,4.0699,4.1466,4.136,4.0377,4.0591,4.0588,4.0254,4.0236,3.9901,3.9294,3.8488,3.8021,3.7858,3.7207,3.6724,3.6496,3.6425,3.636,3.6314,3.6297,3.6322,3.6381,3.6381,3.6385,3.6402,3.6322,3.6284,3.6284,3.6146,3.6059,3.6038,3.5801,3.5696,3.5764,3.5159,3.4652,3.4478,3.3435,3.2605,3.2588,3.2584,3.2649,3.2632,3.3068,3.3389,3.3389,3.3389,3.344,3.3389,3.3389,3.366,3.4218,3.4895,3.5312,3.5346,3.5447,3.5385,3.4981,3.475,3.4723,3.4472,3.4219,3.3843,3.324,3.2949,3.2668,3.2302,3.1938,3.1668,3.1668,3.1553,3.1496,3.1496,3.1496,3.1496,3.1496,3.1496,3.1451,3.1197,3.0253,2.9445,4.6544,4.5938,4.5626,4.6177,4.6984,4.7901,4.8324,4.8305,4.8208,4.809,4.7911,4.7783,4.7696,4.7696,4.7678,4.7606,4.7464,4.6757,4.5924,4.5091,4.4349,4.3588,4.2955,4.2881,4.2786,4.2649,4.2747,4.2295,4.135,4.1465,4.1141,4.045,4.0905,4.0824,4.0176,4.0804,4.0784,3.9977,3.9993,4.0406,4.1186,4.0822,4.0457,4.0171,3.9355,3.8915,3.8835,3.8224,3.7863,3.7851,3.7056,3.6664,3.6623,3.6423,3.6423,3.6643,3.6681,3.6643,3.6661,3.644,3.6284,3.6249,3.568,3.5335,3.5318,3.516,3.5389,3.5762,3.5441,3.498,3.4831,3.3955,3.34,3.3366,3.33,3.3305,3.3271,3.3355,3.3389,3.3389,3.3389,3.3389,3.3339,3.3305,3.3389,3.3474,3.4134,3.4607,3.4624,3.5008,3.516,3.479,3.4981,3.5289,3.5098,3.4897,3.4553,3.4276,3.3758,3.3355,3.3039,3.2602,3.212,3.184,3.1692,3.1477,3.1346,3.1496,3.1406,3.1212,3.1212,3.1256,3.0657,2.9699,2.8966,4.5498,4.5149,4.4672,4.5223,4.6489,4.7755,4.8286,4.8246,4.813,4.801,4.7907,4.778,4.7699,4.7699,4.7699,4.7464,4.6993,4.6631,4.5816,4.4639,4.424,4.368,4.2973,4.2919,4.2844,4.2786,4.2863,4.2175,4.0998,4.0528,4.013,3.9842,4.04,4.0327,3.9605,4.0288,4.0287,3.9476,3.9835,4.0276,4.0577,4.0359,4.0197,4.0104,3.933,3.8826,3.8695,3.7985,3.756,3.7446,3.7084,3.6886,3.6886,3.6788,3.6751,3.6869,3.6869,3.6869,3.6869,3.6667,3.6541,3.6544,3.5711,3.5197,3.5163,3.4743,3.4636,3.4877,3.4964,3.4945,3.4835,3.4133,3.3607,3.3586,3.3486,3.3406,3.3389,3.3406,3.3389,3.3389,3.3389,3.322,3.2848,3.2747,3.2747,3.2831,3.3389,3.3863,3.388,3.4117,3.4129,3.4032,3.4472,3.4873,3.4897,3.5143,3.5041,3.4738,3.4366,3.4062,3.354,3.3156,3.2613,3.1917,3.1619,3.1132,3.0385,3.0387,3.0372,3.0477,3.0432,3.0357,3.0462,2.9804,2.928,4.4892,4.4635,4.4048,4.4617,4.5993,4.7388,4.8084,4.8208,4.8052,4.797,4.7904,4.778,4.7699,4.7699,4.7699,4.7265,4.6576,4.6504,4.5635,4.4222,4.4095,4.3679,4.2973,4.2919,4.2919,4.2864,4.2647,4.1741,4.0274,3.9441,3.9078,3.9188,4.0021,4.0076,3.9426,4.0041,4.0023,3.9283,3.9518,3.9644,3.9644,3.9498,3.9638,4.0015,3.9491,3.9073,3.892,3.8136,3.7634,3.75,3.7247,3.7085,3.7085,3.7046,3.7027,3.7085,3.7085,3.7085,3.7085,3.6888,3.6745,3.6632,3.5812,3.5155,3.4872,3.4407,3.4027,3.3835,3.4335,3.4644,3.4548,3.4226,3.3955,3.3913,3.3927,3.4015,3.4027,3.3858,3.3728,3.3711,3.3558,3.322,3.275,3.2645,3.2645,3.2479,3.2949,3.3271,3.3203,3.3271,3.3385,3.3169,3.3728,3.4252,3.451,3.5104,3.5295,3.5178,3.4887,3.4502,3.3916,3.3584,3.2946,3.2116,3.1725,3.1194,3.05,3.0063,3.0088,3.0043,2.9924,2.9909,3.0402,2.9834,2.9412,4.5406,4.4727,4.4672,4.5168,4.5975,4.6856,4.7626,4.8267,4.8092,4.801,4.7951,4.7801,4.7699,4.7699,4.7699,4.7265,4.6558,4.645,4.5562,4.4114,4.4077,4.3661,4.2955,4.2919,4.2919,4.2865,4.2285,4.1162,3.9623,3.8753,3.8263,3.8409,3.9822,4.013,3.9623,4.0148,4.0112,3.9406,3.8755,3.8336,3.8403,3.8301,3.8903,3.9949,4.0034,3.9851,3.9814,3.9148,3.8663,3.8681,3.7762,3.7295,3.7295,3.7124,3.7087,3.7259,3.7278,3.7295,3.7259,3.7105,3.6908,3.6658,3.5951,3.5124,3.4481,3.4199,3.3818,3.3093,3.3798,3.4154,3.4106,3.4466,3.4652,3.4636,3.5113,3.5368,3.5414,3.4776,3.4489,3.4353,3.3897,3.3457,3.3339,3.3355,3.2983,3.2666,3.2949,3.3186,3.2784,3.3017,3.3,3.2747,3.3051,3.3694,3.4353,3.4776,3.5261,3.5144,3.4728,3.4887,3.4486,3.3907,3.3102,3.2473,3.2372,3.1845,3.0887,3.063,3.0934,3.0761,3.0028,2.9998,3.0627,2.9475,2.916,4.4212,4.4085,4.559,4.614,4.6049,4.7297,4.8011,4.8228,4.807,4.797,4.7925,4.778,4.7699,4.7699,4.7699,4.6975,4.5816,4.5725,4.4856,4.3516,4.3842,4.3661,4.2973,4.2919,4.2919,4.2865,4.2592,4.1922,4.089,4.0075,3.9677,3.9713,4.0202,4.0329,4.0202,4.0347,4.0148,3.9459,3.9113,3.8782,3.838,3.8303,3.8561,3.8985,3.8884,3.8779,3.8708,3.8384,3.8169,3.8041,3.7682,3.7503,3.7484,3.7411,3.7428,3.7484,3.7503,3.7503,3.7484,3.7279,3.7163,3.7013,3.6092,3.5394,3.4966,3.4469,3.3975,3.3783,3.3869,3.4037,3.4077,3.4528,3.4928,3.4925,3.5358,3.5672,3.5588,3.5368,3.5199,3.5076,3.4556,3.3947,3.3592,3.3406,3.3288,3.3034,3.2848,3.2814,3.2933,3.2899,3.2649,3.2493,3.2899,3.3322,3.3021,3.3711,3.4163,3.4163,3.4059,3.4224,3.4035,3.4101,3.3459,3.2947,3.2864,3.2394,3.1374,3.0543,3.0973,3.0881,3.0163,3.0253,3.0943,2.9968,2.9864,4.3808,4.4452,4.5737,4.6324,4.6434,4.7424,4.8047,4.819,4.811,4.7902,4.7656,4.7736,4.7656,4.7397,4.736,4.6814,4.5725,4.5436,4.4421,4.3028,4.3462,4.3407,4.301,4.2919,4.2919,4.2865,4.2611,4.2103,4.1343,4.0764,4.051,4.0492,4.0727,4.0872,4.0872,4.089,4.0637,4.0255,4.0016,3.9557,3.888,3.885,3.8734,3.8519,3.835,3.817,3.7967,3.7933,3.7846,3.7667,3.7631,3.7613,3.7595,3.7595,3.7595,3.7595,3.7595,3.7595,3.7577,3.7466,3.7372,3.726,3.6513,3.5876,3.5518,3.4854,3.4426,3.4182,3.4096,3.4056,3.4134,3.463,3.5015,3.4916,3.5214,3.5496,3.5588,3.56,3.5583,3.5498,3.5165,3.4641,3.4235,3.4167,3.4032,3.3812,3.3271,3.3241,3.3254,3.3017,3.253,3.2395,3.2662,3.2594,3.231,3.251,3.3372,3.347,3.3588,3.3714,3.3953,3.4024,3.3929,3.3459,3.303,3.256,3.1826,3.0851,3.0624,3.0721,3.0507,3.0432,3.0657,3.0569,3.0357,4.4415,4.5553,4.5094,4.581,4.6929,4.7241,4.7626,4.8212,4.8208,4.7784,4.7251,4.7703,4.7547,4.6902,4.6921,4.6678,4.6216,4.5709,4.4586,4.3155,4.3082,4.3046,4.2919,4.2919,4.2919,4.2864,4.214,4.1433,4.0854,4.0782,4.0745,4.0764,4.1397,4.1705,4.1705,4.1723,4.1742,4.156,4.1085,4.0478,3.9884,3.9781,3.9444,3.8857,3.8713,3.8483,3.8118,3.8052,3.7933,3.7739,3.7703,3.7667,3.7613,3.7595,3.7595,3.7595,3.7595,3.7595,3.7595,3.7594,3.7484,3.7336,3.7089,3.6525,3.5821,3.5411,3.5013,3.451,3.4337,3.4231,3.4369,3.478,3.5036,3.4798,3.4904,3.5196,3.5492,3.5583,3.5566,3.5447,3.5318,3.5554,3.5515,3.5211,3.4945,3.459,3.4235,3.4015,3.3778,3.3575,3.3102,3.2666,3.2784,3.2814,3.2019,3.1376,3.2273,3.3,3.3169,3.3351,3.3816,3.4033,3.4029,3.3661,3.3585,3.3137,3.2619,3.172,3.1317,3.1286,3.0923,3.0681,3.0696,3.0681,3.0283,4.4635,4.5186,4.6012,4.6617,4.7149,4.7681,4.8085,4.8287,4.8246,4.773,4.7235,4.7685,4.7494,4.6997,4.7292,4.6904,4.5782,4.5967,4.5352,4.3952,4.3734,4.3407,4.2973,4.2919,4.2919,4.2883,4.2665,4.2393,4.2158,4.2103,4.214,4.223,4.2375,4.252,4.2484,4.2502,4.2377,4.1905,4.1722,4.1298,4.0632,4.0162,3.9772,3.9515,3.9019,3.8596,3.838,3.8271,3.8104,3.7915,3.7863,3.7793,3.7667,3.7613,3.7595,3.7595,3.7595,3.7595,3.7595,3.7595,3.7558,3.7466,3.7316,3.7018,3.6593,3.6304,3.6017,3.5635,3.5611,3.5611,3.5556,3.5239,3.5063,3.4844,3.5266,3.5499,3.5526,3.5199,3.4641,3.4252,3.4523,3.4793,3.4861,3.4895,3.5047,3.5131,3.4489,3.3981,3.4619,3.4387,3.415,3.385,3.3728,3.3339,3.2662,3.2307,3.278,3.3152,3.3186,3.344,3.3837,3.4042,3.4006,3.4058,3.3971,3.3689,3.3133,3.2723,3.2276,3.1953,3.1701,3.1468,3.119,3.091,3.0616,4.4892,4.5259,4.625,4.7021,4.7498,4.781,4.8049,4.825,4.8229,4.7605,4.6927,4.7656,4.7449,4.6769,4.7557,4.7407,4.641,4.6943,4.6268,4.4735,4.4205,4.3661,4.301,4.2919,4.2919,4.2919,4.2919,4.2919,4.2919,4.2919,4.2919,4.2901,4.2919,4.2901,4.2919,4.2901,4.2685,4.2432,4.2431,4.2137,4.1525,4.104,4.0506,3.9918,3.9405,3.8985,3.863,3.8433,3.8271,3.8052,3.7933,3.7828,3.7703,3.7649,3.7631,3.7595,3.7595,3.7595,3.7595,3.7595,3.7595,3.7558,3.741,3.7201,3.7027,3.6823,3.6602,3.6343,3.6249,3.6284,3.6176,3.5859,3.5483,3.5394,3.5373,3.5572,3.5458,3.5216,3.4827,3.4551,3.4726,3.4844,3.4912,3.4928,3.5042,3.5329,3.4822,3.4366,3.5278,3.5199,3.4912,3.4624,3.4303,3.388,3.3457,3.3372,3.3474,3.344,3.3339,3.3711,3.4112,3.415,3.4141,3.4391,3.4424,3.4088,3.3608,3.3407,3.3072,3.2807,3.2385,3.2093,3.1769,3.1473,3.1164,4.5223,4.5865,4.5975,4.6874,4.7976,4.7535,4.77,4.8251,4.8305,4.748,4.6617,4.7626,4.7441,4.6541,4.7565,4.7945,4.7884,4.7682,4.6895,4.5504,4.4554,4.3698,4.2992,4.2919,4.2919,4.2919,4.2919,4.2919,4.2919,4.2919,4.2919,4.2919,4.2919,4.2919,4.2919,4.2919,4.2976,4.3069,4.3142,4.2847,4.2361,4.2213,4.1589,4.0212,3.9918,3.9496,3.8951,3.8617,3.8364,3.8153,3.802,3.7881,3.7757,3.7703,3.7667,3.7613,3.7595,3.7595,3.7595,3.7595,3.7595,3.7577,3.7447,3.7239,3.7066,3.6886,3.6664,3.6402,3.6322,3.6284,3.6284,3.6211,3.6147,3.6041,3.5471,3.523,3.5436,3.5481,3.5278,3.5245,3.543,3.5515,3.5397,3.538,3.5532,3.5549,3.5447,3.5464,3.5481,3.5397,3.5194,3.4996,3.4793,3.4607,3.4235,3.4218,3.432,3.432,3.415,3.4336,3.4455,3.4391,3.4488,3.4714,3.4748,3.4423,3.4224,3.4062,3.3613,3.3076,3.278,3.2602,3.2329,3.1968,3.1673,4.5718,4.5957,4.6526,4.7021,4.7461,4.7773,4.8086,4.8306,4.8324,4.77,4.7131,4.7847,4.768,4.6852,4.7734,4.7877,4.7303,4.7232,4.6701,4.5601,4.4668,4.3756,4.3046,4.2919,4.2919,4.2919,4.2919,4.2919,4.2919,4.2919,4.2919,4.2919,4.2919,4.2919,4.2919,4.2919,4.3013,4.3178,4.3214,4.3213,4.3096,4.258,4.2121,4.168,4.0561,3.9882,3.9533,3.8868,3.8462,3.8334,3.8135,3.8035,3.7966,3.7792,3.7703,3.7667,3.7631,3.7595,3.7595,3.7595,3.7595,3.7595,3.7522,3.7447,3.7239,3.7027,3.6829,3.6606,3.6426,3.6284,3.628,3.6255,3.6144,3.5932,3.5669,3.536,3.5103,3.5267,3.5228,3.4315,3.5092,3.538,3.5233,3.5385,3.5633,3.5633,3.5616,3.5616,3.5616,3.56,3.5397,3.5447,3.5329,3.5245,3.5126,3.5092,3.5126,3.5245,3.5216,3.5182,3.5081,3.4817,3.4992,3.5206,3.5,3.47,3.4758,3.4757,3.4114,3.3673,3.3598,3.3563,3.2781,3.2293,3.2071,4.5902,4.5975,4.6764,4.7094,4.7149,4.7609,4.7994,4.8269,4.8306,4.7828,4.7406,4.7957,4.7626,4.6708,4.7736,4.7569,4.6577,4.6834,4.634,4.5131,4.4217,4.3486,4.301,4.2919,4.2919,4.2919,4.2919,4.2919,4.2919,4.2919,4.2919,4.2919,4.2919,4.2938,4.2994,4.3012,4.3087,4.3269,4.3305,4.3358,4.3442,4.3057,4.2616,4.2286,4.1295,4.0689,3.9955,3.9046,3.8544,3.843,3.8285,3.8171,3.8103,3.7897,3.7775,3.7703,3.7631,3.7595,3.7595,3.7595,3.7595,3.7595,3.7595,3.7503,3.7316,3.7124,3.6908,3.6705,3.6461,3.6322,3.6301,3.6276,3.6277,3.6393,3.6321,3.6089,3.5514,3.5893,3.5876,3.5656,3.596,3.6282,3.5554,3.5859,3.5842,3.5701,3.5616,3.5616,3.5616,3.56,3.5566,3.5498,3.5583,3.5498,3.543,3.5414,3.5464,3.5616,3.5943,3.596,3.5639,3.5284,3.5329,3.5419,3.52,3.509,3.512,3.5276,3.5319,3.4991,3.4803,3.4521,3.3921,3.3266,3.2958,4.603,4.6085,4.6892,4.7168,4.7131,4.7204,4.7718,4.8233,4.8324,4.792,4.7553,4.7993,4.7497,4.614,4.7607,4.7424,4.5993,4.6745,4.5975,4.4876,4.3889,4.3305,4.2993,4.2938,4.2938,4.2938,4.2919,4.2919,4.2919,4.2919,4.2919,4.2919,4.2919,4.2975,4.3049,4.3086,4.3215,4.3359,4.3376,4.3411,4.348,4.3386,4.3075,4.2598,4.1992,4.113,4.0047,3.9132,3.8643,3.8507,3.8385,3.8271,3.8153,3.8002,3.7898,3.7775,3.7685,3.7613,3.7613,3.7613,3.7595,3.7595,3.7595,3.7611,3.755,3.7447,3.7271,3.7108,3.6645,3.6571,3.6542,3.6452,3.6741,3.7079,3.7222,3.7143,3.7091,3.7055,3.7246,3.7702,3.7787,3.7635,3.71,3.6812,3.662,3.6079,3.5825,3.5464,3.5368,3.5216,3.5233,3.5261,3.543,3.5667,3.565,3.5667,3.5735,3.5853,3.6332,3.6434,3.6096,3.5825,3.5684,3.5622,3.5661,3.5496,3.5278,3.5544,3.6181,3.6018,3.5656,3.5673,3.561,3.4915,3.4457,4.6837,4.6892,4.77,4.7663,4.7259,4.7755,4.8141,4.8306,4.8324,4.8158,4.8085,4.8173,4.7641,4.6762,4.7528,4.7252,4.5956,4.6395,4.612,4.473,4.4346,4.3706,4.3195,4.3049,4.3049,4.303,4.2938,4.2919,4.2919,4.2919,4.2919,4.2919,4.2919,4.2975,4.3086,4.3104,4.3196,4.3359,4.3394,4.3429,4.348,4.3479,4.3387,4.3075,4.2084,4.0965,3.9992,3.9111,3.8692,3.8624,3.8528,3.843,3.8332,3.8152,3.8035,3.7967,3.781,3.7703,3.7685,3.7667,3.7595,3.7595,3.7702,3.7862,3.8448,3.8293,3.8176,3.804,3.7723,3.7411,3.7275,3.715,3.7463,3.7905,3.8094,3.8265,3.8655,3.8608,3.8099,3.7709,3.8125,3.8294,3.7117,3.7466,3.7212,3.6603,3.6045,3.5436,3.5267,3.5199,3.5385,3.5701,3.5893,3.6197,3.6113,3.6146,3.6214,3.6485,3.6941,3.7026,3.6688,3.6569,3.6552,3.6417,3.6225,3.6076,3.6044,3.6924,3.7784,3.7125,3.6551,3.6757,3.6753,3.6253,3.6023,4.6415,4.7131,4.7553,4.748,4.7278,4.7939,4.8324,4.8324,4.8324,4.8305,4.8247,4.8207,4.771,4.6939,4.7192,4.659,4.5386,4.5113,4.4766,4.3999,4.3835,4.3579,4.3269,4.3105,4.3086,4.3068,4.2957,4.2938,4.2975,4.2956,4.2919,4.2919,4.2937,4.2994,4.3123,4.3123,4.3233,4.3394,4.3411,4.3429,4.3497,4.3479,4.3479,4.3314,4.2341,4.1405,4.1038,3.9882,3.9368,3.915,3.8844,3.8544,3.843,3.8234,3.8101,3.8071,3.8258,3.8008,3.7846,3.7953,3.8023,3.7648,3.7916,3.8344,3.8751,3.8903,3.9036,3.8936,3.8631,3.8273,3.8052,3.7969,3.8281,3.8723,3.89,3.9189,3.9648,3.9445,3.9069,3.8594,3.9139,3.886,3.8447,3.8278,3.7922,3.7381,3.7178,3.6637,3.6772,3.6688,3.6552,3.6705,3.6738,3.6772,3.6677,3.666,3.6721,3.7161,3.7804,3.7719,3.7432,3.7432,3.7483,3.7195,3.6891,3.7222,3.7391,3.8379,3.8757,3.8111,3.7725,3.793,3.7883,3.7449,3.7377,4.5737,4.7113,4.7223,4.7278,4.7369,4.8012,4.8324,4.8324,4.8324,4.8286,4.8208,4.8187,4.756,4.6807,4.6729,4.5873,4.4745,4.3707,4.347,4.3707,4.3415,4.3269,4.316,4.3123,4.3086,4.3086,4.2975,4.2993,4.3211,4.3156,4.3245,4.3155,4.3155,4.3213,4.3214,4.3178,4.3251,4.3446,4.3446,4.3429,4.348,4.3497,4.3479,4.3349,4.2671,4.2176,4.1791,4.0891,4.0084,4.0029,3.9313,3.8868,3.8597,3.8287,3.8119,3.8106,3.8546,3.8546,3.8276,3.8507,3.8647,3.7898,3.8504,3.8933,3.9107,3.9493,3.9662,3.9373,3.9,3.8651,3.8725,3.875,3.9083,3.9565,3.9725,3.9986,4.025,3.9873,3.9783,3.9957,3.9874,3.9502,3.9206,3.8962,3.8565,3.821,3.8007,3.7838,3.7905,3.7753,3.7364,3.7229,3.7178,3.7297,3.7212,3.7895,3.7879,3.7821,3.8531,3.8379,3.8159,3.8176,3.8125,3.7753,3.7618,3.7932,3.8297,3.8874,3.9001,3.8732,3.8739,3.8803,3.874,3.8626,3.8616,4.6269,4.7149,4.7828,4.8104,4.8122,4.8269,4.8324,4.8324,4.8324,4.8305,4.8267,4.8093,4.7229,4.6294,4.6372,4.6007,4.4941,4.3832,4.3469,4.3834,4.3469,4.3105,4.3105,4.3086,4.3086,4.3067,4.2993,4.321,4.3681,4.3916,4.3751,4.3879,4.3919,4.3778,4.3415,4.3269,4.3305,4.3429,4.3446,4.3464,4.3464,4.348,4.3479,4.3441,4.28,4.247,4.2194,4.1497,4.0912,4.082,4.012,3.9724,3.9392,3.882,3.8394,3.8352,3.8724,3.8869,3.8743,3.9239,3.9236,3.8986,3.9307,3.9681,3.9895,4.0319,4.0433,3.9693,3.8961,3.8495,3.9428,3.9549,3.9888,4.0382,4.0565,4.0617,4.0707,4.0559,4.027,4.0345,4.0271,4.0162,3.979,3.9453,3.9123,3.8717,3.8379,3.8108,3.7973,3.776,3.7371,3.7347,3.7432,3.7618,3.777,3.8776,3.9266,3.8759,3.8988,3.9005,3.8853,3.887,3.87,3.8447,3.8362,3.8565,3.8997,3.9404,3.9379,3.9185,3.9387,3.9596,3.9426,3.9239,3.9361,4.6617,4.7681,4.77,4.792,4.8269,4.8324,4.8324,4.8324,4.8324,4.8267,4.8228,4.8094,4.7392,4.642,4.596,4.5614,4.4685,4.3629,4.3521,4.3903,4.3412,4.2994,4.3012,4.3012,4.2994,4.2975,4.2974,4.3155,4.3573,4.3916,4.4133,4.4115,4.4191,4.403,4.3724,4.3415,4.3378,4.3376,4.3429,4.3445,4.3428,4.3497,4.3479,4.3351,4.3184,4.2947,4.2763,4.2139,4.1754,4.1572,4.0879,4.0498,4.0121,3.9562,3.8806,3.8546,3.8831,3.9085,3.9102,3.9545,3.9664,3.9539,4.0075,4.0467,4.0717,4.1125,4.1253,4.0605,3.9852,3.9456,4.0245,4.029,4.0532,4.0774,4.0894,4.0894,4.0871,4.084,4.0697,4.0502,4.0362,4.0246,4.0087,3.9825,3.9639,3.9283,3.8826,3.8539,3.8285,3.8183,3.8048,3.82,3.8396,3.8447,3.8582,3.914,3.9926,3.9639,3.9436,3.9428,3.9478,3.9453,3.9453,3.9351,3.9334,3.9233,3.9478,3.9825,3.9732,3.9673,3.9758,3.9851,3.9885,3.9926,3.9899,4.6746,4.8012,4.7535,4.77,4.8251,4.8324,4.8324,4.8324,4.8324,4.8157,4.7988,4.7895,4.7358,4.6474,4.5636,4.4853,4.3994,4.3155,4.33,4.3554,4.3227,4.2901,4.2919,4.2919,4.2919,4.2956,4.3227,4.3282,4.3864,4.4225,4.4441,4.4806,4.4716,4.4429,4.4288,4.3853,4.3561,4.3359,4.3411,4.3464,4.348,4.3479,4.3479,4.3479,4.3479,4.3442,4.3314,4.2856,4.2544,4.2289,4.1744,4.1181,4.1017,4.0329,3.9534,3.8999,3.9174,3.9283,3.9498,4.0155,4.0521,4.0216,4.0895,4.1163,4.1143,4.1385,4.1742,4.1542,4.078,4.0381,4.0724,4.0884,4.0877,4.0894,4.0894,4.0894,4.0894,4.0864,4.0817,4.0648,4.0461,4.0313,4.0179,4.0062,3.9859,3.9842,3.9419,3.9469,3.9283,3.9453,3.9419,3.9486,3.9571,3.952,3.9486,3.9309,3.9876,3.9943,3.9825,3.9842,3.9926,3.9977,3.9926,3.9808,3.9859,3.9808,4.0045,4.0113,3.9977,3.9926,4.0045,4.007,4.002,4.0028,4.0036,4.6416,4.7296,4.7921,4.8233,4.8268,4.8251,4.8288,4.8269,4.8196,4.7865,4.7203,4.7146,4.6687,4.5843,4.4945,4.3995,4.3338,4.3065,4.3064,4.3281,4.3046,4.2919,4.2919,4.2919,4.2919,4.2973,4.3516,4.4349,4.4731,4.4983,4.5568,4.6045,4.6032,4.5857,4.4674,4.4364,4.4125,4.3558,4.3464,4.348,4.3479,4.3479,4.3479,4.3479,4.3479,4.3479,4.3479,4.3243,4.3189,4.315,4.2495,4.2095,4.1895,4.1152,4.0701,4.0434,4.0329,4.0202,4.0289,4.0979,4.1448,4.1145,4.1645,4.1663,4.1482,4.1149,4.136,4.1821,4.0863,4.0528,4.0926,4.0977,4.0918,4.0894,4.0894,4.0894,4.0894,4.0894,4.084,4.0745,4.0576,4.0436,4.0313,4.0213,4.0096,4.0096,4.0113,4.0113,4.0113,4.0113,4.0113,4.0011,3.9977,3.9926,3.9893,3.9825,3.9876,4.0096,4.0113,4.0113,4.0113,4.0113,4.0096,4.0028,4.0113,4.0113,4.0113,4.0113,4.0113,4.0113,4.0113,4.0113,4.0113,4.0121,4.0138,4.6214,4.7755,4.7663,4.7884,4.8177,4.7352,4.7205,4.748,4.7131,4.6764,4.6452,4.6397,4.5901,4.5114,4.4527,4.4142,4.3648,4.3212,4.3265,4.3318,4.3137,4.2919,4.2919,4.2919,4.2919,4.301,4.3354,4.4077,4.4947,4.578,4.6311,4.661,4.6628,4.6104,4.5147,4.471,4.4017,4.3506,4.3358,4.3428,4.3445,4.348,4.3479,4.3479,4.3479,4.3442,4.3442,4.348,4.3463,4.3425,4.3007,4.29,4.2663,4.2064,4.1466,4.1412,4.1144,4.0977,4.0991,4.1484,4.1654,4.1879,4.2093,4.2111,4.1752,4.1332,4.1224,4.1825,4.0928,4.0669,4.1018,4.0977,4.0942,4.0894,4.0894,4.0894,4.0894,4.0894,4.0847,4.0793,4.0697,4.0576,4.0436,4.0288,4.0146,4.0138,4.0113,4.0113,4.0113,4.0113,4.0113,4.0096,4.0079,4.0062,4.0045,4.0011,3.9977,4.0113,4.0113,4.0113,4.0113,4.0113,4.0248,4.0197,4.0146,4.013,4.013,4.0113,4.013,4.0113,4.0113,4.0214,4.0316,4.0231,4.0375,4.6067,4.7609,4.7039,4.7149,4.759,4.6379,4.625,4.6691,4.6214,4.5828,4.5645,4.5571,4.5132,4.4528,4.4364,4.4254,4.3905,4.3377,4.3449,4.3464,4.33,4.2992,4.2938,4.2938,4.2919,4.2992,4.3662,4.4332,4.5254,4.6214,4.6889,4.7011,4.7084,4.6539,4.5833,4.5128,4.4345,4.3251,4.3341,4.3412,4.3411,4.3463,4.3479,4.3424,4.3314,4.3185,4.3185,4.3098,4.3062,4.3113,4.3247,4.3212,4.3139,4.2684,4.2304,4.2196,4.1976,4.1806,4.1691,4.1789,4.1853,4.2096,4.2308,4.2272,4.2218,4.1698,4.1497,4.2005,4.1314,4.106,4.1143,4.1065,4.0918,4.0894,4.0894,4.0894,4.0894,4.0894,4.0894,4.0823,4.0769,4.0697,4.0551,4.0362,4.0246,4.0188,4.0138,4.0113,4.0113,4.0113,4.0113,4.0113,4.0113,4.0113,4.0113,4.0113,4.0113,4.0146,4.0146,4.0299,4.0417,4.0553,4.0705,4.057,4.0451,4.0468,4.0629,4.0358,4.0163,4.035,4.0519,4.0536,4.0553,4.0502,4.0722,4.5902,4.6067,4.5993,4.603,4.614,4.5957,4.5883,4.5957,4.5865,4.5369,4.4837,4.4764,4.4417,4.3943,4.4236,4.4145,4.3379,4.316,4.3195,4.3158,4.2993,4.2975,4.2994,4.2975,4.301,4.3357,4.4007,4.4765,4.5599,4.6667,4.7381,4.779,4.7575,4.7276,4.655,4.5566,4.4454,4.347,4.3305,4.3394,4.3411,4.3445,4.3479,4.3349,4.2837,4.2396,4.2398,4.2462,4.2426,4.2582,4.2864,4.2975,4.2901,4.2813,4.265,4.2577,4.2592,4.242,4.234,4.2181,4.2203,4.229,4.2308,4.2308,4.229,4.229,4.2231,4.2169,4.164,4.1473,4.1396,4.1221,4.0989,4.0894,4.0894,4.0894,4.0894,4.0894,4.0871,4.0871,4.084,4.0769,4.0697,4.0534,4.037,4.0313,4.0188,4.0163,4.0113,4.0113,4.0113,4.0113,4.0113,4.0113,4.0113,4.0113,4.0113,4.0214,4.0282,4.0595,4.0916,4.1052,4.1255,4.1373,4.1356,4.1238,4.1085,4.095,4.0849,4.0865,4.0933,4.1085,4.1322,4.1474,4.1644,4.4415,4.4433,4.4433,4.5002,4.5828,4.4837,4.469,4.5021,4.4635,4.4287,4.4011,4.4433,4.449,4.4309,4.4364,4.4401,4.3889,4.3287,4.3196,4.3087,4.3013,4.2994,4.303,4.3084,4.3192,4.3682,4.4387,4.5254,4.6142,4.683,4.7265,4.7599,4.7806,4.7357,4.6633,4.5654,4.4305,4.3561,4.3233,4.3305,4.3412,4.3445,4.3479,4.3424,4.3299,4.2988,4.299,4.283,4.2573,4.2389,4.2536,4.2499,4.2371,4.2466,4.2559,4.2577,4.2682,4.2727,4.2627,4.2488,4.2405,4.2308,4.2308,4.2308,4.2308,4.2308,4.2308,4.2166,4.1998,4.174,4.156,4.1295,4.1047,4.0965,4.0894,4.0918,4.0894,4.0894,4.0894,4.0871,4.0871,4.084,4.0776,4.068,4.0558,4.0436,4.0313,4.0188,4.0138,4.0146,4.018,4.0282,4.0299,4.0383,4.04,4.0282,4.0163,4.035,4.057,4.1001,4.1491,4.1745,4.1948,4.2117,4.2202,4.1999,4.1813,4.1627,4.1525,4.1474,4.1593,4.1779,4.2066,4.232,4.2472,4.3479,4.3479,4.3479,4.4139,4.4966,4.3992,4.3809,4.4176,4.3791,4.3479,4.3534,4.4103,4.4325,4.4326,4.4565,4.4364,4.4035,4.3652,4.3415,4.3214,4.3068,4.3031,4.3068,4.3104,4.3211,4.3808,4.4459,4.5218,4.5943,4.6558,4.7192,4.7609,4.7681,4.7399,4.6935,4.5662,4.4318,4.3358,4.3414,4.336,4.345,4.3429,4.348,4.3406,4.3152,4.2898,4.2844,4.2701,4.2573,4.2426,4.2425,4.2332,4.2151,4.2081,4.2303,4.2432,4.2537,4.2707,4.2647,4.2508,4.2425,4.2308,4.2308,4.2308,4.2308,4.2308,4.2308,4.2287,4.2061,4.1849,4.1653,4.1475,4.1209,4.1111,4.1041,4.1018,4.0918,4.0894,4.0894,4.0894,4.0888,4.0905,4.1071,4.1034,4.0898,4.069,4.0337,4.0213,4.0138,4.018,4.0316,4.0451,4.0578,4.0663,4.0764,4.0959,4.1145,4.1247,4.1467,4.1711,4.21,4.2388,4.2828,4.32,4.3149,4.2777,4.2574,4.2472,4.2269,4.2023,4.2405,4.2905,4.2482,4.2675,4.2912,4.3479,4.3479,4.3479,4.3534,4.3699,4.3534,4.3534,4.3644,4.3534,4.3534,4.3589,4.3698,4.3754,4.392,4.4563,4.4345,4.3998,4.409,4.3907,4.3342,4.3123,4.3142,4.3123,4.3123,4.3193,4.3503,4.4244,4.5019,4.5562,4.6649,4.7391,4.7591,4.7611,4.7524,4.7718,4.7048,4.5335,4.3427,4.3885,4.3742,4.3415,4.3358,4.3446,4.337,4.2987,4.2698,4.2699,4.2629,4.2483,4.2316,4.2717,4.277,4.2713,4.2738,4.2886,4.2995,4.2735,4.2725,4.2799,4.2506,4.256,4.2608,4.2733,4.2519,4.2376,4.2323,4.2308,4.2287,4.2103,4.1956,4.1827,4.1697,4.1458,4.1277,4.1232,4.1325,4.1261,4.0982,4.1006,4.1456,4.1177,4.0957,4.1233,4.1374,4.1273,4.0988,4.0498,4.0323,4.0417,4.057,4.0857,4.0993,4.117,4.1305,4.1508,4.1897,4.2117,4.2211,4.2286,4.2472,4.2811,4.3183,4.3639,4.4175,4.3988,4.347,4.3403,4.3369,4.32,4.3132,4.3724,4.4022,4.3447,4.3142,4.342,4.3479,4.3479,4.3479,4.3479,4.3479,4.3479,4.3479,4.3479,4.3516,4.3773,4.4085,4.3773,4.4195,4.4746,4.4692,4.4527,4.4308,4.4163,4.3999,4.3448,4.3251,4.3142,4.316,4.3214,4.3284,4.3755,4.4477,4.52,4.6178,4.6721,4.721,4.7482,4.727,4.7039,4.6928,4.6529,4.555,4.4193,4.4086,4.3998,4.3414,4.3358,4.3411,4.3462,4.3046,4.2865,4.2865,4.2776,4.2612,4.2371,4.2772,4.2606,4.2402,4.2336,4.2558,4.2577,4.2389,4.2997,4.3344,4.3531,4.3822,4.3714,4.3358,4.3126,4.3072,4.2537,4.2397,4.2287,4.2187,4.2061,4.1913,4.187,4.1679,4.152,4.1558,4.1896,4.1875,4.1395,4.1308,4.2111,4.2289,4.2185,4.2309,4.2423,4.2334,4.232,4.2023,4.1648,4.1639,4.1645,4.1813,4.183,4.1948,4.2049,4.2252,4.2625,4.2709,4.2642,4.2828,4.3081,4.3453,4.3826,4.4096,4.4429,4.4299,4.4181,4.4045,4.3978,4.4147,4.4361,4.453,4.4598,4.4124,4.3955,4.4175,4.3092,4.3039,4.2782,4.2837,4.3111,4.3386,4.3479,4.3479,4.3498,4.3775,4.4066,4.3699,4.3974,4.4746,4.5095,4.451,4.4381,4.4766,4.4163,4.3648,4.3634,4.3689,4.367,4.3469,4.3758,4.4082,4.4205,4.4729,4.5436,4.5906,4.6486,4.6902,4.6796,4.6628,4.6447,4.6144,4.5497,4.441,4.4157,4.3905,4.3451,4.3251,4.3269,4.3269,4.316,4.3105,4.3196,4.3142,4.2978,4.2683,4.2515,4.2368,4.2148,4.2136,4.2431,4.2486,4.2806,4.3444,4.3951,4.4614,4.4999,4.5392,4.45,4.38,4.3533,4.3036,4.2608,4.245,4.2379,4.2243,4.2115,4.2055,4.2041,4.1886,4.2172,4.2529,4.2683,4.2236,4.213,4.294,4.3172,4.3212,4.3379,4.3534,4.3528,4.3615,4.364,4.3192,4.2737,4.2596,4.2591,4.2675,4.2777,4.2912,4.3081,4.3379,4.3362,4.3149,4.3369,4.3673,4.391,4.4259,4.4462,4.4598,4.4479,4.4429,4.4513,4.4547,4.4496,4.4496,4.4564,4.4598,4.4598,4.4598,4.4598,4.2268,4.2139,4.1407,4.1607,4.2323,4.2965,4.3314,4.3461,4.3429,4.3483,4.3589,4.3608,4.3754,4.3993,4.5131,4.4875,4.4015,4.4986,4.4491,4.3924,4.3852,4.4144,4.4181,4.409,4.3905,4.3993,4.4081,4.3987,4.4258,4.5144,4.5886,4.6189,4.6019,4.598,4.5877,4.5377,4.4765,4.4203,4.4077,4.3736,4.3231,4.3012,4.3049,4.305,4.3012,4.3012,4.3068,4.3087,4.316,4.3177,4.3283,4.3336,4.3302,4.3196,4.3178,4.3231,4.3471,4.4035,4.4511,4.5213,4.6016,4.6302,4.5534,4.4535,4.3929,4.3714,4.334,4.2912,4.2733,4.2555,4.2409,4.2436,4.2465,4.2644,4.293,4.3243,4.3541,4.3456,4.3371,4.3544,4.3575,4.3741,4.4173,4.4371,4.4389,4.4518,4.4412,4.4006,4.3539,4.3088,4.3159,4.3453,4.3572,4.3792,4.3944,4.4005,4.4022,4.3819,4.4022,4.4282,4.4496,4.4513,4.4564,4.4598,4.4598,4.4598,4.4598,4.4598,4.4581,4.4598,4.4598,4.4598,4.4598,4.4598,4.4598,4.1444,4.1407,4.1187,4.1258,4.1462,4.1595,4.2345,4.3388,4.3447,4.3685,4.4323,4.3684,4.372,4.4415,4.4837,4.4324,4.4215,4.4288,4.4178,4.3959,4.3832,4.3724,4.367,4.367,4.345,4.3375,4.3409,4.3569,4.4148,4.4833,4.5147,4.5353,4.4973,4.5027,4.4813,4.4133,4.388,4.379,4.3848,4.3492,4.3077,4.2841,4.2879,4.288,4.2842,4.2879,4.2937,4.2936,4.3012,4.305,4.3068,4.3087,4.3068,4.2975,4.2938,4.2928,4.3625,4.4489,4.4803,4.5856,4.6712,4.6873,4.6427,4.6016,4.5285,4.4624,4.4175,4.3697,4.3322,4.3179,4.3019,4.2998,4.3173,4.3483,4.3752,4.4041,4.429,4.434,4.4283,4.4445,4.4474,4.444,4.4872,4.4958,4.4966,4.5189,4.5127,4.4675,4.4309,4.3848,4.366,4.3927,4.4079,4.4198,4.4299,4.4378,4.4462,4.453,4.4598,4.4598,4.4581,4.4564,4.4581,4.4598,4.4598,4.4598,4.4598,4.4598,4.4598,4.4598,4.4598,4.4598,4.4598,4.4598,4.4598,4.0634,4.0598,4.027,4.0306,4.0636,4.0881,4.1779,4.2842,4.2883,4.3194,4.3594,4.3467,4.3704,4.4142,4.4471,4.4323,4.3663,4.4287,4.4269,4.3737,4.372,4.3942,4.3816,4.3597,4.3668,4.3412,4.3099,4.3112,4.3671,4.4207,4.4595,4.45,4.3881,4.404,4.3989,4.3412,4.2979,4.3088,4.322,4.312,4.2904,4.2704,4.2724,4.2725,4.2685,4.2688,4.2767,4.2745,4.2785,4.2863,4.2919,4.2919,4.2863,4.2825,4.2996,4.303,4.3552,4.4485,4.5106,4.5856,4.6551,4.6908,4.698,4.6694,4.6195,4.5552,4.4977,4.4442,4.4139,4.3889,4.3711,4.3622,4.4,4.4375,4.4609,4.484,4.4968,4.507,4.5236,4.5432,4.5433,4.5329,4.5363,4.5414,4.5397,4.5371,4.5274,4.5037,4.4756,4.4507,4.4275,4.4361,4.4445,4.453,4.4598,4.4598,4.4598,4.4598,4.4598,4.4598,4.4598,4.4598,4.4598,4.4598,4.4598,4.4598,4.4598,4.4598,4.4598,4.4598,4.4598,4.4598,4.4598,4.4598,4.4598,3.9808,3.9735,3.9019,3.9258,3.9955,4.0563,4.1284,4.2041,4.1973,4.2047,4.2375,4.3012,4.3413,4.3669,4.4105,4.4067,4.3774,4.4104,4.4121,4.3497,4.3939,4.4179,4.4126,4.4309,4.3741,4.3665,4.3405,4.2815,4.2863,4.3308,4.3704,4.3686,4.3514,4.3453,4.3327,4.288,4.2553,4.255,4.2685,4.2658,4.2622,4.2526,4.2483,4.2483,4.2445,4.2409,4.253,4.2609,4.267,4.2786,4.2843,4.2824,4.2747,4.267,4.2882,4.3176,4.3468,4.425,4.5071,4.5766,4.6337,4.673,4.698,4.6926,4.6551,4.6266,4.5731,4.5356,4.5053,4.4785,4.4589,4.43,4.4464,4.491,4.5258,4.5465,4.5605,4.5551,4.542,4.5563,4.5476,4.5414,4.5414,4.5414,4.5414,4.5371,4.53,4.5194,4.5032,4.4886,4.4765,4.4626,4.4598,4.4598,4.4598,4.4598,4.4598,4.4598,4.4598,4.4598,4.4598,4.4598,4.4598,4.4598,4.4598,4.4598,4.4598,4.4598,4.4598,4.4598,4.4598,4.4598,4.4598,4.4598,4.4598,3.9001,3.8964,3.8781,3.9166,3.9753,3.9342,4.0008,4.1254,4.1152,4.1793,4.2795,4.3123,4.3269,4.3378,4.3666,4.3646,4.3612,4.3702,4.3663,4.3463,4.3738,4.3742,4.3579,4.3488,4.3357,4.3115,4.2797,4.2607,4.2618,4.2739,4.2772,4.2711,4.2688,4.2762,4.2762,4.2384,4.2346,4.2308,4.2348,4.2409,4.2389,4.2369,4.2346,4.2346,4.2328,4.2328,4.2389,4.2389,4.2391,4.2432,4.2432,4.2432,4.245,4.2389,4.2438,4.2647,4.3251,4.4089,4.491,4.5606,4.6195,4.6712,4.6998,4.6998,4.6908,4.6766,4.6551,4.623,4.5945,4.5677,4.5427,4.5142,4.4999,4.5463,4.5869,4.6047,4.6207,4.5895,4.5615,4.5502,4.5441,4.5414,4.5414,4.5414,4.5414,4.5397,4.5397,4.5274,4.5113,4.4968,4.4803,4.4709,4.4598,4.4598,4.4598,4.4598,4.4598,4.4598,4.4598,4.4598,4.4598,4.4598,4.4598,4.4598,4.4598,4.4598,4.4598,4.4598,4.4598,4.4598,4.4598,4.4598,4.4598,4.4598,4.4598,3.8609,3.859,3.8578,3.8816,3.9179,3.9061,3.9741,4.0802,4.1208,4.2012,4.3051,4.3196,4.3233,4.3287,4.3429,4.3375,4.3304,4.3358,4.3305,4.3214,4.2958,4.2959,4.2814,4.2631,4.2717,4.2581,4.2532,4.2447,4.2407,4.2425,4.2402,4.2308,4.2308,4.2308,4.2308,4.2308,4.2308,4.2308,4.2308,4.2308,4.2308,4.2308,4.2308,4.2308,4.2308,4.2308,4.2308,4.2308,4.2308,4.2308,4.2328,4.2328,4.2328,4.2328,4.2522,4.2876,4.3393,4.4,4.4874,4.557,4.6177,4.6712,4.6998,4.6998,4.6998,4.6873,4.6873,4.6587,4.6569,4.6337,4.6302,4.6088,4.607,4.6373,4.6435,4.65,4.6273,4.592,4.5667,4.545,4.5414,4.5414,4.5414,4.5414,4.5414,4.5414,4.5397,4.5327,4.5167,4.5005,4.4858,4.4737,4.4654,4.4598,4.4598,4.4598,4.4598,4.4598,4.4598,4.4598,4.4598,4.4598,4.4598,4.4598,4.4598,4.4598,4.4598,4.4598,4.4598,4.4598,4.4598,4.4598,4.4598,4.4598,4.4598,3.8494,3.8478,3.8412,3.8449,3.8569,3.9128,3.9843,4.0626,4.1338,4.2086,4.2832,4.2905,4.3105,4.3269,4.3359,4.3251,4.3178,4.316,4.305,4.2577,4.2086,4.205,4.1959,4.1829,4.1895,4.2137,4.2284,4.2295,4.2328,4.2328,4.2328,4.2308,4.2308,4.2308,4.2308,4.2308,4.2308,4.2308,4.2308,4.2308,4.2308,4.2308,4.2308,4.2308,4.2308,4.2308,4.2308,4.2433,4.2433,4.2308,4.2308,4.2308,4.2308,4.2325,4.259,4.2947,4.3301,4.4178,4.5124,4.5624,4.6248,4.6748,4.6908,4.6998,4.6998,4.6998,4.6998,4.698,4.6944,4.6926,4.6908,4.689,4.6931,4.6886,4.6835,4.6719,4.6315,4.5938,4.5675,4.5423,4.545,4.545,4.5423,4.5423,4.5423,4.5441,4.5371,4.53,4.522,4.5059,4.4913,4.4793,4.4654,4.4626,4.4598,4.4598,4.4598,4.4598,4.4598,4.4598,4.4598,4.4598,4.4598,4.4598,4.4598,4.4598,4.4598,4.4598,4.4598,4.4598,4.4598,4.4598,4.4598,4.4598,4.4598,3.8433,3.8415,3.8399,3.8399,3.8453,3.8554,3.9046,3.977,3.9976,4.0793,4.1959,4.2087,4.2285,4.2918,4.3104,4.3068,4.2937,4.2919,4.2449,4.1905,4.1595,4.1324,4.1124,4.1102,4.1022,4.1372,4.1917,4.2254,4.2165,4.2218,4.2308,4.2308,4.2308,4.2308,4.2308,4.2308,4.2308,4.2308,4.2308,4.2308,4.2308,4.2308,4.2308,4.2308,4.2308,4.2308,4.245,4.2965,4.2769,4.2501,4.2308,4.2308,4.2308,4.2308,4.2465,4.2822,4.3197,4.4032,4.4852,4.5659,4.632,4.6855,4.6998,4.6998,4.6998,4.6998,4.6998,4.6998,4.698,4.698,4.6962,4.6962,4.6962,4.6847,4.6754,4.6548,4.6259,4.5912,4.5615,4.5589,4.5615,4.5563,4.545,4.5476,4.5528,4.5502,4.5414,4.5344,4.5203,4.5086,4.4968,4.4848,4.4699,4.4626,4.4598,4.4598,4.4598,4.4598,4.4598,4.4598,4.4598,4.4598,4.4598,4.4598,4.4598,4.4598,4.4598,4.4598,4.4598,4.4598,4.4598,4.4598,4.4598,4.4733,4.4823]}]]